[[{"header":{"parameterUnit":"m.s-1","parameterCategory":1,"la1":31.0,"la2":29.5877,"lo1":-88.7671,"lo2":-86.6584,"dy":0.0162,"dx":0.0185,"nx":115,"ny":88,"refTime":"2026-04-04T12:00:00:Z","depth":0,"parameterNumber":2,"parameterNumberName":"U-component_of_WINDS"},"data":[0.0,0.0,0.0,0.0,0.0,0.0,0.0,0.0,0.0,0.0,0.0,0.0,0.0,0.0,0.0,0.0,0.0,0.0,0.0,0.0,0.0,0.0,0.0,0.0,0.0,0.0,0.0,0.0,0.0,0.0,0.0,0.0,0.0,0.0,0.0,0.0,0.0,0.0,0.0,0.0,0.0,0.0,0.0,0.0,0.0,0.0,0.0,0.0,0.0,0.0,0.0,0.0,0.0,0.0,0.0,0.0,0.0,0.0,0.0,0.0,0.0,0.0,0.0,0.0,0.0,0.0,0.0,0.0,0.0,0.0,0.0,0.0,0.0,0.0,0.0,0.0,0.0,0.0,0.0,0.0,0.0,0.0,0.0,0.0,0.0,0.0,0.0,0.0,0.0,0.0,0.0,0.0,0.0,0.0,0.0,0.0,0.0,0.0,0.0,0.0,0.0,0.0,0.0,0.0,0.0,0.0,0.0,0.0,0.0,0.0,0.0,0.0,0.0,0.0,0.0,0.0,0.0,0.0,0.0,0.0,0.0,0.0,0.0,0.0,0.0,0.0,0.0,0.0,0.0,0.0,0.0,0.0,0.0,0.0,0.0,0.0,0.0,0.0,0.0,0.0,0.0,0.0,0.0,0.0,0.0,0.0,0.0,0.0,0.0,0.0,0.0,0.0,0.0,0.0,0.0,0.0,0.0,0.0,0.0,0.0,0.0,0.0,0.0,0.0,0.0,0.0,0.0,0.0,0.0,0.0,0.0,0.0,0.0,0.0,0.0,0.0,0.0,0.0,0.0,0.0,0.0,0.0,0.0,0.0,0.0,0.0,0.0,0.0,0.0,0.0,0.0,0.0,0.0,0.0,0.0,0.0,0.0,0.0,0.0,0.0,0.0,0.0,0.0,0.0,0.0,0.0,0.0,0.0,0.0,0.0,0.0,0.0,0.0,0.0,0.0,0.0,0.0,0.0,0.0,0.0,0.0,0.0,0.0,0.0,0.0,0.0,0.0,0.0,0.0,0.0,0.0,0.0,0.0,0.0,0.0,0.0,0.0,0.0,0.0,0.0,0.0,0.0,0.0,0.0,0.0,0.0,0.0,0.0,0.0,0.0,0.0,0.0,0.0,0.0,0.0,0.0,0.0,0.0,0.0,0.0,0.0,0.0,0.0,0.0,0.0,0.0,0.0,0.0,0.0,0.0,0.0,0.0,0.0,0.0,0.0,0.0,0.0,0.0,0.0,0.0,0.0,0.0,0.0,0.0,0.0,0.0,0.0,0.0,0.0,0.0,0.0,0.0,0.0,0.0,0.0,0.0,0.0,0.0,0.0,0.0,0.0,0.0,0.0,0.0,0.0,0.0,0.0,0.0,0.0,0.0,0.0,0.0,0.0,0.0,0.0,0.0,0.0,0.0,0.0,0.0,0.0,0.0,0.0,0.0,0.0,0.0,0.0,0.0,0.0,0.0,0.0,0.0,0.0,0.0,0.0,0.0,0.0,0.0,0.0,0.0,0.0,0.0,0.0,0.0,0.0,0.0,0.0,0.0,0.0,0.0,0.0,0.0,0.0,0.0,0.0,0.0,0.0,0.0,0.0,0.0,0.0,0.0,0.0,0.0,0.0,0.0,0.0,0.0,0.0,0.0,0.0,0.0,0.0,0.0,0.0,0.0,0.0,0.0,0.0,0.0,0.0,0.0,0.0,0.0,0.0,0.0,0.0,0.0,0.0,0.0,0.0,0.0,0.0,0.0,0.0,0.0,0.0,0.0,0.0,0.0,0.0,0.0,0.0,0.0,0.0,0.0,0.0,0.0,0.0,0.0,0.0,0.0,0.0,0.0,0.0,0.0,0.0,0.0,0.0,0.0,0.0,0.0,0.0,0.0,0.0,0.0,0.0,0.0,0.0,0.0,0.0,0.0,0.0,0.0,0.0,0.0,0.0,0.0,0.0,0.0,0.0,0.0,0.0,0.0,0.0,0.0,0.0,0.0,0.0,0.0,0.0,0.0,0.0,0.0,0.0,0.0,0.0,0.0,0.0,0.0,0.0,0.0,0.0,0.0,0.0,0.0,0.0,0.0,0.0,0.0,0.0,0.0,0.0,0.0,0.0,0.0,0.0,0.0,0.0,0.0,0.0,0.0,0.0,0.0,0.0,0.0,0.0,0.0,0.0,0.0,0.0,0.0,0.0,0.0,0.0,0.0,0.0,0.0,0.0,0.0,0.0,0.0,0.0,0.0,0.0,0.0,0.0,0.0,0.0,0.0,0.0,0.0,0.0,0.0,0.0,0.0,0.0,0.0,0.0,0.0,0.0,0.0,0.0,0.0,0.0,0.0,0.0,0.0,0.0,0.0,0.0,0.0,0.0,0.0,0.0,0.0,0.0,0.0,0.0,0.0,0.0,0.0,0.0,0.0,0.0,0.0,0.0,0.0,0.0,0.0,0.0,0.0,0.0,0.0,0.0,0.0,0.0,0.0,0.0,0.0,0.0,0.0,0.0,0.0,0.0,0.0,0.0,0.0,0.0,0.0,0.0,0.0,0.0,0.0,0.0,0.0,0.0,0.0,0.0,0.0,0.0,0.0,0.0,0.0,0.0,0.0,0.0,0.0,0.0,0.0,0.0,0.0,0.0,0.0,0.0,0.0,0.0,0.0,0.0,0.0,0.0,0.0,0.0,0.0,0.0,0.0,0.0,0.0,0.0,0.0,0.0,0.0,0.0,0.0,0.0,0.0,0.0,0.0,0.0,0.0,0.0,0.0,0.0,0.0,0.0,0.0,0.0,0.0,0.0,0.0,0.0,0.0,0.0,0.0,0.0,0.0,0.0,0.0,0.0,0.0,0.0,0.0,0.0,0.0,0.0,0.0,0.0,0.0,0.0,0.0,0.0,0.0,0.0,0.0,0.0,0.0,0.0,0.0,0.0,0.0,0.0,0.0,0.0,0.0,0.0,0.0,0.0,0.0,0.0,0.0,0.0,0.0,0.0,0.0,0.0,0.0,0.0,0.0,0.0,0.0,0.0,0.0,0.0,0.0,0.0,0.0,0.0,0.0,0.0,0.0,0.0,0.0,0.0,0.0,0.0,0.0,0.0,0.0,0.0,0.0,0.0,0.0,0.0,0.0,0.0,0.0,0.0,0.0,0.0,0.0,0.0,0.0,0.0,0.0,0.0,0.0,0.0,0.0,0.0,0.0,0.0,0.0,0.0,0.0,0.0,0.0,0.0,0.0,0.0,0.0,0.0,0.0,0.0,0.0,0.0,0.0,0.0,0.0,0.0,0.0,0.0,0.0,0.0,0.0,0.0,0.0,0.0,0.0,0.0,0.0,0.0,0.0,0.0,0.0,0.0,0.0,0.0,0.0,0.0,0.0,0.0,0.0,0.0,0.0,0.0,0.0,0.0,0.0,0.0,0.0,0.0,0.0,0.0,0.0,0.0,0.0,0.0,0.0,0.0,0.0,0.0,0.0,0.0,0.0,0.0,0.0,0.0,0.0,0.0,0.0,0.0,0.0,0.0,0.0,0.0,0.0,0.0,0.0,0.0,0.0,0.0,0.0,0.0,0.0,0.0,0.0,0.0,0.0,0.0,0.0,0.0,0.0,0.0,0.0,0.0,0.0,0.0,0.0,0.0,0.0,0.0,0.0,0.0,0.0,0.0,0.0,0.0,0.0,0.0,0.0,0.0,0.0,0.0,0.0,0.0,0.0,0.0,0.0,0.0,0.0,0.0,0.0,0.0,0.0,0.0,0.0,0.0,0.0,0.0,0.0,0.0,0.0,0.0,0.0,0.0,0.0,0.0,0.0,0.0,0.0,0.0,0.0,0.0,0.0,0.0,0.0,0.0,0.0,0.0,0.0,0.0,0.0,0.0,0.0,0.0,0.0,0.0,0.0,0.0,0.0,0.0,0.0,0.0,0.0,0.0,0.0,0.0,0.0,0.0,0.0,0.0,0.0,0.0,0.0,0.0,0.0,0.0,0.0,0.0,0.0,0.0,0.0,0.0,0.0,0.0,0.0,0.0,0.0,0.0,0.0,0.0,0.0,0.0,0.0,0.0,0.0,0.0,0.0,0.0,0.0,0.0,0.0,0.0,0.0,0.0,0.0,0.0,0.0,0.0,0.0,0.0,0.0,0.0,0.0,0.0,0.0,0.0,0.0,0.0,0.0,0.0,0.0,0.0,0.0,0.0,0.0,0.0,0.0,0.0,0.0,0.0,0.0,0.0,0.0,0.0,0.0,0.0,0.0,0.0,0.0,0.0,0.0,0.0,0.0,0.0,0.0,1.1349,0.0,0.0,0.0,0.0,0.0,0.0,0.0,0.0,0.0,0.0,0.0,0.0,0.0,0.0,0.0,0.0,0.0,0.0,0.0,0.0,0.0,0.0,0.0,0.0,0.0,0.0,0.0,0.0,0.0,0.0,0.0,0.0,0.0,0.0,0.0,0.0,0.0,0.0,0.0,0.0,0.0,0.0,0.0,0.0,0.0,0.0,0.0,0.0,0.0,0.0,0.0,0.0,0.0,0.0,0.0,0.0,0.0,0.0,0.0,0.0,0.0,0.0,0.0,0.0,0.0,0.0,0.0,0.0,0.0,0.0,0.0,0.0,0.0,0.0,0.0,0.0,0.0,0.0,0.0,0.0,0.0,0.0,0.0,0.0,0.0,0.0,0.0,0.0,0.0,0.0,0.0,0.0,0.0,0.0,0.0,0.0,0.0,0.0,0.0,0.0,0.0,0.0,0.0,0.0,0.0,0.0,0.0,0.0,0.0,0.0,1.2305,1.2305,1.2171,1.1891,1.1415,0.0,0.0,0.0,0.0,0.0,0.0,0.0,0.0,0.0,0.0,0.0,0.0,0.0,0.0,0.0,0.0,0.0,0.0,0.0,0.0,0.0,0.0,0.0,0.0,0.0,0.0,0.0,0.0,0.0,0.0,0.0,0.0,0.0,0.0,0.0,0.0,0.0,0.0,0.0,0.0,0.0,0.0,0.0,0.0,0.0,0.0,0.0,0.0,0.0,0.0,0.0,0.0,0.0,0.0,0.0,0.0,0.0,0.0,0.0,0.0,0.0,0.0,0.0,0.0,0.0,0.0,0.0,0.0,0.0,0.0,0.0,0.0,0.0,0.0,0.0,0.0,0.0,0.0,0.0,0.0,0.0,0.0,0.0,0.0,0.0,0.0,0.0,0.0,0.0,0.0,0.0,0.0,0.0,0.0,0.0,0.0,0.0,0.0,0.0,0.0,0.0,0.0,0.0,0.0,0.0,0.0,0.0,0.0,0.0,0.0,0.0,0.0,1.2417,1.2131,1.1539,0.0,0.0,0.0,0.0,0.0,0.0,0.0,0.0,0.0,0.0,0.0,0.0,0.0,0.0,0.0,0.0,0.0,0.0,0.0,0.0,0.0,0.0,0.0,0.0,0.0,0.0,0.0,0.0,0.0,0.0,0.0,0.0,0.0,0.0,0.0,0.0,0.0,0.0,0.0,0.0,0.0,0.0,0.0,0.0,0.0,0.0,0.0,0.0,0.0,0.0,0.0,0.0,0.0,0.0,0.0,0.0,0.0,0.0,0.0,0.0,0.0,0.0,0.0,0.0,0.0,0.0,0.0,0.0,0.0,0.0,0.0,0.0,0.0,0.0,0.0,0.0,0.0,0.0,0.0,0.0,0.0,0.0,0.0,0.0,0.0,0.0,0.0,0.0,0.0,0.0,0.0,0.0,0.0,0.0,0.0,0.0,0.0,0.0,0.0,0.0,0.0,0.0,0.0,0.0,0.0,0.0,0.0,0.0,0.0,0.0,1.2763,1.2763,1.2744,0.0,1.1899,0.0,0.0,0.0,0.0,0.0,0.0,0.0,0.0,0.0,0.0,0.0,0.0,0.0,0.0,0.0,0.0,0.0,0.0,0.0,0.0,0.0,0.0,0.0,0.0,0.0,0.0,0.0,0.0,0.0,0.0,0.0,0.0,0.0,0.0,0.0,0.0,0.0,0.0,0.0,0.0,0.0,0.0,0.0,0.0,0.0,0.0,0.0,0.0,0.0,0.0,0.0,0.0,0.0,0.0,0.0,0.0,0.0,0.0,0.0,0.0,0.0,0.0,0.0,0.0,0.0,0.0,0.0,0.0,0.0,0.0,0.0,0.0,0.0,0.0,0.0,0.0,0.0,0.0,0.0,0.0,0.0,0.0,0.0,0.0,0.0,0.0,0.0,0.0,0.0,0.0,0.0,0.0,0.0,0.0,0.0,0.0,0.0,0.0,0.0,0.0,0.0,0.0,0.0,0.0,0.0,0.0,0.0,0.0,0.0,0.0,0.0,1.3267,1.2778,1.239,0.0,0.0,0.0,0.0,0.0,0.0,0.0,0.0,0.0,0.0,0.0,0.0,0.0,0.0,0.0,0.0,0.0,0.0,0.0,0.0,0.0,0.0,0.0,0.0,0.0,0.0,0.0,0.0,0.0,0.0,0.0,0.0,0.0,0.0,0.0,0.0,0.0,0.0,0.0,0.0,0.0,0.0,0.0,0.0,0.0,0.0,0.0,0.0,0.0,0.0,0.0,0.0,0.0,0.0,0.0,0.0,0.0,0.0,0.0,0.0,0.0,0.0,0.0,0.0,0.0,0.0,0.0,0.0,0.0,0.0,0.0,0.0,0.0,0.0,0.0,0.0,0.0,0.0,0.0,0.0,0.0,0.0,0.0,0.0,0.0,0.0,0.0,0.0,0.0,0.0,0.0,0.0,0.0,0.0,0.0,0.0,0.0,0.0,0.0,0.0,0.0,0.0,0.0,0.0,0.0,0.0,0.0,0.0,0.0,0.0,1.2744,0.0,1.3313,1.2692,1.2225,1.2046,0.0,0.0,0.0,0.0,0.0,0.0,0.0,0.0,0.0,0.0,0.0,0.0,0.0,0.0,0.0,0.0,0.0,0.0,0.0,0.0,0.0,0.0,0.0,0.0,0.0,0.0,0.0,0.0,0.0,0.0,0.0,0.0,0.0,0.0,0.0,0.0,0.0,0.0,0.0,0.0,0.0,0.0,0.0,0.0,0.0,0.0,0.0,0.0,0.0,0.0,0.0,0.0,0.0,0.0,0.0,0.0,0.0,0.0,0.0,0.0,0.0,0.0,0.0,0.0,0.0,0.0,0.0,0.0,0.0,0.0,0.0,0.0,0.0,0.0,0.0,0.0,0.0,0.0,0.0,0.0,0.0,0.0,0.0,0.0,0.0,0.0,0.0,0.0,0.0,0.0,0.0,0.0,0.0,0.0,0.0,0.0,0.0,0.0,0.0,0.0,0.0,0.0,0.0,0.0,0.0,0.0,0.0,0.0,0.0,1.2636,1.2797,1.2824,1.2484,1.2037,0.0,0.0,0.0,0.0,0.0,0.0,0.0,0.0,0.0,0.0,0.0,0.0,0.0,0.0,0.0,0.0,0.0,0.0,0.0,0.0,0.0,0.0,0.0,0.0,0.0,0.0,0.0,0.0,0.0,0.0,0.0,0.0,0.0,0.0,0.0,0.0,0.0,0.0,0.0,0.0,0.0,0.0,0.0,0.0,0.0,0.0,0.0,0.0,0.0,0.0,0.0,0.0,0.0,0.0,0.0,0.0,0.0,0.0,0.0,0.0,0.0,0.0,0.0,0.0,0.0,0.0,0.0,0.0,0.0,0.0,0.0,0.0,0.0,0.0,0.0,0.0,0.0,0.0,0.0,0.0,0.0,0.0,0.0,0.0,0.0,0.0,0.0,0.0,0.0,0.0,0.0,0.0,0.0,0.0,0.0,0.0,0.0,0.0,0.0,0.0,0.0,0.0,0.0,0.0,0.0,0.0,0.0,0.0,0.0,1.2318,1.2636,1.269,1.2484,1.2203,1.1837,0.0,0.0,0.0,0.0,0.0,0.0,0.0,0.0,0.0,0.0,0.0,0.0,0.0,0.0,0.0,0.0,0.0,0.0,0.0,0.0,0.0,0.0,0.0,0.0,0.0,0.0,0.0,0.0,0.0,0.0,0.0,0.0,0.0,0.0,0.0,0.0,0.0,0.0,0.0,0.0,0.0,0.0,0.0,0.0,0.0,0.0,0.0,0.0,0.0,0.0,0.0,0.0,0.0,0.0,0.0,0.0,0.0,0.0,0.0,0.0,0.0,0.0,0.0,0.0,0.0,0.0,0.0,0.0,0.0,0.0,0.0,0.0,0.0,0.0,0.0,0.0,0.0,0.0,0.0,0.0,0.0,0.0,0.0,0.0,0.0,0.0,0.0,0.0,0.0,0.0,0.0,0.0,0.0,0.0,0.0,0.0,0.0,0.0,0.0,0.0,0.0,0.0,0.0,0.0,0.0,0.0,0.0,0.0,0.0,1.247,0.0,1.2872,0.0,1.2288,1.1989,0.0,0.0,0.0,0.0,0.0,0.0,0.0,0.0,0.0,0.0,0.0,0.0,0.0,0.0,0.0,0.0,0.0,0.0,0.0,0.0,0.0,0.0,0.0,0.0,0.0,0.0,0.0,0.0,0.0,0.0,0.0,0.0,0.0,0.0,0.0,0.0,0.0,0.0,0.0,0.0,0.0,0.0,0.0,0.0,0.0,0.0,0.0,0.0,0.0,0.0,0.0,0.0,0.0,0.0,0.0,0.0,0.0,0.0,0.0,0.0,0.0,0.0,0.0,0.0,0.0,0.0,0.0,0.0,0.0,0.0,0.0,0.0,0.0,0.0,0.0,0.0,0.0,0.0,0.0,0.0,0.0,0.0,0.0,0.0,0.0,0.0,0.0,0.0,0.0,0.0,0.0,0.0,0.0,0.0,0.0,0.0,0.0,0.0,0.0,0.0,0.0,0.0,0.0,0.0,0.0,0.0,0.0,0.0,1.2492,1.283,1.33,1.3347,1.283,1.2789,1.2502,0.0,0.0,0.0,0.0,0.0,0.0,0.0,0.0,0.0,0.0,0.0,0.0,0.0,0.0,0.0,0.0,0.0,0.0,0.0,0.0,0.0,0.0,0.0,0.0,0.0,0.0,0.0,0.0,0.0,0.0,0.0,0.0,0.0,0.0,0.0,0.0,0.0,0.0,0.0,0.0,0.0,0.0,0.0,0.0,0.0,0.0,0.0,0.0,0.0,0.0,0.0,0.0,0.0,0.0,0.0,0.0,0.0,0.0,0.0,0.0,0.0,0.0,0.0,0.0,0.0,0.0,0.0,0.0,0.0,0.0,0.0,0.0,0.0,0.0,0.0,0.0,0.0,0.0,0.0,0.0,0.0,0.0,0.0,0.0,0.0,0.0,0.0,0.0,0.0,0.0,0.0,0.0,0.0,0.0,0.0,0.0,0.0,0.0,0.0,0.0,0.0,0.0,0.0,0.0,0.0,0.0,0.0,0.0,0.0,1.3367,1.3507,1.352,1.334,1.3012,1.261,0.0,0.0,0.0,0.0,0.0,0.0,0.0,0.0,0.0,0.0,0.0,0.0,0.0,0.0,0.0,0.0,0.0,0.0,0.0,0.0,0.0,0.0,0.0,0.0,0.0,0.0,0.0,0.0,0.0,0.0,0.0,0.0,0.0,0.0,0.0,0.0,0.0,0.0,0.0,0.0,0.0,0.0,0.0,0.0,0.0,0.0,0.0,0.0,0.0,0.0,0.0,0.0,0.0,0.0,0.0,0.0,0.0,0.0,0.0,0.0,0.0,0.0,0.0,0.0,0.0,0.0,0.0,0.0,0.0,0.0,0.0,0.0,0.0,0.0,0.0,0.0,0.0,0.0,0.0,0.0,0.0,0.0,0.0,0.0,0.0,0.0,0.0,0.0,0.0,0.0,0.0,0.0,0.0,0.0,0.0,0.0,0.0,0.0,0.0,0.0,0.0,0.0,0.0,0.0,0.0,0.0,0.0,0.0,0.0,1.5225,1.5048,1.4843,1.4629,1.4063,1.3514,1.2986,0.0,0.0,0.0,0.0,0.0,0.0,0.0,0.0,0.0,0.0,0.0,0.0,0.0,0.0,0.0,0.0,0.0,0.0,0.0,0.0,0.0,0.0,0.0,0.0,0.0,0.0,0.0,0.0,0.0,0.0,0.0,0.0,0.0,0.0,0.0,0.0,0.0,0.0,0.0,0.0,0.0,0.0,0.0,0.0,0.0,0.0,0.0,0.0,0.0,0.0,0.0,0.0,0.0,0.0,0.0,0.0,0.0,0.0,0.0,0.0,0.0,0.0,0.0,0.0,0.0,0.0,0.0,0.0,0.0,0.0,0.0,0.0,0.0,0.0,0.0,0.0,0.0,0.0,0.0,0.0,0.0,0.0,0.0,0.0,0.0,0.0,0.0,0.0,0.0,0.0,0.0,0.0,0.0,0.0,0.0,0.0,0.0,0.0,0.0,0.0,0.0,0.0,0.0,0.0,0.0,0.0,0.0,0.0,1.8062,1.7675,1.714,1.6484,1.5869,1.5097,0.0,0.0,0.0,0.0,0.0,0.0,0.0,0.0,0.0,0.0,0.0,0.0,0.0,0.0,0.0,0.0,0.0,0.0,0.0,0.0,0.0,0.0,0.0,0.0,0.0,0.0,0.0,0.0,0.0,0.0,0.0,0.0,0.0,0.0,0.0,0.0,0.0,0.0,0.0,0.0,0.0,0.0,0.0,0.0,0.0,0.0,0.0,0.0,0.0,0.0,0.0,0.0,0.0,0.0,0.0,0.0,0.0,0.0,0.0,0.0,0.0,0.0,0.0,0.0,0.0,0.0,0.0,0.0,0.0,0.0,0.0,0.0,0.0,0.0,0.0,0.0,0.0,0.0,0.0,0.0,0.0,0.0,0.0,0.0,0.0,0.0,0.0,0.0,0.0,0.0,0.0,0.0,0.0,0.0,0.0,0.0,0.0,0.0,0.0,0.0,0.0,0.0,0.0,0.0,0.0,0.0,0.0,0.0,0.0,1.9265,2.0241,2.0057,1.8625,1.7582,1.65,0.0,0.0,0.0,0.0,0.0,0.0,0.0,0.0,0.0,0.0,0.0,0.0,0.0,0.0,0.0,0.0,0.0,0.0,0.0,0.0,0.0,0.0,0.0,0.0,0.0,0.0,0.0,0.0,0.0,0.0,0.0,0.0,0.0,0.0,0.0,0.0,0.0,0.0,0.0,0.0,0.0,0.0,0.0,0.0,0.0,0.0,0.0,0.0,0.0,0.0,0.0,0.0,0.0,0.0,0.0,0.0,0.0,0.0,0.0,0.0,0.0,0.0,0.0,0.0,0.0,0.0,0.0,0.0,0.0,0.0,0.0,0.0,0.0,0.0,0.0,0.0,0.0,0.0,0.0,0.0,0.0,0.0,0.0,0.0,0.0,0.0,0.0,0.0,0.0,0.0,0.0,0.0,0.0,0.0,0.0,0.0,0.0,0.0,0.0,0.0,0.0,0.0,0.0,0.0,0.0,0.0,0.0,0.0,1.8397,2.0321,2.2151,2.2378,2.0913,1.9361,1.7903,0.0,0.0,0.0,0.0,0.0,0.0,0.0,0.0,0.0,0.0,0.0,0.0,0.0,0.0,0.0,0.0,0.0,0.0,0.0,0.0,0.0,0.0,0.0,0.0,0.0,0.0,0.0,0.0,0.0,0.0,0.0,0.0,0.0,0.0,0.0,0.0,0.0,0.0,0.0,0.0,0.0,0.0,0.0,0.0,0.0,0.0,0.0,0.0,0.0,0.0,0.0,0.0,0.0,0.0,0.0,0.0,0.0,0.0,0.0,0.0,0.0,0.0,0.0,0.0,0.0,0.0,0.0,0.0,0.0,0.0,0.0,0.0,0.0,0.0,0.0,0.0,0.0,0.0,0.0,0.0,0.0,0.0,0.0,0.0,0.0,0.0,0.0,0.0,0.0,0.0,0.0,0.0,0.0,0.0,0.0,0.0,0.0,0.0,0.0,0.0,0.0,0.0,0.0,0.0,0.0,0.0,0.0,0.0,1.9479,2.1197,2.3465,2.4155,2.3081,2.1082,1.9305,0.0,0.0,0.0,0.0,0.0,0.0,0.0,0.0,0.0,0.0,0.0,0.0,0.0,0.0,0.0,0.0,0.0,0.0,0.0,0.0,0.0,0.0,0.0,0.0,0.0,0.0,0.0,0.0,0.0,0.0,0.0,0.0,0.0,0.0,0.0,0.0,0.0,0.0,0.0,0.0,0.0,0.0,0.0,0.0,0.0,0.0,0.0,0.0,0.0,0.0,0.0,0.0,0.0,0.0,0.0,0.0,0.0,0.0,0.0,0.0,0.0,0.0,0.0,0.0,0.0,0.0,0.0,0.0,0.0,0.0,0.0,0.0,0.0,0.0,0.0,0.0,0.0,0.0,0.0,0.0,0.0,0.0,0.0,0.0,0.0,0.0,0.0,0.0,0.0,0.0,0.0,0.0,0.0,0.0,0.0,0.0,0.0,0.0,0.0,0.0,0.0,0.0,0.0,0.0,0.0,0.0,0.0,0.0,2.0374,2.2111,2.3995,2.4756,2.4262,2.2485,2.0615,0.0,0.0,0.0,0.0,0.0,0.0,0.0,0.0,0.0,0.0,0.0,0.0,0.0,0.0,0.0,0.0,0.0,0.0,0.0,0.0,0.0,0.0,0.0,0.0,0.0,0.0,0.0,0.0,0.0,0.0,0.0,0.0,0.0,0.0,0.0,0.0,0.0,0.0,0.0,0.0,0.0,0.0,0.0,0.0,0.0,0.0,0.0,0.0,1.4892,0.0,0.0,0.0,0.0,0.0,0.0,0.0,0.0,0.0,0.0,0.0,0.0,0.0,0.0,0.0,0.0,0.0,0.0,0.0,0.0,0.0,0.0,0.0,0.0,0.0,0.0,0.0,0.0,0.0,0.0,0.0,0.0,0.0,0.0,0.0,0.0,0.0,0.0,0.0,0.0,0.0,0.0,0.0,0.0,0.0,0.0,0.0,0.0,0.0,0.0,0.0,0.0,0.0,0.0,0.0,0.0,0.0,0.0,0.0,2.1448,2.3033,2.4686,2.5224,2.4599,2.3594,2.1924,0.0,0.0,0.0,0.0,0.0,0.0,0.0,0.0,0.0,0.0,0.0,0.0,0.0,0.0,0.0,0.0,0.0,0.0,0.0,0.0,0.0,0.0,0.0,0.0,0.0,0.0,0.0,0.0,0.0,0.0,0.0,0.0,0.0,0.0,0.0,0.0,0.0,0.0,0.0,0.0,0.0,0.0,0.0,0.0,0.0,0.0,0.0,0.0,0.0,0.0,0.0,0.0,0.0,0.0,0.0,0.0,0.0,0.0,0.0,0.0,0.0,0.0,0.0,0.0,0.0,0.0,0.0,0.0,0.0,0.0,0.0,0.0,0.0,0.0,0.0,0.0,0.0,0.0,0.0,0.0,0.0,0.0,0.0,0.0,0.0,0.0,0.0,0.0,0.0,0.0,0.0,0.0,0.0,0.0,0.0,0.0,0.0,0.0,0.0,0.0,0.0,0.0,0.0,0.0,0.0,0.0,0.0,2.0601,2.2532,2.3924,2.5329,2.5636,2.4693,2.4289,2.2859,2.029,0.0,0.0,0.0,0.0,0.0,0.0,0.0,0.0,0.0,0.0,0.0,0.0,0.0,0.0,0.0,0.0,0.0,0.0,0.0,0.0,0.0,0.0,0.0,0.0,0.0,0.0,0.0,0.0,0.0,0.0,0.0,0.0,0.0,0.0,0.0,0.0,0.0,0.0,1.3547,1.5021,0.0,0.0,0.0,0.0,0.0,0.0,0.0,0.0,1.5941,0.0,0.0,0.0,0.0,0.0,0.0,0.0,0.0,0.0,0.0,0.0,0.0,0.0,0.0,0.0,0.0,0.0,0.0,0.0,0.0,0.0,0.0,0.0,0.0,0.0,0.0,0.0,0.0,0.0,0.0,0.0,0.0,0.0,0.0,0.0,0.0,0.0,0.0,0.0,0.0,0.0,0.0,0.0,0.0,0.0,0.0,0.0,0.0,0.0,0.0,0.0,0.0,0.0,0.0,0.0,0.0,1.916,2.171,2.3479,2.4452,2.5692,2.5892,2.5024,2.4008,2.2425,2.0277,0.0,0.0,0.0,0.0,0.0,0.0,0.0,0.0,0.0,0.0,0.0,0.0,0.0,0.0,0.0,0.0,0.0,0.0,0.0,0.0,0.0,0.0,0.0,0.0,0.0,0.0,0.0,0.0,0.0,0.0,0.0,0.0,0.0,0.0,0.0,0.0,0.0,0.0,0.0,1.65,1.7301,0.0,0.0,0.0,0.0,0.0,0.0,0.0,0.0,1.6259,0.0,0.0,0.0,0.0,0.0,0.0,0.0,0.0,0.0,0.0,0.0,0.0,0.0,0.0,0.0,0.0,0.0,0.0,0.0,0.0,0.0,0.0,0.0,0.0,0.0,0.0,0.0,0.0,0.0,0.0,0.0,0.0,0.0,0.0,0.0,0.0,0.0,0.0,0.0,0.0,0.0,0.0,0.0,0.0,0.0,0.0,0.0,0.0,0.0,0.0,0.0,0.0,0.0,0.0,0.0,2.0043,2.2512,2.4209,2.5039,2.5945,2.5825,2.4649,2.3474,2.175,0.0,0.0,0.0,0.0,0.0,0.0,0.0,0.0,0.0,0.0,0.0,0.0,0.0,0.0,0.0,0.0,0.0,0.0,0.0,0.0,0.0,0.0,0.0,0.0,0.0,0.0,0.0,0.0,0.0,0.0,0.0,0.0,0.0,0.0,0.0,0.0,0.0,0.0,0.0,0.0,1.7782,1.8532,1.8532,0.0,0.0,0.0,0.0,0.0,0.0,1.7275,1.7048,0.0,0.0,0.0,0.0,0.0,0.0,0.0,0.0,0.0,0.0,0.0,0.0,0.0,0.0,0.0,0.0,0.0,0.0,0.0,0.0,0.0,0.0,0.0,0.0,0.0,0.0,0.0,0.0,0.0,0.0,0.0,0.0,0.0,0.0,0.0,0.0,0.0,0.0,0.0,0.0,0.0,0.0,0.0,0.0,0.0,0.0,0.0,0.0,0.0,0.0,0.0,0.0,0.0,0.0,0.0,2.0846,2.318,2.477,2.5585,2.6119,2.5718,2.4329,2.3038,2.1243,0.0,0.0,0.0,0.0,0.0,0.0,0.0,0.0,0.0,0.0,0.0,0.0,0.0,0.0,0.0,0.0,0.0,0.0,0.0,0.0,0.0,0.0,0.0,0.0,0.0,0.0,0.0,0.0,0.0,0.0,0.0,0.0,0.0,0.0,0.0,0.0,0.0,0.0,0.0,0.0,0.0,1.9682,1.9736,1.9466,0.0,0.0,0.0,0.0,1.8156,1.837,0.0,0.0,0.0,0.0,0.0,0.0,0.0,0.0,0.0,0.0,0.0,0.0,0.0,0.0,0.0,0.0,0.0,0.0,0.0,0.0,0.0,0.0,0.0,0.0,0.0,0.0,0.0,0.0,0.0,0.0,0.0,0.0,0.0,0.0,0.0,0.0,0.0,0.0,0.0,0.0,0.0,0.0,0.0,0.0,0.0,0.0,0.0,0.0,0.0,0.0,0.0,0.0,0.0,0.0,0.0,0.0,2.1435,2.3817,2.5277,2.5917,2.6265,2.5812,2.4572,2.3145,2.143,0.0,0.0,0.0,0.0,0.0,0.0,0.0,0.0,0.0,0.0,0.0,0.0,0.0,0.0,0.0,0.0,0.0,0.0,0.0,0.0,0.0,0.0,0.0,0.0,0.0,0.0,0.0,0.0,0.0,0.0,0.0,0.0,0.0,0.0,0.0,0.0,0.0,0.0,0.0,0.0,0.0,2.0646,2.0869,2.0668,2.0485,0.0,0.0,1.9943,1.9903,2.0174,0.0,0.0,0.0,0.0,0.0,0.0,0.0,0.0,0.0,0.0,0.0,0.0,0.0,0.0,0.0,0.0,0.0,0.0,0.0,0.0,0.0,0.0,0.0,0.0,0.0,0.0,0.0,0.0,0.0,0.0,0.0,0.0,0.0,0.0,0.0,0.0,0.0,0.0,0.0,0.0,0.0,0.0,0.0,0.0,0.0,0.0,0.0,0.0,0.0,0.0,0.0,0.0,0.0,0.0,0.0,1.8879,2.1796,2.4325,2.5824,2.6238,2.6693,2.6239,2.4917,2.3585,2.1737,0.0,0.0,0.0,0.0,0.0,0.0,0.0,0.0,0.0,0.0,0.0,0.0,0.0,0.0,0.0,0.0,0.0,0.0,0.0,0.0,0.0,0.0,0.0,0.0,0.0,0.0,0.0,0.0,0.0,0.0,0.0,0.0,0.0,0.0,0.0,0.0,0.0,0.0,0.0,0.0,0.0,0.0,2.2104,2.2318,0.0,0.0,0.0,2.179,2.1931,0.0,0.0,0.0,0.0,0.0,0.0,0.0,0.0,0.0,0.0,0.0,0.0,0.0,0.0,0.0,0.0,0.0,0.0,0.0,0.0,0.0,0.0,0.0,0.0,0.0,0.0,0.0,0.0,0.0,0.0,0.0,0.0,0.0,0.0,0.0,0.0,0.0,0.0,0.0,0.0,0.0,0.0,0.0,0.0,0.0,0.0,0.0,0.0,0.0,0.0,0.0,0.0,0.0,0.0,0.0,0.0,0.0,2.1712,2.4186,2.5609,2.5908,2.6379,2.5947,2.4684,2.3567,0.0,0.0,0.0,0.0,0.0,0.0,0.0,0.0,0.0,0.0,0.0,0.0,0.0,0.0,0.0,0.0,0.0,0.0,0.0,0.0,0.0,0.0,0.0,0.0,0.0,0.0,0.0,1.185,0.0,0.0,0.0,0.0,0.0,0.0,0.0,0.0,0.0,0.0,0.0,0.0,0.0,0.0,2.2601,2.3107,2.3785,2.4048,0.0,0.0,2.371,2.3741,2.4022,2.3554,0.0,0.0,0.0,0.0,0.0,0.0,0.0,0.0,0.0,0.0,0.0,0.0,0.0,0.0,0.0,0.0,0.0,0.0,0.0,0.0,0.0,0.0,0.0,0.0,0.0,0.0,0.0,0.0,0.0,0.0,0.0,0.0,0.0,0.0,0.0,0.0,0.0,0.0,0.0,0.0,0.0,0.0,0.0,0.0,0.0,0.0,0.0,0.0,0.0,0.0,0.0,0.0,0.0,0.0,0.0,2.103,2.2908,2.4098,2.4581,2.4642,2.4267,2.3445,2.2597,2.129,0.0,0.0,0.0,0.0,0.0,0.0,0.0,0.0,0.0,0.0,0.0,0.0,0.0,0.0,0.0,0.0,0.0,0.0,0.0,0.0,0.0,0.0,0.0,0.0,0.0,0.0,0.0,0.0,0.0,0.0,0.0,0.0,0.0,0.0,0.0,0.0,0.0,0.0,0.0,0.0,0.0,2.2753,2.3773,2.4761,2.5384,0.0,0.0,2.561,2.5088,2.5211,2.4609,2.2311,0.0,0.0,0.0,0.0,0.0,0.0,0.0,0.0,0.0,0.0,0.0,0.0,0.0,0.0,0.0,0.0,0.0,0.0,0.0,0.0,0.0,0.0,0.0,0.0,0.0,0.0,0.0,0.0,0.0,0.0,0.0,0.0,0.0,0.0,0.0,0.0,0.0,0.0,0.0,0.0,0.0,0.0,0.0,0.0,0.0,0.0,0.0,0.0,0.0,0.0,0.0,0.0,0.0,1.7407,1.9653,2.1153,2.2061,2.2342,2.2632,2.2514,2.1881,2.1323,2.0233,0.0,0.0,0.0,0.0,0.0,0.0,0.0,0.0,0.0,0.0,0.0,0.0,0.0,0.0,0.0,0.0,0.0,0.0,0.0,0.0,0.0,0.0,0.0,0.0,0.0,0.0,0.0,0.0,1.3841,1.3992,1.3984,0.0,0.0,0.0,0.0,0.0,0.0,0.0,0.0,0.0,0.0,2.2952,2.4284,2.6027,0.0,0.0,2.7389,2.7269,2.7041,2.66,2.5585,2.3434,2.171,0.0,0.0,0.0,0.0,0.0,0.0,0.0,0.0,0.0,0.0,0.0,0.0,0.0,0.0,0.0,0.0,0.0,0.0,0.0,0.0,0.0,0.0,0.0,0.0,0.0,0.0,0.0,0.0,0.0,0.0,0.0,0.0,0.0,0.0,0.0,0.0,0.0,0.0,0.0,0.0,0.0,0.0,0.0,0.0,0.0,0.0,0.0,0.0,0.0,0.0,0.0,0.0,1.6223,1.8211,1.9372,2.0105,2.0298,2.0688,2.0669,2.0255,1.9803,1.8972,0.0,0.0,0.0,0.0,0.0,0.0,0.0,0.0,0.0,0.0,0.0,0.0,0.0,0.0,0.0,0.0,0.0,0.0,0.0,0.0,0.0,0.0,0.0,0.0,0.0,0.0,0.0,0.0,1.4656,1.4626,1.426,0.0,0.0,0.0,0.0,0.0,0.0,0.0,0.0,0.0,0.0,2.2484,2.4025,2.6217,2.7719,2.7836,2.7836,2.7697,2.748,2.6921,2.5846,2.3977,0.0,0.0,0.0,0.0,0.0,0.0,0.0,0.0,0.0,0.0,0.0,0.0,0.0,0.0,0.0,0.0,0.0,0.0,0.0,0.0,0.0,0.0,0.0,0.0,0.0,0.0,0.0,0.0,0.0,0.0,1.2984,0.0,0.0,0.0,0.0,0.0,0.0,0.0,0.0,0.0,0.0,0.0,0.0,0.0,0.0,0.0,0.0,0.0,0.0,0.0,0.0,0.0,0.0,1.5006,1.6636,1.7615,1.8313,1.8734,1.8873,1.8758,1.8427,1.8174,1.7625,1.6712,0.0,0.0,0.0,0.0,0.0,0.0,0.0,0.0,0.0,0.0,0.0,0.0,0.0,0.0,0.0,0.0,0.0,0.0,0.0,0.0,0.0,0.0,0.0,0.0,0.0,0.0,1.5314,1.5354,1.5038,0.0,0.0,0.0,0.0,0.0,0.0,0.0,0.0,0.0,0.0,1.9019,2.113,2.2706,2.4978,2.6395,2.6178,2.6551,2.6609,2.5748,2.5749,2.5251,0.0,0.0,0.0,0.0,0.0,0.0,0.0,0.0,0.0,0.0,0.0,0.0,0.0,0.0,0.0,0.0,0.0,0.0,0.0,0.0,0.0,0.0,0.0,0.0,0.0,0.0,0.0,1.6321,1.5925,0.0,0.0,0.0,0.0,0.0,0.0,0.0,0.0,0.0,0.0,0.0,1.1867,1.2497,0.0,0.0,0.0,0.0,0.0,0.0,0.0,0.0,0.0,0.0,0.0,0.0,1.3353,1.4749,1.5398,1.5891,1.6218,1.6381,1.6359,1.6151,1.5935,1.549,1.4778,0.0,0.0,0.0,0.0,0.0,0.0,0.0,0.0,0.0,0.0,0.0,0.0,0.0,0.0,0.0,0.0,0.0,0.0,0.0,0.0,0.0,0.0,0.0,0.0,0.0,1.4797,0.0,0.0,0.0,0.0,0.0,0.0,0.0,0.0,0.0,0.0,0.0,1.4139,1.5817,1.7663,1.9373,2.0783,2.2799,2.4172,0.0,0.0,0.0,0.0,0.0,0.0,0.0,0.0,0.0,0.0,0.0,0.0,0.0,0.0,1.5624,1.5136,1.5587,1.633,1.718,0.0,0.0,0.0,0.0,0.0,0.0,0.0,0.0,0.0,0.0,0.0,0.0,0.0,0.0,1.6278,0.0,1.4803,0.0,0.0,0.0,0.0,0.0,0.0,0.0,0.0,1.234,1.2782,1.3075,1.3451,1.3536,0.0,1.3453,1.2634,0.0,0.0,0.0,0.0,0.0,0.0,0.0,0.0,1.2368,1.3603,1.4237,1.4658,1.5003,1.5113,1.5113,1.5017,1.4753,1.4437,1.4084,1.3068,1.2004,0.0,0.0,0.0,0.0,0.0,0.0,0.0,0.0,0.0,0.0,0.0,0.0,0.0,0.0,0.0,0.0,0.0,0.0,0.0,0.0,0.0,0.0,0.0,1.4063,0.0,0.0,0.0,0.0,0.0,0.0,0.0,0.0,0.0,1.3375,1.3472,1.3948,1.5249,1.6657,1.7978,1.9182,0.0,0.0,0.0,0.0,0.0,0.0,0.0,2.273,2.194,2.1497,2.0901,1.9813,1.859,1.7543,1.6939,0.0,0.0,1.5497,1.6024,1.6775,1.7654,1.8617,1.9702,2.0881,2.1526,2.1929,0.0,0.0,0.0,0.0,0.0,0.0,0.0,0.0,1.5409,1.5426,0.0,1.4205,0.0,0.0,0.0,0.0,0.0,1.1023,0.0,0.0,1.3593,1.4139,1.4146,1.4275,1.4275,1.4139,1.3926,1.3607,1.3118,1.1329,0.0,0.0,0.0,0.0,0.0,0.0,1.2114,1.3211,1.4062,1.4679,1.5017,1.516,1.512,1.5017,1.4625,1.4485,1.4545,1.3489,1.2596,1.1906,1.1471,0.0,0.0,0.0,0.0,0.0,0.0,0.0,0.0,0.0,0.0,0.0,0.0,0.0,0.0,0.0,0.0,0.0,0.0,0.0,0.0,1.3,0.0,0.0,0.0,0.0,0.0,0.0,0.0,0.0,0.0,0.0,1.3468,1.393,1.4413,1.5011,0.0,0.0,0.0,0.0,2.0175,1.9993,2.0279,2.0593,2.0685,2.1455,2.1874,2.124,0.0,0.0,1.9352,1.8481,1.7899,1.7463,1.6979,1.6356,1.5472,1.585,1.6498,1.7248,1.8268,1.9302,2.0346,2.0981,2.136,1.7032,0.0,0.0,0.0,0.0,1.5991,1.6398,1.6713,1.6705,1.6549,1.6233,1.5151,0.0,0.0,0.0,0.0,0.0,0.0,1.2807,1.3641,1.4265,1.4658,1.4862,1.4808,1.4799,1.4751,1.4557,1.4268,1.3946,1.3098,1.1911,1.0511,0.0,0.0,0.0,0.0,1.2261,1.3316,1.4329,1.493,1.512,1.516,1.516,1.512,1.4797,1.4541,1.4369,1.3645,1.2884,1.2079,1.1862,0.0,0.0,0.0,0.0,0.0,0.0,0.0,0.0,0.0,0.0,0.0,0.0,0.0,0.0,0.0,0.0,0.0,0.0,0.0,1.2926,1.3321,1.33,0.0,0.0,0.0,0.0,0.0,0.0,0.0,0.0,0.0,1.4112,1.4238,1.439,0.0,0.0,1.5894,1.6285,1.6966,1.7448,1.7404,0.0,0.0,0.0,1.9296,2.0019,2.0067,1.9983,1.9481,1.81,1.7744,1.7564,1.7401,1.7276,1.7081,1.6827,1.6572,1.6824,1.7733,1.852,1.9332,2.0338,2.0845,2.1054,1.7159,1.6025,1.5698,1.5582,1.5682,1.6119,1.6485,1.6902,1.6832,1.6685,1.6408,1.5386,1.4441,1.3525,1.271,0.0,0.0,0.0,1.3824,1.4574,1.5038,1.5398,1.5615,1.5547,1.5472,1.5452,1.5201,1.4897,1.4645,1.4214,1.3396,1.2176,0.0,0.0,1.1206,1.182,1.2671,1.3654,1.4584,1.5139,1.5181,1.5181,1.5181,1.5174,1.4957,1.4692,1.4387,1.3926,1.3308,1.2574,1.2411,1.2089,0.0,0.0,0.0,0.0,0.0,0.0,0.0,0.0,0.0,0.0,0.0,0.8965,0.0,0.0,0.0,0.0,1.1037,1.1789,1.251,1.2889,0.0,0.0,0.0,0.0,0.0,0.0,0.0,1.3208,1.3998,1.4633,1.5004,1.5174,1.5276,1.5269,1.5601,1.5906,1.6013,0.0,1.6578,1.6578,1.6693,1.6958,1.748,1.8405,1.9144,1.942,1.9037,1.8443,1.758,1.7419,1.7419,1.7419,1.7419,1.7419,1.7419,1.7151,1.7058,1.7756,1.8136,1.8599,1.9283,1.95,1.9584,1.7255,1.6334,1.5364,1.5011,1.518,1.5499,1.5967,1.6347,1.6255,1.6144,1.6069,1.5195,1.4604,1.4159,1.3479,0.0,1.3777,1.4346,1.4835,1.5276,1.5839,1.6178,1.6327,1.632,1.6239,1.6069,1.5791,1.5499,1.5187,1.4896,1.4498,1.4095,1.2596,1.2026,1.2393,1.2691,1.3254,1.4146,1.4828,1.5248,1.5201,1.5201,1.5194,1.5181,1.5059,1.4841,1.4543,1.4265,1.3894,1.3309,1.3005,1.2638,1.2111,0.0,0.0,0.0,0.0,0.0,0.0,0.0,0.0,0.0,0.0,0.0,0.0,0.0,0.0,0.0,1.0614,0.0,1.1861,1.2101,0.0,0.0,0.0,1.1628,1.2213,1.2921,1.3588,1.4173,0.0,0.0,1.5976,0.0,1.6601,1.6259,1.6429,1.6594,1.673,1.6931,1.7032,1.7032,1.7154,1.7408,1.7745,1.8388,1.8864,1.9,1.8479,1.7906,1.7554,1.7473,1.746,1.7473,1.746,1.7412,1.746,1.7433,1.7453,1.7473,1.7473,1.7514,1.7731,1.7724,1.773,1.748,1.725,1.6885,1.6537,1.6178,1.6337,1.6612,1.6815,1.6781,1.67,1.6506,1.608,1.556,1.4903,1.4618,1.4611,1.4835,1.5201,1.5547,1.5872,1.6137,1.6327,1.6469,1.6469,1.6334,1.6083,1.5893,1.5649,1.535,1.5059,1.4801,1.4557,1.3966,1.3546,1.3329,1.3607,1.3966,1.4407,1.5031,1.5357,1.5357,1.5357,1.5303,1.5187,1.5147,1.4991,1.4654,1.4618,1.436,1.3921,1.348,1.2977,1.2259,1.1248,0.0,0.0,0.0,0.0,0.0,0.0,0.0,0.0,0.0,0.8919,0.9607,0.0,1.0249,0.0,1.1552,1.2366,1.2807,1.3193,0.0,0.0,1.3173,1.3234,1.3715,1.4231,1.4733,1.5208,1.5837,1.6415,1.668,1.7032,1.7216,1.727,1.7236,1.7222,1.721,1.7392,1.7433,1.7446,1.7609,1.7745,1.7868,1.8004,1.8194,1.8188,1.8059,1.7882,1.7806,1.7758,1.7758,1.7813,1.7758,1.7758,1.7758,1.7758,1.7758,1.7751,1.767,1.7588,1.7779,1.7779,1.7765,1.7893,1.7886,1.7798,1.7629,1.7257,1.7149,1.7236,1.7365,1.7304,1.7176,1.7081,1.6829,1.6395,1.5886,1.5798,1.5771,1.5798,1.5972,1.6168,1.6381,1.6537,1.6653,1.6727,1.6727,1.6571,1.6273,1.6105,1.5805,1.5465,1.5276,1.5126,1.4992,1.4897,1.4774,1.4484,1.4353,1.4448,1.4808,1.5269,1.554,1.5601,1.5479,1.5371,1.5282,1.52,1.4943,1.4652,1.4638,1.4462,1.4125,1.3709,1.3227,1.261,1.166,1.0683,0.0,0.0,0.0,0.0,0.0,0.0,0.0,0.0,0.0,0.0,0.0,1.1369,1.1809,1.2488,1.3112,1.3627,1.4136,1.4462,1.4484,1.459,1.4746,1.5059,1.5493,1.5886,1.6198,1.6648,1.7034,1.7263,1.7473,1.765,1.7731,1.7677,1.7643,1.7711,1.7792,1.7811,1.7886,1.8016,1.8063,1.8063,1.8063,1.8063,1.8063,1.8063,1.8063,1.8063,1.807,1.807,1.807,1.8063,1.807,1.8063,1.8063,1.8063,1.8057,1.8009,1.7935,1.7929,1.7915,1.7915,1.8321,1.8321,1.8321,1.8321,1.8287,1.7845,1.7792,1.788,1.7758,1.7629,1.7582,1.7365,1.7087,1.6757,1.6736,1.6642,1.6506,1.6615,1.6675,1.6702,1.689,1.6965,1.6978,1.6978,1.6815,1.6517,1.6218,1.5934,1.5621,1.5493,1.5418,1.5445,1.5526,1.5587,1.556,1.4984,1.4855,1.5262,1.5485,1.5723,1.5894,1.5588,1.5425,1.5371,1.5092,1.4787,1.4475,1.4455,1.4326,1.4055,1.3797,1.3464,1.3071,1.2203,1.1341,0.0,1.0154,0.0,0.0,0.0,0.0,0.0,0.0,0.0,0.0,1.2064,1.2501,1.3125,1.3397,1.381,1.4387,1.4957,1.5364,1.554,1.5784,1.6051,1.6185,1.6558,1.6811,1.7019,1.7345,1.7602,1.7642,1.7819,1.7949,1.7983,1.7928,1.7975,1.8104,1.8104,1.8118,1.8294,1.8321,1.828,1.8287,1.8301,1.8301,1.8308,1.8294,1.8321,1.8301,1.8301,1.8308,1.8308,1.8294,1.8301,1.8321,1.8308,1.8308,1.8294,1.8287,1.8213,1.8009,1.7948,1.7976,1.8321,1.8321,1.8321,1.8321,1.8314,1.817,1.8138,1.8043,1.8023,1.7874,1.7595,1.7534,1.7392,1.7107,1.6985,1.6856,1.6648,1.6605,1.6581,1.6696,1.673,1.6863,1.6978,1.6978,1.6822,1.6517,1.6225,1.6037,1.586,1.554,1.5472,1.5546,1.5573,1.5587,1.5587,0.0,0.0,0.0,1.5833,1.5874,1.5894,1.5683,1.5479,1.5228,1.4936,0.0,1.4227,1.4156,1.4075,1.3849,1.3788,0.0,0.0,0.0,0.0,0.0,0.0,0.0,0.0,0.0,0.0,0.0,1.3268,1.3329,1.3051,1.3214,1.3532,1.4,1.4312,1.4633,1.5153,1.5628,1.6022,1.6279,1.6361,1.6503,1.6775,1.6992,1.7168,1.7317,1.7467,1.769,1.7962,1.8036,1.8091,1.8192,1.8233,1.8294,1.8416,1.824,1.8158,1.8287,1.8342,1.8328,1.8321,1.8328,1.8348,1.8321,1.8321,1.8328,1.8335,1.8328,1.8328,1.8328,1.8321,1.8328,1.8328,1.8321,1.8335,1.8321,1.8321,1.8301,1.8247,1.8233,1.8233,1.8538,0.0,1.8538,1.8538,0.0,1.8538,1.845,1.8301,1.8152,1.7968,1.7758,1.7751,1.7589,1.729,1.708,1.6856,1.6574,1.6402,1.6388,1.6486,1.6628,1.6736,1.6817,1.7019,1.6924,1.6574,1.6334,1.6157,1.6069,1.5852,1.5818,1.5918,1.5992,1.6026,1.6026,1.6076,1.6001,1.5901,1.5976,1.6017,1.601,1.5818,1.5635,1.5411,0.0,0.0,0.0,0.0,0.0,0.0,0.0,0.0,0.0,0.0,0.0,1.242,1.2275,1.2261,1.2386,1.2807,1.341,1.4217,1.4767,1.4841,1.4319,1.4421,1.4665,1.5085,1.5337,1.5587,1.5934,1.6361,1.6686,1.6836,1.6985,1.7095,1.729,1.7439,1.7548,1.7623,1.7711,1.784,1.8063,1.8091,1.8152,1.8287,1.8321,1.8375,1.8484,1.8409,1.8369,1.8511,1.8538,1.8538,1.8538,1.8538,1.8531,1.8538,1.8538,1.8538,1.8538,1.8538,1.8538,1.8538,1.8538,1.8538,1.8538,1.8538,1.8538,1.8538,1.8538,1.8538,1.8531,1.8423,1.8321,1.882,1.882,1.882,1.882,1.882,1.882,1.8674,1.8511,0.0,0.0,0.0,1.797,1.7738,1.7392,1.7148,1.6849,1.65,1.6279,1.6246,1.6402,1.6615,1.675,1.679,1.7107,1.708,1.673,1.6466,1.6374,1.6341,1.6191,1.6198,1.6347,1.6463,1.6517,1.6517,1.6517,1.6341,1.6044,1.6096,1.6157,1.6157,1.5988,1.5825,1.5634,1.5357,1.4984,1.457,1.4626,1.4586,1.4401,1.4516,1.4543,1.4421,1.4133,1.3889,1.3695,1.3587,1.3661,1.3923,1.4072,1.455,1.5364,1.5947,1.6015,1.5391,1.5479,1.5683,1.5996,1.6252,1.6483,1.6632,1.6992,1.7243,1.727,1.75,1.7602,1.7669,1.7826,1.7956,1.7935,1.8004,1.8002,1.8158,1.8186,1.8226,1.8362,1.8423,1.8437,1.8538,1.8572,1.8599,1.8708,1.8779,1.88,1.8813,1.88,1.882,1.8793,1.88,1.882,1.882,1.882,1.882,1.8793,1.882,1.8807,1.8813,1.88,1.882,1.882,1.882,1.882,1.88,1.8572,1.8416,1.882,1.882,1.882,1.882,1.882,1.882,1.8674,1.8518,1.8298,1.8274,1.8247,1.8118,1.7894,1.7548,1.7297,1.6998,1.6662,1.6486,1.6544,0.0,1.687,1.7012,1.7134,1.7304,1.7236,1.6951,1.6768,1.6567,1.649,1.6354,1.6347,1.6483,1.651,1.6524,1.6517,1.6517,1.649,1.6429,1.6449,1.6456,1.6456,1.6191,1.5974,1.5867,1.5418,1.5038,1.4681,1.4694,1.4674,1.464,1.4828,1.4896,1.4882,1.4881,1.4794,1.4806,1.4841,1.5031,1.5282,1.5493,1.584,1.6293,1.6768,1.6734,1.6035,1.6096,1.6252,1.6422,1.6714,1.6944,1.7093,1.7277,1.7446,1.75,1.7568,1.769,1.7975,1.803,1.8097,1.8213,1.8253,1.8301,1.8416,1.845,1.8498,1.8647,1.8654,1.8694,1.8708,1.8728,1.8793,1.8813,1.882,1.882,1.882,1.882,1.882,1.882,1.882,1.882,1.882,1.882,1.882,1.882,1.882,1.882,1.882,1.882,1.882,1.882,1.882,1.882,1.882,1.8708,1.8745,1.882,1.882,1.882,1.882,1.882,1.882,1.8721,1.8654,1.8586,1.8464,1.8308,1.8158,1.7968,1.7738,1.7365,1.708,1.687,1.6632,1.6554,1.6709,1.6992,1.7127,1.7209,1.7433,1.7426,1.7222,1.7066,1.6951,1.6876,1.6741,1.6707,1.6768,1.6775,1.6775,1.6768,1.6768,1.6768,1.6768,1.6605,1.6517,1.6517,1.6395,1.6252,1.6103,1.5893,1.5649,1.5357,1.5425,1.5432,1.5343,1.5493,1.5574,1.5574,1.5622,1.5622,1.5622,1.5683,1.5771,1.5988,1.6293,1.6602,1.6761,1.7107,1.7182,1.6842,1.687,1.6937,1.6959,1.7216,1.7365,1.7439,1.7575,1.769,1.7758,1.7765,1.7853,1.8043,1.8091,1.8152,1.8287,1.8321,1.8375,1.8511,1.8474,1.8593,1.8786,1.882,1.882,1.882,1.882,1.882,1.882,1.882,1.882,1.882,1.882,1.882,1.882,1.882,1.882,1.882,1.882,1.882,1.882,1.882,1.882,1.882,1.882,1.882,1.882,1.882,1.882,1.8827,1.8823,1.8857,1.882,1.882,1.882,1.882,1.882,1.882,1.882,1.882,1.882,1.8633,1.8416,1.826,1.8104,1.799,1.7561,1.7317,1.7161,1.6931,1.6838,1.7019,1.7236,1.7344,1.7365,1.7595,1.7568,1.7473,1.7351,1.7277,1.7236,1.7134,1.706,1.7032,1.7032,1.7012,1.6978,1.6978,1.6978,1.6965,1.6748,1.6625,1.6625,1.654,1.653,1.6463,1.6388,1.6279,1.6173,1.6191,1.6191,1.6173,1.6218,1.6286,1.6286,1.6286,1.63,1.6327,1.6327,1.6402,1.6564,1.691,1.7127,1.7134,1.7372,1.7521,1.7521,1.7521,1.7521,1.7534,1.765,1.7703,1.7757,1.7901,1.8017,1.7968,1.8024,1.8043,1.8165,1.8192,1.8253,1.8389,1.8423,1.847,1.8552,1.8586,1.8633,1.8735,1.882,1.882,1.882,1.882,1.882,1.882,1.882,1.882,1.882,1.882,1.882,1.882,1.882,1.882,1.882,1.882,1.882,1.882,1.882,1.882,1.882,1.882,1.882,1.882,1.882,1.882,1.8827,1.8884,1.8925,1.8827,1.882,1.8834,1.882,1.8827,1.8827,1.8827,1.882,1.882,1.8807,1.8694,1.8559,1.8409,1.8267,1.8077,1.7901,1.7827,1.7806,1.7731,1.7738,1.784,1.7854,1.784,1.7881,1.7765,1.7582,1.7548,1.746,1.7405,1.7378,1.7304,1.7188,1.7168,1.7107,1.6998,1.6978,1.6978,1.6985,1.6951,1.6937,1.6931,1.675,1.6788,1.6917,1.6646,1.6625,1.6888,1.6754,1.6696,1.6863,1.6876,1.689,1.689,1.689,1.7003,1.7066,1.708,1.7154,1.7304,1.7426,1.7521,1.7595,1.7731,1.7819,1.7819,1.7874,1.7826,1.7853,1.7962,1.8077,1.824,1.8253,1.8247,1.8233,1.8247,1.8335,1.8437,1.8434,1.8552,1.8708,1.8745,1.8786,1.8715,1.8721,1.8793,1.8813,1.882,1.882,1.882,1.882,1.882,1.882,1.882,1.882,1.882,1.882,1.882,1.882,1.882,1.882,1.882,1.882,1.882,1.882,1.882,1.882,1.882,1.882,1.882,1.882,1.882,1.882,1.8834,1.8943,1.8977,1.902,1.902,1.902,1.8972,1.8905,1.8898,1.8843,1.882,1.882,1.882,1.8813,1.8694,1.8586,1.8437,1.8294,1.8186,1.8131,1.8138,1.8131,1.8124,1.8043,1.8002,1.8044,1.7956,1.7826,1.7772,1.7636,1.7561,1.7494,1.7412,1.7344,1.7209,1.7195,1.7121,1.6992,1.6978,1.7019,1.7107,1.7107,1.7148,1.7202,1.7005,1.6958,1.708,1.6985,1.7012,1.7209,1.7122,1.7175,1.7236,1.7243,1.7243,1.7243,1.7243,1.7263,1.7324,1.7324,1.7358,1.7419,1.7643,1.7772,1.7779,1.7996,1.8131,1.8131,1.8131,1.8165,1.8233,1.8158,1.8152,1.8294,1.8321,1.8321,1.8321,1.8321,1.8382,1.8461,1.8481,1.8593,1.8793,1.882,1.882,1.882,1.882,1.882,1.882,1.882,1.882,1.882,1.882,1.882,1.882,1.882,1.882,1.882,1.882,1.882,1.882,1.882,1.882,1.882,1.882,1.882,1.882,1.882,1.882,1.882,1.882,1.882,1.882,1.882,1.882,1.882,1.8943,1.8905,1.9203,1.9203,1.9203,1.9142,1.9047,1.9006,1.8932,1.8823,1.8841,1.882,1.882,1.882,1.8701,1.8593,1.8484,1.8443,1.8443,1.8437,1.8443,1.8423,1.828,1.8213,1.8199,1.8057,1.8024,1.7914,1.7826,1.7697,1.7704,1.7602,1.7467,1.7338,1.7317,1.7243,1.7121,1.71,1.7148,1.7243,1.7256,1.7311,1.7372,1.7209,1.7168,1.7297,1.7277,1.7344,1.7528,1.75,1.7446,1.7534,1.7541,1.7541,1.7541,1.7541,1.7541,1.7541,1.7541,1.7561,1.7602,1.7806,1.7997,1.8002,1.8206,1.8321,1.8321,1.8321,1.8382,1.8484,1.8335,1.8287,1.8409,1.8443,1.8443,1.8443,1.847,1.8552,1.8647,1.8681,1.8769,1.8864,1.8911,1.8864,1.883,1.8854,1.882,1.882,1.882,1.882,1.882,1.882,1.882,1.882,1.882,1.882,1.882,1.882,1.882,1.882,1.882,1.882,1.882,1.882,1.882,1.882,1.882,1.882,1.882,1.882,1.882,1.882,1.882,1.882,1.882,1.8891,1.8925,1.9203,1.921,1.9203,1.921,1.9183,1.9061,1.8993,1.8972,1.8837,1.8827,1.8841,1.8834,1.8769,1.882,1.8807,1.8742,1.8793,1.8779,1.8773,1.8701,1.8559,1.8447,1.8504,1.8369,1.8219,1.8091,1.805,1.7968,1.7853,1.7833,1.7772,1.7568,1.7548,1.7487,1.7399,1.7372,1.7399,1.7405,1.7412,1.7419,1.7433,1.7412,1.7473,1.7534,1.7487,1.7541,1.7779,1.7711,1.7697,1.7888,1.7888,1.7888,1.7895,1.7895,1.7902,1.7902,1.7902,1.7907,1.8023,1.807,1.8145,1.8274,1.8342,1.8342,1.8382,1.8403,1.8464,1.8538,1.8559,1.8593,1.8715,1.8708,1.8708,1.8735,1.8857,1.8925,1.8959,1.904,1.9156,1.9162,1.9142,1.9088,1.8993,1.8909,1.8868,1.8854,1.8834,1.8847,1.8861,1.8847,1.8834,1.8834,1.8827,1.882,1.882,1.882,1.882,1.882,1.882,1.882,1.882,1.882,1.882,1.882,1.882,1.882,1.882,1.882,1.882,1.882,1.882,1.882,1.882,1.8943,1.8918,1.9495,1.9495,1.9495,1.944,1.9345,1.9291,1.9217,1.9122,1.9067,1.904,1.9047,1.904,1.9047,1.904,1.904,1.8938,1.8827,1.882,1.882,1.8742,1.8599,1.8474,1.8518,1.8389,1.8294,1.8233,1.8138,1.8009,1.7936,1.7915,1.7792,1.7615,1.7595,1.7514,1.7446,1.7419,1.7412,1.7507,1.7514,1.7609,1.7697,1.7704,1.7731,1.7772,1.7643,1.7656,1.7908,1.7812,1.7812,1.7915,1.7955,1.8009,1.8016,1.8104,1.8152,1.8152,1.8158,1.8179,1.824,1.8321,1.8396,1.8457,1.864,1.8742,1.8762,1.883,1.8905,1.8945,1.8959,1.8993,1.8979,1.8936,1.8861,1.8898,1.8959,1.904,1.9108,1.9169,1.9203,1.9203,1.9203,1.9176,1.9135,1.9074,1.9047,1.9047,1.9047,1.9033,1.9027,1.8972,1.8911,1.8943,1.8881,1.882,1.882,1.882,1.882,1.882,1.882,1.882,1.882,1.882,1.882,1.882,1.882,1.882,1.882,1.882,1.882,1.882,1.882,1.882,1.882,1.8902,1.8915,1.9725,1.9725,1.9725,1.9603,1.9508,1.9387,1.9313,1.9271,1.9223,1.9203,1.9203,1.9203,1.9203,1.9203,1.9203,1.9074,1.8909,1.8895,1.8868,1.8813,1.8654,1.8606,1.8593,1.8511,1.8437,1.8369,1.824,1.8111,1.8023,1.8009,1.7962,1.7818,1.7811,1.7764,1.7724,1.7711,1.7772,1.7798,1.7811,1.7921,1.8002,1.8009,1.8009,1.7996,1.7914,1.786,1.7922,1.7915,1.7915,1.7936,1.8009,1.8111,1.8172,1.8267,1.8321,1.8321,1.8314,1.8342,1.8389,1.842,1.8515,1.8674,1.8857,1.9,1.9061,1.9149,1.9196,1.9203,1.9203,1.9203,1.9169,1.902,1.8945,1.9047,1.9101,1.9169,1.9264,1.9318,1.9352,1.9359,1.9318,1.9284,1.9271,1.9223,1.9196,1.9203,1.9203,1.9203,1.9183,1.9128,1.9033,1.8993,1.8911,1.8881,1.8841,1.8827,1.8827,1.8827,1.882,1.882,1.882,1.882,1.882,1.882,1.882,1.882,1.882,1.882,1.882,1.882,1.882,1.882,1.882,1.882,1.8854,1.9725,1.9725,1.9725,1.9718,1.9684,1.9508,1.944,1.9413,1.9291,1.9257,1.9264,1.923,1.925,1.923,1.9257,1.9142,1.9033,1.9,1.8905,1.8769,1.8807,1.88,1.8793,1.8779,1.8633,1.8511,1.8382,1.8314,1.828,1.8274,1.8267,1.8294,1.8253,1.8226,1.8287,1.8226,1.8267,1.826,1.8247,1.828,1.8314,1.828,1.8274,1.8287,1.8274,1.8145,1.7956,1.7942,1.7963,1.7914,1.8043,1.8172,1.8314,1.8355,1.8342,1.8362,1.8342,1.8409,1.8467,1.8572,1.8735,1.8911,1.9,1.9088,1.9189,1.923,1.925,1.9257,1.925,1.923,1.9244,1.9217,1.9203,1.921,1.9305,1.9386,1.9447,1.9563,1.9711,1.9677,1.9508,1.944,1.94,1.9339,1.9278,1.9271,1.9264,1.9264,1.9271,1.9237,1.9149,1.9061,1.9006,1.8959,1.8864,1.8827,1.8841,1.8841,1.8827,1.882,1.882,1.882,1.882,1.882,1.882,1.882,1.882,1.882,1.882,1.882,1.882,1.8827,1.882,1.882,1.8841,1.9725,1.9725,1.9725,1.9725,1.9718,1.9603,1.959,1.959,1.9535,1.9522,1.9575,1.9515,1.9515,1.9515,1.9515,1.9434,1.9291,1.9183,1.9006,1.8861,1.882,1.882,1.882,1.882,1.8681,1.8552,1.8491,1.8416,1.8342,1.8328,1.8321,1.8321,1.8321,1.8321,1.8328,1.8321,1.8321,1.8321,1.8321,1.8321,1.8321,1.8321,1.8321,1.8321,1.8321,1.8267,1.8186,1.8179,1.8179,1.8179,1.8314,1.8464,1.8586,1.8626,1.8626,1.864,1.8728,1.8796,1.885,1.8932,1.9013,1.9135,1.9223,1.9305,1.9366,1.9454,1.9501,1.9515,1.9582,1.9515,1.9515,1.9515,1.9468,1.9366,1.934,1.9481,1.9563,1.9684,1.9718,1.9718,1.9617,1.959,1.9583,1.9582,1.9495,1.9495,1.9501,1.9562,1.9495,1.9406,1.9359,1.9298,1.9217,1.9115,1.9027,1.8972,1.8979,1.8938,1.8891,1.8857,1.8837,1.8881,1.8875,1.8868,1.8861,1.8854,1.8847,1.8854,1.8875,1.8854,1.8861,1.8847,1.8827,1.8854,1.8857,1.9725,1.9725,1.9725,1.9725,1.9725,1.9725,1.9725,1.9725,1.9725,1.9725,1.9725,1.9725,1.9725,1.9725,1.9725,1.9576,1.9367,1.9325,1.9156,1.8925,1.8854,1.882,1.882,1.882,1.8715,1.864,1.862,1.8572,1.8491,1.8484,1.8484,1.8484,1.8484,1.8491,1.8484,1.8484,1.8484,1.8484,1.8484,1.8484,1.8484,1.8484,1.8511,1.8559,1.8572,1.8593,1.864,1.8647,1.8545,1.8339,1.84,1.8599,1.88,1.8813,1.8841,1.8857,1.8932,1.9006,1.9067,1.9128,1.923,1.9291,1.9373,1.9454,1.9515,1.9624,1.9718,1.9725,1.9718,1.9725,1.9718,1.9725,1.9617,1.9529,1.9515,1.9563,1.9711,1.9725,1.9725,1.9725,1.9718,1.9725,1.9725,1.9725,1.9725,1.9725,1.9725,1.9725,1.9705,1.9576,1.9515,1.9447,1.9352,1.9264,1.9203,1.9183,1.9183,1.9122,1.9047,1.902,1.8993,1.9,1.8993,1.9,1.8993,1.9,1.9,1.8979,1.8986,1.8932,1.8898,1.8952,1.8986,1.8972,1.902,1.9725,1.9725,1.9725,1.9725,1.9725,1.9725,1.9725,1.9725,1.9725,1.9725,1.9725,1.9725,1.9725,1.9725,1.9725,1.959,1.9461,1.942,1.9339,1.9156,1.8959,1.8888,1.8895,1.8837,1.883,1.881,1.8841,1.8827,1.8807,1.8728,1.882,1.8779,1.8773,1.8807,1.8779,1.8749,1.8786,1.8773,1.8793,1.8728,1.8735,1.882,1.8875,1.8945,1.8966,1.9013,1.9094,1.9101,1.8898,1.8477,1.8508,1.8694,1.8834,1.8847,1.8877,1.9,1.9013,1.9101,1.9183,1.9257,1.9318,1.9434,1.9461,1.9501,1.9624,1.9711,1.9725,1.9725,1.9725,1.9725,1.9725,1.9725,1.9718,1.9718,1.9698,1.9711,1.9718,1.9725,1.9725,1.9725,1.9725,1.9725,1.9725,1.9725,1.9725,1.9725,1.9725,1.9725,1.9725,1.9684,1.9583,1.9522,1.9461,1.9427,1.9373,1.9373,1.9373,1.9352,1.9271,1.9203,1.9142,1.9122,1.9122,1.9135,1.9162,1.9183,1.9169,1.9122,1.9115,1.9094,1.9115,1.9183,1.9176,1.9128,1.9156,1.9725,1.9725,1.9725,1.9725,1.9725,1.9725,1.9725,1.9725,1.9725,1.9725,1.9725,1.9725,1.9725,1.9725,1.9725,1.9698,1.9576,1.9481,1.942,1.9345,1.9183,1.9094,1.9088,1.9081,1.9074,1.9061,1.8972,1.8932,1.8918,1.8881,1.8827,1.882,1.8834,1.8827,1.882,1.8834,1.882,1.882,1.8827,1.8834,1.8847,1.8884,1.8945,1.8986,1.9094,1.9162,1.9203,1.9203,1.9156,1.9006,1.9,1.904,1.9061,1.9067,1.9088,1.9142,1.925,1.9325,1.9379,1.9481,1.9556,1.959,1.9617,1.9684,1.9718,1.9725,1.9725,1.9725,1.9725,1.9732,1.9732,1.9739,1.9732,1.9725,1.9752,1.9745,1.9725,1.9725,1.9725,1.9725,1.9725,1.9725,1.9725,1.9725,1.9725,1.9725,1.9725,1.9725,1.9725,1.9725,1.9684,1.9691,1.9657,1.9643,1.9563,1.9556,1.9563,1.9576,1.9508,1.9413,1.9312,1.921,1.9196,1.9189,1.925,1.9284,1.9237,1.9189,1.9203,1.9271,1.925,1.9278,1.923,1.9189,1.9271,1.9725,1.9725,1.9725,1.9725,1.9725,1.9725,1.9725,1.9725,1.9725,1.9725,1.9725,1.9725,1.9725,1.9725,1.9725,1.9725,1.9711,1.9569,1.9529,1.9515,1.9434,1.9325,1.923,1.9203,1.9203,1.9196,1.9122,1.9047,1.8986,1.8898,1.8922,1.8864,1.8864,1.8943,1.8966,1.8952,1.8945,1.8952,1.8945,1.8952,1.8959,1.9033,1.9115,1.9169,1.9264,1.9318,1.9379,1.94,1.9345,1.9237,1.9196,1.9203,1.9203,1.9203,1.923,1.9291,1.944,1.9549,1.9637,1.9759,1.9841,1.9847,1.9847,1.9847,1.9854,1.9847,1.9847,1.9854,1.9847,1.9847,1.9847,1.9847,1.9847,1.9861,1.9847,1.9793,1.9745,1.9725,1.9725,1.9725,1.9725,1.9725,1.9725,1.9725,1.9725,1.9725,1.9725,1.9725,1.9725,1.9725,1.9725,1.9725,1.9725,1.9698,1.9684,1.9677,1.961,1.9698,1.963,1.9549,1.9481,1.9352,1.9373,1.9379,1.9386,1.9379,1.9359,1.9359,1.9427,1.9454,1.94,1.9379,1.9373,1.9325,1.9406,1.9725,1.9725,1.9725,1.9725,1.9725,1.9725,1.9725,1.9725,1.9725,1.9725,1.9725,1.9725,1.9725,1.9725,1.9725,1.9725,1.9718,1.9705,1.9711,1.9705,1.9671,1.9508,1.9318,1.9305,1.9305,1.9291,1.9244,1.9169,1.9094,1.904,1.9013,1.9013,1.9013,1.9074,1.9128,1.9169,1.9196,1.9169,1.9149,1.9149,1.9156,1.9203,1.9278,1.9366,1.9427,1.9508,1.9596,1.9684,1.9529,1.9264,1.925,1.9278,1.9271,1.9257,1.9339,1.9474,1.9617,1.9739,1.9875,1.999,2.0078,2.0064,2.0071,2.0098,2.0064,2.0051,2.0051,2.0044,2.0092,2.0058,2.0058,2.0078,2.0064,2.0051,2.0071,1.9956,1.9766,1.9745,1.9739,1.9725,1.9725,1.9725,1.9725,1.9725,1.9725,1.9725,1.9725,1.9725,1.9725,1.9725,1.9725,1.9725,1.9725,1.9725,1.9718,1.9718,1.9718,1.9718,1.9718,1.9684,1.9684,1.963,1.9671,1.9677,1.9542,1.9542,1.9637,1.9664,1.9624,1.961,1.9603,1.9643,1.9691,1.9616,1.963,1.9725,1.9725,1.9725,1.9725,1.9725,1.9725,1.9725,1.9725,1.9725,1.9725,1.9725,1.9725,1.9725,1.9725,1.9725,1.9725,1.9725,1.9725,1.9725,1.9725,1.9725,1.9705,1.9616,1.9603,1.9609,1.9522,1.9427,1.9359,1.9312,1.9203,1.9156,1.9156,1.9162,1.9169,1.921,1.9244,1.9203,1.9203,1.921,1.923,1.9257,1.9332,1.94,1.9454,1.9549,1.9677,1.9711,1.9725,1.9691,1.9583,1.9556,1.9542,1.9542,1.9556,1.963,1.9732,1.9807,1.9902,2.0031,2.0092,2.0105,2.0132,2.0139,2.0098,2.0105,2.0119,2.0112,2.0098,2.0098,2.0132,2.0139,2.0112,2.0132,2.0139,2.0126,2.0051,1.9875,1.9827,1.9834,1.9759,1.9725,1.9725,1.9725,1.9725,1.9725,1.9725,1.9725,1.9725,1.9725,1.9725,1.9725,1.9725,1.9725,1.9725,1.9725,1.9725,1.9725,1.9725,1.9725,1.9725,1.9725,1.9725,1.9725,1.9725,1.9711,1.9725,1.9725,1.9725,1.9705,1.9718,1.9725,1.9725,1.9725,1.9725,1.9725,1.9725,1.9725,1.9725,1.9725,1.9725,1.9725,1.9725,1.9725,1.9725,1.9725,1.9725,1.9725,1.9725,1.9725,1.9725,1.9725,1.9725,1.9725,1.9725,1.9725,1.9725,1.9725,1.9725,1.9725,1.9725,1.9705,1.9583,1.9515,1.9427,1.9359,1.9312,1.9305,1.9305,1.9366,1.9406,1.9406,1.9427,1.9427,1.9413,1.942,1.944,1.9488,1.9542,1.9549,1.9617,1.9725,1.9725,1.9725,1.9759,1.9746,1.9766,1.982,1.9841,1.9827,1.9902,1.9963,2.0058,2.0112,2.0193,2.0268,2.0315,2.0302,2.0302,2.0309,2.0309,2.0309,2.0309,2.0309,2.0315,2.0309,2.0309,2.0309,2.0309,2.0309,2.0302,2.0214,2.0031,1.9915,1.9813,1.9766,1.9725,1.9725,1.9725,1.9725,1.9725,1.9725,1.9725,1.9725,1.9725,1.9725,1.9725,1.9725,1.9725,1.9725,1.9725,1.9725,1.9725,1.9725,1.9725,1.9725,1.9725,1.9725,1.9725,1.9725,1.9725,1.9725,1.9725,1.9725,1.9725,1.9725,1.9725,1.9725,1.9725,1.9725,1.9725,1.9725,1.9725,1.9725,1.9725,1.9725,1.9725,1.9725,1.9725,1.9725,1.9725,1.9725,1.9725,1.9725,1.9725,1.9725,1.9725,1.9725,1.9725,1.9725,1.9725,1.9725,1.9725,1.9725,1.9725,1.9725,1.9725,1.9711,1.9583,1.9508,1.9468,1.9468,1.9461,1.9461,1.9508,1.9624,1.9718,1.9684,1.9677,1.9671,1.9677,1.9684,1.9698,1.9705,1.9705,1.9759,1.9773,1.9786,1.9814,1.9854,1.9895,1.9929,1.9942,1.9969,2.0024,2.0126,2.0126,2.0234,2.0239,2.0363,2.0451,2.0512,2.0539,2.0462,2.0462,2.0519,2.0499,2.0492,2.0505,2.0499,2.0499,2.0539,2.0499,2.0505,2.0449,2.0455,2.0313,2.0153,1.9969,1.982,1.9759,1.9725,1.9725,1.9725,1.9725,1.9725,1.9725,1.9725,1.9725,1.9725,1.9725,1.9725,1.9725,1.9725,1.9725,1.9725,1.9725,1.9725,1.9725,1.9725,1.9725,1.9725,1.9725,1.9725,1.9725,1.9725,1.9725,1.9725,1.9725,1.9725,1.9725,1.9725,1.9725,1.9725,1.9725,1.9725,1.9725,1.9725,1.9725,1.9725,1.9725,1.9725,1.9725,1.9725,1.9725,1.9725,1.9725,1.9725,1.9725,1.9725,1.9725,1.9725,1.9725,1.9725,1.9725,1.9725,1.9725,1.9725,1.9745,1.9752,1.9745,1.9725,1.9745,1.9732,1.9624,1.9624,1.9596,1.961,1.961,1.9705,1.9711,1.9725,1.9725,1.9725,1.9725,1.9725,1.9725,1.9725,1.9739,1.9752,1.9827,1.9888,1.9868,1.9956,2.0044,2.0071,2.0187,2.0234,2.022,2.0173,2.0193,2.0275,2.0322,2.0327,2.0408,2.0512,2.0539,2.0539,2.0539,2.0539,2.0539,2.0546,2.0566,2.0553,2.0489,2.0539,2.0539,2.0539,2.0539,2.0449,2.0368,2.0302,2.0112,1.9963,1.9813,1.9752,1.9732,1.9725,1.9725,1.9725,1.9725,1.9725,1.9725,1.9725,1.9725,1.9725,1.9725,1.9725,1.9725,1.9725,1.9725,1.9725,1.9725,1.9725,1.9725,1.9725,1.9725,1.9725,1.9725,1.9725,1.9725,1.9725,1.9725,1.9725,1.9725,1.9725,1.9725,1.9725,1.9725,1.9725,1.9725,1.9725,1.9725,1.9725,1.9725,1.9725,1.9725,1.9725,1.9725,1.9725,1.9725,1.9725,1.9725,1.9725,1.9725,1.9725,1.9725,1.9725,1.9725,1.9725,1.9725,1.9725,1.9773,1.9752,1.9766,1.9827,1.9868,1.9888,1.9793,1.9732,1.9718,1.9739,1.9725,1.9725,1.9725,1.9725,1.9725,1.9732,1.9732,1.9732,1.9732,1.9732,1.9732,1.9752,1.9841,1.9841,1.9908,1.9997,2.0044,2.0139,2.0214,2.0288,2.0363,2.039,2.0383,2.0356,2.0417,2.0368,2.0395,2.0462,2.0539,2.0539,2.0539,2.0539,2.0539,2.0566,2.0607,2.0641,2.0641,2.056,2.0539,2.0539,2.0539,2.0442,2.0374,2.0363,2.022,2.0044,1.9922,1.9861,1.9685,1.9671,1.9664,1.9725,1.9725,1.9725,1.9725,1.9725,1.9725,1.9725,1.9725,1.9725,1.9725,1.9725,1.9725,1.9725,1.9725,1.9725,1.9725,1.9725,1.9725,1.9725,1.9725,1.9725,1.9725,1.9725,1.9725,1.9725,1.9725,1.9725,1.9725,1.9725,1.9725,1.9725,1.9725,1.9725,1.9725,1.9725,1.9725,1.9725,1.9725,1.9725,1.9725,1.9725,1.9725,1.9725,1.9725,1.9725,1.9725,1.9725,1.9725,1.9725,1.9725,1.9725,1.9725,1.9725,1.9725,1.9732,1.9841,1.9895,1.9929,2.0031,2.0058,1.9976,1.9827,1.9854,1.9827,1.9848,1.9827,1.9814,1.9834,1.98,1.9752,1.9814,1.9814,1.9814,1.9752,1.9814,1.9854,1.9915,1.9942,2.0037,2.0139,2.02,2.0268,2.0343,2.0327,2.0361,2.0512,2.0539,2.0539,2.0539,2.0539,2.0539,2.0539,2.0539,2.0539,2.0539,2.0539,2.0539,2.0496,2.0627,2.0709,2.0736,2.0634,2.0476,2.0539,2.0539,2.0408,2.037,2.0295,2.0187,1.9976,1.9841,1.9773,1.9698,1.961,1.9536,1.9475,1.9725,1.9725,1.9725,1.9725,1.9725,1.9725,1.9725,1.9725,1.9725,1.9725,1.9725,1.9725,1.9725,1.9725,1.9725,1.9725,1.9725,1.9725,1.9725,1.9725,1.9725,1.9725,1.9725,1.9725,1.9725,1.9725,1.9725,1.9725,1.9725,1.9725,1.9725,1.9725,1.9725,1.9725,1.9725,1.9725,1.9725,1.9725,1.9725,1.9725,1.9725,1.9725,1.9725,1.9725,1.9725,1.9725,1.9725,1.9725,1.9732,1.9745,1.9759,1.978,1.978,1.9848,1.9875,1.9875,2.001,2.0139,2.0139,2.0092,2.0037,2.0037,2.0024,2.0017,1.9997,2.0037,1.9983,1.9976,2.0051,2.0044,2.0037,2.0031,2.0024,2.0017,2.0037,2.0098,2.018,2.0254,2.0302,2.0376,2.0465,2.0485,2.0442,2.0455,2.0539,2.0539,2.0539,2.0539,2.0539,2.0539,2.0553,2.0587,2.0594,2.0543,2.0523,2.0553,2.055,2.0607,2.0668,2.0763,2.0634,2.0489,2.0539,2.0539,2.0401,2.0273,2.0214,2.0078,1.9895,1.978,1.9773,1.9448,1.9232,1.911,1.9043,1.9414,1.9725,1.9725,1.9732,1.9685,1.9732,1.9739,1.9725,1.9725,1.9725,1.9725,1.9725,1.9725,1.9725,1.9725,1.9725,1.9725,1.9725,1.9725,1.9725,1.9725,1.9725,1.9725,1.9725,1.9725,1.9725,1.9725,1.9725,1.9725,1.9725,1.9725,1.9725,1.9725,1.9725,1.9725,1.9725,1.9725,1.9725,1.9725,1.9725,1.9725,1.9725,1.9725,1.9725,1.9725,1.9725,1.9725,1.9712,1.982,1.9834,1.9834,1.9888,1.9908,1.9983,2.0112,2.0139,2.0207,2.0295,2.0286,2.037,2.0309,2.018,2.0098,2.0112,2.0105,2.0085,2.0132,2.0105,2.0092,2.0092,2.0092,2.0098,2.0098,2.0112,2.0146,2.0227,2.0232,2.0307,2.0444,2.0499,2.0539,2.0539,2.0539,2.0539,2.0539,2.0539,2.0539,2.0483,2.0634,2.0668,2.0682,2.075,2.077,2.079,2.0804,2.0851,2.0865,2.0763,2.0729,2.0885,2.0675,2.0496,2.0476,2.0539,2.0404,2.0205,1.9729,1.9687,1.9608,1.9746,1.9671,1.9232,1.869,1.7916,1.7403,1.7567,1.7948,1.8542,1.8948,1.9424,1.9541,1.9766,1.9752,1.9725,1.9725,1.9725,1.9725,1.9725,1.9725,1.9725,1.9725,1.9725,1.9725,1.9725,1.9725,1.9725,1.9725,1.9725,1.9725,1.9725,1.9725,1.9725,1.9725,1.9725,1.9725,1.9725,1.9725,1.9725,1.9725,1.9725,1.9725,1.9725,1.9725,1.9725,1.9725,1.9725,1.9725,1.9725,1.9725,1.9725,1.9725,1.9732,1.9732,1.9861,1.9875,1.9969,2.0058,2.0119,2.0173,2.0248,2.0315,2.0383,2.0539,2.0435,2.0435,2.0451,2.0349,2.0241,2.0214,2.0254,2.0234,2.022,2.0241,2.0248,2.0248,2.0241,2.0241,2.0234,2.0227,2.0288,2.0286,2.0334,2.0368,2.0455,2.0539,2.0539,2.0476,2.0594,2.0621,2.0621,2.0675,2.0695,2.0729,2.0824,2.0899,2.0906,2.0939,2.0994,2.1001,2.1014,2.1007,2.1116,2.0953,2.0831,2.0967,2.0388,2.0191,2.0031,1.9776,1.9223,1.8906,1.8799,1.887,1.8735,1.8273,1.7966,1.7689,1.6703,1.5248,1.4975,1.528,1.591,1.6991,1.7953,1.8895,1.9237,1.9474,1.9529,1.9509,1.9556,1.9556,1.9617,1.961,1.9671,1.9502,1.9509,1.9617,1.9502,1.9617,1.9725,1.9725,1.9563,1.9725,1.9725,1.9725,1.9725,1.9725,1.9725,1.9725,1.9725,1.9725,1.9725,1.9725,1.9725,1.9725,1.9725,1.9725,1.9725,1.9725,1.9725,1.9725,1.9725,1.9725,1.9725,1.9725,1.9725,1.9739,1.9807,1.9881,1.9875,2.0003,2.0085,2.0119,2.0227,2.0259,2.0376,2.041,2.0519,2.0539,2.0539,2.0532,2.0492,2.0408,2.0442,2.0431,2.0478,2.0415,2.0431,2.0438,2.0444,2.0444,2.0458,2.0458,2.0465,2.0485,2.0435,2.0455,2.0532,2.0539,2.0539,2.0539,2.0483,2.0655,2.0716,2.0729,2.0831,2.0878,2.0919,2.1028,2.1095,2.1116,2.1075,2.1021,2.1014,2.1041,2.1116,2.1218,2.0953,2.0878,2.0817,2.0139,1.9165,1.8694,1.8039,1.72,1.6208,1.5807,1.5801,1.5716,1.5767,1.5524,1.5691,1.4542,1.2681,1.1393,1.1369,1.3259,1.4418,1.6812,1.7806,1.8566,1.8877,1.9093,1.9169,1.9278,1.9332,1.9387,1.9224,1.8677,1.8567,1.8622,1.8896,1.9169,1.9278,1.8842,1.9244,1.908,1.94,1.9725,1.9671,1.9671,1.9725,1.9725,1.9725,1.9725,1.9725,1.9725,1.9725,1.9725,1.9725,1.9725,1.9725,1.9725,1.9725,1.9725,1.9725,1.9725,1.9725,1.9725,1.9725,1.9725,1.9739,1.9854,1.999,2.0017,2.0159,2.0309,2.039,2.041,2.0458,2.0395,2.0428,2.0469,2.0539,2.0539,2.0539,2.0539,2.0539,2.0539,2.0539,2.0532,2.0539,2.0539,2.0539,2.0539,2.0539,2.0539,2.0539,2.0539,2.0539,2.0539,2.0539,2.0539,2.0539,2.0539,2.0539,2.0587,2.0709,2.0777,2.0824,2.0946,2.1014,2.1041,2.1163,2.1218,2.1245,2.1238,2.1272,2.1272,2.1279,2.122,2.1187,2.101,2.096,2.0569,1.9503,1.8127,1.6695,1.5541,1.4417,1.3058,1.2441,1.2471,1.2513,1.2559,1.255,1.2374,1.0957,0.9166,0.8068,0.7153,0.955,1.1942,1.454,1.6618,1.6954,1.724,1.7041,1.7,1.6933,1.7073,1.7073,1.7226,1.7379,1.7305,1.7232,1.7091,1.7006,1.7329,1.711,1.7744,1.8353,1.85,1.8829,1.9393,1.9685,1.9691,1.9745,1.9725,1.9725,1.9752,1.9773,1.9725,1.9725,1.9725,1.9725,1.9725,1.9725,1.9725,1.9725,1.9725,1.9725,1.9725,1.9725,1.9725,1.9725,1.9732,1.9888,2.0024,2.0112,2.0288,2.0424,2.0512,2.0539,2.0539,2.0469,2.0462,2.0539,2.0539,2.0539,2.0539,2.0539,2.0539,2.0539,2.0539,2.0539,2.0539,2.0539,2.0539,2.0539,2.0539,2.0539,2.0539,2.0539,2.0539,2.0553,2.0587,2.0627,2.0648,2.0682,2.0716,2.0756,2.0831,2.0899,2.096,2.1028,2.1116,2.1163,2.1138,2.1206,2.124,2.1294,2.1375,2.1335,2.1083,2.095,2.0772,2.0384,1.9694,1.9266,1.7955,1.6185,1.4254,1.2719,1.1111,0.972,0.9334,0.9249,0.917,0.9221,0.9085,0.8952,0.7421,0.6348,0.5723,0.5108,0.676,0.9224,1.1607,1.3249,1.3596,1.3778,1.3789,1.3708,1.3775,1.3923,1.4072,1.3919,1.3708,1.3632,1.3632,1.378,1.3856,1.4221,1.4722,1.5021,1.5776,1.7041,1.8034,1.8761,1.9305,1.9793,1.982,1.9813,1.9847,1.9888,1.9861,1.9597,1.9725,1.9597,1.9543,1.9482,1.9664,1.9725,1.9725,1.9725,1.9725,1.9725,1.9725,1.9725,1.9725,1.9725,1.9895,2.0044,2.0105,2.0254,2.0478,2.0539,2.0539,2.0539,2.0539,2.0539,2.0539,2.0539,2.0539,2.0539,2.0539,2.0539,2.0489,2.0496,2.056,2.0546,2.0539,2.0539,2.0539,2.0539,2.0539,2.0539,2.0539,2.0539,2.0566,2.0668,2.0716,2.0736,2.0845,2.0885,2.0926,2.1048,2.1116,2.115,2.1285,2.1294,2.1248,2.1195,2.1216,2.1229,2.1302,2.1103,2.1169,2.0911,2.0041,1.9315,1.8486,1.7326,1.6457,1.4713,1.2937,1.119,0.9519,0.7782,0.6429,0.5975,0.5779,0.5703,0.5698,0.5562,0.5431,0.4747,0.3927,0.3476,0.3413,0.4567,0.6476,0.8737,0.9862,1.03,1.0476,1.063,1.0626,1.0697,1.0693,1.07,1.028,1.0067,1.006,1.0203,1.049,1.0553,1.0623,1.1175,1.1953,1.3433,1.4844,1.6614,1.8242,1.8434,1.8701,1.9798,2.0031,2.0064,2.0051,1.9997,1.7026,1.7026,1.7026,1.7026,1.7331,1.8988,1.9725,1.9725,1.9725,1.9664,1.9725,1.9725,1.9725,1.9725,1.9691,1.982,2.0058,2.0112,2.0261,2.0512,2.0539,2.0539,2.0539,2.0539,2.0539,2.0539,2.0539,2.0539,2.0539,2.0539,2.0539,2.0489,2.06,2.0627,2.0566,2.0539,2.0539,2.0539,2.0539,2.0539,2.0546,2.0553,2.056,2.0503,2.0716,2.0797,2.0882,2.096,2.1034,2.1055,2.117,2.1224,2.1252,2.1301,2.1169,2.0705,2.0373,1.9509,1.8971,1.8705,1.9576,2.0041,1.9974,1.8633,1.7396,1.5872,1.4467,1.2829,1.1153,0.9348,0.7333,0.5859,0.4187,0.2513,0.1933,0.1933,0.1931,0.1931,0.1866,0.1801,0.1354,0.0,0.0,0.0,0.0,0.0,0.5577,0.6792,0.7301,0.75,0.7618,0.7616,0.7616,0.7547,0.7343,0.6998,0.693,0.7064,0.7272,0.7613,0.7478,0.7135,0.7967,0.8916,1.0841,1.2743,1.4303,1.5756,1.6784,1.7547,1.7848,1.8967,1.9529,1.9752,2.0078,1.364,1.364,1.364,1.364,1.4195,1.702,1.8312,1.8312,1.8312,1.8312,1.8312,1.8495,1.8738,1.8982,1.9252,1.9698,2.0078,2.0105,2.0261,2.0505,2.0539,2.0539,2.0539,2.0539,2.0539,2.0539,2.0539,2.0539,2.0539,2.0539,2.0539,2.0566,2.0641,2.0607,2.0523,2.0557,2.0722,2.0736,2.0743,2.0736,2.0729,2.0722,2.0716,2.0756,2.0845,2.0939,2.0973,2.1048,2.115,2.1177,2.1159,2.122,2.126,2.1235,2.0911,2.0107,1.8167,1.6824,1.5348,1.4815,1.561,1.6675,1.7291,1.6558,1.4724,1.2876,1.108,0.9374,0.7665,0.6269,0.4641,0.3097,0.187,0.0258,0.0,0.0,0.0,0.0,0.0,0.0,0.0,0.0,0.0,0.0,0.0,0.0,0.232,0.0,0.0,0.0,0.0,0.0,0.0,0.0,0.0,0.3726,0.3727,0.3994,0.0,0.0,0.3992,0.3592,0.476,0.5985,0.7593,0.9383,1.1521,1.2975,1.3624,1.4273,1.4657,1.6222,1.836,1.8912,1.8949,0.9703,0.9703,0.9703,0.9764,1.038,1.3518,1.5183,1.5428,1.5428,1.5428,1.5494,1.6105,1.6776,1.7569,1.8245,1.9146,1.9989,2.0092,2.0288,2.0465,2.0532,2.0539,2.0539,2.0539,2.0539,2.0539,2.0539,2.0539,2.0539,2.0539,2.0539,2.0553,2.06,2.06,2.0668,2.0817,2.0906,2.0878,2.0899,2.0899,2.0899,2.0939,2.0919,2.096,2.1048,2.1123,2.1184,2.1279,2.1294,2.1268,2.1216,2.1163,2.1169,2.1236,2.0373,1.85,1.542,1.307,1.1326,1.0992,1.0925,1.1994,1.254,1.2414,1.1449,0.946,0.762,0.6124,0.4576,0.3897,0.2845,0.1873,0.0903,0.0,0.0,0.0,0.0,0.0,0.0,0.0,0.0,0.0,0.0,0.0,0.0,0.0,0.0,0.0,0.0,0.0,0.0,0.0,0.0,0.0,0.0,0.0,0.0,0.0,0.0,0.0,0.0,0.0,0.2193,0.3474,0.4287,0.6055,0.8786,0.9865,1.0053,1.0638,1.1232,1.2826,1.4784,1.6289,1.6803,0.7017,0.7017,0.7017,0.7017,0.7202,0.8249,0.9716,1.1364,1.1486,1.1486,1.1547,1.2714,1.4068,1.5595,1.677,1.8292,1.944,2.0139,2.0302,2.0374,2.0349,2.0476,2.0539,2.0539,2.0539,2.0539,2.0539,2.0539,2.0539,2.0539,2.0539,2.0546,2.0621,2.0661,2.0777,2.0987,2.0946,2.0939,2.0973,2.1034,2.1034,2.1041,2.1034,2.1075,2.1163,2.1224,2.1265,2.1367,2.1229,2.0778,2.0174,1.9775,1.911,1.8572,1.7435,1.4085,1.1545,0.9401,0.8058,0.772,0.7586,0.7318,0.7591,0.7251,0.6634,0.5812,0.4124,0.3043,0.0,0.0,0.0,0.0,0.0,0.0,0.0,0.0,0.0,0.0,0.0,0.0,0.0,0.0,0.0,0.0,0.0,0.0,0.0,0.0,0.0,0.0,0.0,0.0,0.0,0.0,0.0,0.0,0.0,0.0,0.0,0.0,0.0,0.0,0.0,0.1352,0.2695,0.4552,0.6734,0.7112,0.678,0.718,0.7834,0.9442,1.1115,1.2659,1.446,0.3567,0.3576,0.3577,0.3577,0.3576,0.3577,0.4558,0.6027,0.7562,0.824,0.8425,0.9713,1.1368,1.3147,1.4511,1.6227,1.8275,1.8611,1.9,1.9591,1.9967,2.0285,2.0412,2.0539,2.0539,2.0539,2.0539,2.0539,2.0539,2.0539,2.0539,2.0546,2.0655,2.0668,2.0729,2.0851,2.0906,2.0933,2.1007,2.1129,2.1157,2.115,2.117,2.117,2.1258,2.1285,2.1233,2.1341,2.0897,1.9842,1.8971,1.749,1.6291,1.4886,1.2674,0.9529,0.7588,0.5646,0.4168,0.3833,0.39,0.0,0.0,0.3094,0.3158,0.2815,0.1737,0.0,0.0,0.0,0.0,0.0,0.0,0.0,0.0,0.0,0.0,0.0,0.0,0.0,0.0,0.0,0.0,0.0,0.0,0.0,0.0,0.0,0.0,0.0,0.0,0.0,0.0,0.0,0.0,0.0,0.0,0.0,0.0,0.0,0.0,0.0,0.0,0.0,0.1482,0.0,0.0,0.0,0.3539,0.0,0.0,0.0,0.0,0.8941,1.093,0.0,0.0,0.0,0.0,0.0,0.0,0.0,0.0,0.3945,0.5424,0.5607,0.6835,0.8369,1.002,1.1441,1.3274,1.5031,1.6029,1.7097,1.8236,1.8949,1.9522,2.0349,2.0539,2.0539,2.0539,2.0539,2.0539,2.0539,2.0539,2.0539,2.0539,2.0553,2.0573,2.0614,2.075,2.0817,2.0851,2.1062,2.1258,2.1313,2.1374,2.1355,2.1328,2.1341,2.1362,2.1295,2.1037,2.0506,1.8832,1.6958,1.5081,1.2603,1.0396,0.7718,0.5976,0.4435,0.2893,0.0,0.0,0.0,0.0,0.0,0.0,0.0,0.0,0.0536,0.0,0.0,0.0,0.0,0.0,0.0,0.0,0.0,0.0,0.0,0.0,0.0,0.0,0.0,0.0,0.0,0.0,0.0,0.0,0.0,0.0,0.0,0.0,0.0,0.0,0.0,0.0,0.0,0.0,0.0,0.0,0.0,0.0,0.0,0.0,0.0,0.0,0.0,0.0,0.0,0.0,0.0,0.0,0.0,0.0,0.0,0.0,0.728,0.0,0.0,0.0,0.0,0.0,0.0,0.0,0.0,0.0864,0.0,0.1728,0.296,0.462,0.6644,0.7998,0.9732,1.1459,1.3018,1.4458,1.5988,1.7205,1.8561,2.0094,2.0094,2.0285,2.0539,2.0539,2.0539,2.0539,2.0539,2.0539,2.0539,2.0539,2.0539,2.0483,2.0689,2.0756,2.0763,2.0939,2.1102,2.1109,2.1211,2.1265,2.1313,2.128,2.1037,2.0711,1.9974,1.83,1.623,1.4018,1.1407,0.8393,0.6383,0.4907,0.3699,0.2422,0.1211,0.0,0.0,0.0,0.0,0.0,0.0,0.0,0.0,0.0,0.0,0.0,0.0,0.0,0.0,0.0,0.0,0.0,0.0,0.0,0.0,0.0,0.0,0.0,0.0,0.0,0.0,0.0,0.0,0.0,0.0,0.0,0.0,0.0,0.0,0.0,0.0,0.0,0.0,0.0,0.0,0.0,0.0,0.0,0.0,0.0,0.0,0.0,0.0,0.0,0.0,0.0,0.0,0.0,0.0,0.0,0.0,0.4157,0.0,0.0,0.0,0.0,0.0,0.0,0.0,0.0,0.0,0.0,0.0,0.1173,0.2466,0.4003,0.5174,0.6376,0.8258,0.9737,1.158,1.3456,1.501,1.677,1.7987,1.8943,1.9331,1.9522,2.0285,2.0539,2.0539,2.0539,2.0539,2.0539,2.0539,2.0483,2.0489,2.0634,2.0675,2.0668,2.0777,2.0804,2.0858,2.1034,2.119,2.1258,2.1208,2.0824,1.9636,1.8633,1.6225,1.3079,1.0001,0.6786,0.4235,0.2893,0.2288,0.175,0.1077,0.0,0.0,0.0,0.0,0.0,0.0,0.0,0.0,0.0,0.0,0.0,0.0,0.0,0.0,0.0,0.0,0.0,0.0,0.0,0.0,0.0,0.0,0.0,0.0,0.0,0.0,0.0,0.0,0.0,0.0,0.0,0.0,0.0,0.0,0.0,0.0,0.0,0.0,0.0,0.0,0.0,0.0,0.0,0.0,0.0,0.0,0.0,0.0,0.0,0.0,0.0,0.0,0.0,0.0,0.0,0.0,0.0,0.0,0.0,0.0,0.0,0.0,0.0,0.0,0.0,0.0,0.0,0.0,0.0,0.0617,0.1604,0.2467,0.3146,0.4215,0.5295,0.6388,0.8394,1.0246,1.1776,1.3464,1.5025,1.6323,1.7216,1.8624,1.984,2.0285,2.0539,2.0539,2.0539,2.0539,2.0476,2.0539,2.0476,2.0546,2.056,2.0566,2.06,2.0573,2.0722,2.0875,2.0972,2.11,2.0944,2.0294,1.8633,1.6558,1.4147,1.0467,0.645,0.3497,0.0,0.0,0.0,0.0,0.0,0.0,0.0,0.0,0.0,0.0,0.0,0.0,0.0,0.0,0.0,0.0,0.0,0.0,0.0,0.0,0.0,0.0,0.0,0.0,0.0,0.0,0.0,0.0,0.0,0.0,0.0,0.0,0.0,0.0,0.0,0.0,0.0,0.0,0.0,0.0,0.0,0.0,0.0,0.0,0.0,0.0,0.0,0.0,0.0,0.0,0.0,0.0,0.0,0.0,0.0,0.0,0.0,0.0,0.0,0.0,0.0,0.0,0.0,0.0,0.0,0.0,0.0,0.0,0.0,0.0,0.0,0.0,0.0,0.0,0.0,0.0432,0.0,0.0679,0.1301,0.2179,0.3251,0.4538,0.6232,0.8164,0.9784,1.1608,1.3496,1.5227,1.7083,1.9007,2.0222,1.977,2.0031,2.0412,2.0222,2.0285,2.0349,2.0349,2.0285,2.0031,1.9967,2.0031,2.0031,2.0308,2.0495,2.0532,2.0345,1.9835,1.8055,1.603,1.3751,1.0872,0.739,0.4034,0.1548,0.0,0.0,0.0,0.0,0.0,0.0,0.0,0.0,0.0,0.0,0.0,0.0,0.0,0.0,0.0,0.0,0.0,0.0,0.0,0.0,0.0,0.0,0.0,0.0,0.0,0.0,0.0,0.0,0.0,0.0,0.0,0.0,0.0,0.0,0.0,0.0,0.0,0.0,0.0,0.0,0.0,0.0,0.0,0.0,0.0,0.0,0.0,0.0,0.0,0.0,0.0,0.0,0.0,0.0,0.0,0.0,0.0,0.0,0.0,0.0,0.0,0.0,0.0]},{"header":{"parameterUnit":"m.s-1","parameterCategory":1,"la1":31.0,"la2":29.5877,"lo1":-88.7671,"lo2":-86.6584,"dy":0.0162,"dx":0.0185,"nx":115,"ny":88,"refTime":"2026-04-04T12:00:00:Z","depth":0,"parameterNumber":3,"parameterNumberName":"V-component_of_WINDS"},"data":[0.0,0.0,0.0,0.0,0.0,0.0,0.0,0.0,0.0,0.0,0.0,0.0,0.0,0.0,0.0,0.0,0.0,0.0,0.0,0.0,0.0,0.0,0.0,0.0,0.0,0.0,0.0,0.0,0.0,0.0,0.0,0.0,0.0,0.0,0.0,0.0,0.0,0.0,0.0,0.0,0.0,0.0,0.0,0.0,0.0,0.0,0.0,0.0,0.0,0.0,0.0,0.0,0.0,0.0,0.0,0.0,0.0,0.0,0.0,0.0,0.0,0.0,0.0,0.0,0.0,0.0,0.0,0.0,0.0,0.0,0.0,0.0,0.0,0.0,0.0,0.0,0.0,0.0,0.0,0.0,0.0,0.0,0.0,0.0,0.0,0.0,0.0,0.0,0.0,0.0,0.0,0.0,0.0,0.0,0.0,0.0,0.0,0.0,0.0,0.0,0.0,0.0,0.0,0.0,0.0,0.0,0.0,0.0,0.0,0.0,0.0,0.0,0.0,0.0,0.0,0.0,0.0,0.0,0.0,0.0,0.0,0.0,0.0,0.0,0.0,0.0,0.0,0.0,0.0,0.0,0.0,0.0,0.0,0.0,0.0,0.0,0.0,0.0,0.0,0.0,0.0,0.0,0.0,0.0,0.0,0.0,0.0,0.0,0.0,0.0,0.0,0.0,0.0,0.0,0.0,0.0,0.0,0.0,0.0,0.0,0.0,0.0,0.0,0.0,0.0,0.0,0.0,0.0,0.0,0.0,0.0,0.0,0.0,0.0,0.0,0.0,0.0,0.0,0.0,0.0,0.0,0.0,0.0,0.0,0.0,0.0,0.0,0.0,0.0,0.0,0.0,0.0,0.0,0.0,0.0,0.0,0.0,0.0,0.0,0.0,0.0,0.0,0.0,0.0,0.0,0.0,0.0,0.0,0.0,0.0,0.0,0.0,0.0,0.0,0.0,0.0,0.0,0.0,0.0,0.0,0.0,0.0,0.0,0.0,0.0,0.0,0.0,0.0,0.0,0.0,0.0,0.0,0.0,0.0,0.0,0.0,0.0,0.0,0.0,0.0,0.0,0.0,0.0,0.0,0.0,0.0,0.0,0.0,0.0,0.0,0.0,0.0,0.0,0.0,0.0,0.0,0.0,0.0,0.0,0.0,0.0,0.0,0.0,0.0,0.0,0.0,0.0,0.0,0.0,0.0,0.0,0.0,0.0,0.0,0.0,0.0,0.0,0.0,0.0,0.0,0.0,0.0,0.0,0.0,0.0,0.0,0.0,0.0,0.0,0.0,0.0,0.0,0.0,0.0,0.0,0.0,0.0,0.0,0.0,0.0,0.0,0.0,0.0,0.0,0.0,0.0,0.0,0.0,0.0,0.0,0.0,0.0,0.0,0.0,0.0,0.0,0.0,0.0,0.0,0.0,0.0,0.0,0.0,0.0,0.0,0.0,0.0,0.0,0.0,0.0,0.0,0.0,0.0,0.0,0.0,0.0,0.0,0.0,0.0,0.0,0.0,0.0,0.0,0.0,0.0,0.0,0.0,0.0,0.0,0.0,0.0,0.0,0.0,0.0,0.0,0.0,0.0,0.0,0.0,0.0,0.0,0.0,0.0,0.0,0.0,0.0,0.0,0.0,0.0,0.0,0.0,0.0,0.0,0.0,0.0,0.0,0.0,0.0,0.0,0.0,0.0,0.0,0.0,0.0,0.0,0.0,0.0,0.0,0.0,0.0,0.0,0.0,0.0,0.0,0.0,0.0,0.0,0.0,0.0,0.0,0.0,0.0,0.0,0.0,0.0,0.0,0.0,0.0,0.0,0.0,0.0,0.0,0.0,0.0,0.0,0.0,0.0,0.0,0.0,0.0,0.0,0.0,0.0,0.0,0.0,0.0,0.0,0.0,0.0,0.0,0.0,0.0,0.0,0.0,0.0,0.0,0.0,0.0,0.0,0.0,0.0,0.0,0.0,0.0,0.0,0.0,0.0,0.0,0.0,0.0,0.0,0.0,0.0,0.0,0.0,0.0,0.0,0.0,0.0,0.0,0.0,0.0,0.0,0.0,0.0,0.0,0.0,0.0,0.0,0.0,0.0,0.0,0.0,0.0,0.0,0.0,0.0,0.0,0.0,0.0,0.0,0.0,0.0,0.0,0.0,0.0,0.0,0.0,0.0,0.0,0.0,0.0,0.0,0.0,0.0,0.0,0.0,0.0,0.0,0.0,0.0,0.0,0.0,0.0,0.0,0.0,0.0,0.0,0.0,0.0,0.0,0.0,0.0,0.0,0.0,0.0,0.0,0.0,0.0,0.0,0.0,0.0,0.0,0.0,0.0,0.0,0.0,0.0,0.0,0.0,0.0,0.0,0.0,0.0,0.0,0.0,0.0,0.0,0.0,0.0,0.0,0.0,0.0,0.0,0.0,0.0,0.0,0.0,0.0,0.0,0.0,0.0,0.0,0.0,0.0,0.0,0.0,0.0,0.0,0.0,0.0,0.0,0.0,0.0,0.0,0.0,0.0,0.0,0.0,0.0,0.0,0.0,0.0,0.0,0.0,0.0,0.0,0.0,0.0,0.0,0.0,0.0,0.0,0.0,0.0,0.0,0.0,0.0,0.0,0.0,0.0,0.0,0.0,0.0,0.0,0.0,0.0,0.0,0.0,0.0,0.0,0.0,0.0,0.0,0.0,0.0,0.0,0.0,0.0,0.0,0.0,0.0,0.0,0.0,0.0,0.0,0.0,0.0,0.0,0.0,0.0,0.0,0.0,0.0,0.0,0.0,0.0,0.0,0.0,0.0,0.0,0.0,0.0,0.0,0.0,0.0,0.0,0.0,0.0,0.0,0.0,0.0,0.0,0.0,0.0,0.0,0.0,0.0,0.0,0.0,0.0,0.0,0.0,0.0,0.0,0.0,0.0,0.0,0.0,0.0,0.0,0.0,0.0,0.0,0.0,0.0,0.0,0.0,0.0,0.0,0.0,0.0,0.0,0.0,0.0,0.0,0.0,0.0,0.0,0.0,0.0,0.0,0.0,0.0,0.0,0.0,0.0,0.0,0.0,0.0,0.0,0.0,0.0,0.0,0.0,0.0,0.0,0.0,0.0,0.0,0.0,0.0,0.0,0.0,0.0,0.0,0.0,0.0,0.0,0.0,0.0,0.0,0.0,0.0,0.0,0.0,0.0,0.0,0.0,0.0,0.0,0.0,0.0,0.0,0.0,0.0,0.0,0.0,0.0,0.0,0.0,0.0,0.0,0.0,0.0,0.0,0.0,0.0,0.0,0.0,0.0,0.0,0.0,0.0,0.0,0.0,0.0,0.0,0.0,0.0,0.0,0.0,0.0,0.0,0.0,0.0,0.0,0.0,0.0,0.0,0.0,0.0,0.0,0.0,0.0,0.0,0.0,0.0,0.0,0.0,0.0,0.0,0.0,0.0,0.0,0.0,0.0,0.0,0.0,0.0,0.0,0.0,0.0,0.0,0.0,0.0,0.0,0.0,0.0,0.0,0.0,0.0,0.0,0.0,0.0,0.0,0.0,0.0,0.0,0.0,0.0,0.0,0.0,0.0,0.0,0.0,0.0,0.0,0.0,0.0,0.0,0.0,0.0,0.0,0.0,0.0,0.0,0.0,0.0,0.0,0.0,0.0,0.0,0.0,0.0,0.0,0.0,0.0,0.0,0.0,0.0,0.0,0.0,0.0,0.0,0.0,0.0,0.0,0.0,0.0,0.0,0.0,0.0,0.0,0.0,0.0,0.0,0.0,0.0,0.0,0.0,0.0,0.0,0.0,0.0,0.0,0.0,0.0,0.0,0.0,0.0,0.0,0.0,0.0,0.0,0.0,0.0,0.0,0.0,0.0,0.0,0.0,0.0,0.0,0.0,0.0,0.0,0.0,0.0,0.0,0.0,0.0,0.0,0.0,0.0,0.0,0.0,0.0,0.0,0.0,0.0,0.0,0.0,0.0,0.0,0.0,0.0,0.0,0.0,0.0,0.0,0.0,0.0,0.0,0.0,0.0,0.0,0.0,0.0,0.0,0.0,0.0,0.0,0.0,0.0,0.0,0.0,0.0,0.0,0.0,0.0,0.0,0.0,0.0,0.0,0.0,0.0,0.0,0.0,0.0,0.0,0.0,0.0,0.0,0.0,0.0,0.0,0.0,0.0,0.0,0.0,0.0,0.0,0.0,0.0,0.0,0.0,0.0,0.0,0.0,0.0,0.0,0.0,0.0,0.0,0.0,0.0,0.0,0.0,0.0,0.0,0.0,0.0,0.0,0.0,0.0,3.1286,0.0,0.0,0.0,0.0,0.0,0.0,0.0,0.0,0.0,0.0,0.0,0.0,0.0,0.0,0.0,0.0,0.0,0.0,0.0,0.0,0.0,0.0,0.0,0.0,0.0,0.0,0.0,0.0,0.0,0.0,0.0,0.0,0.0,0.0,0.0,0.0,0.0,0.0,0.0,0.0,0.0,0.0,0.0,0.0,0.0,0.0,0.0,0.0,0.0,0.0,0.0,0.0,0.0,0.0,0.0,0.0,0.0,0.0,0.0,0.0,0.0,0.0,0.0,0.0,0.0,0.0,0.0,0.0,0.0,0.0,0.0,0.0,0.0,0.0,0.0,0.0,0.0,0.0,0.0,0.0,0.0,0.0,0.0,0.0,0.0,0.0,0.0,0.0,0.0,0.0,0.0,0.0,0.0,0.0,0.0,0.0,0.0,0.0,0.0,0.0,0.0,0.0,0.0,0.0,0.0,0.0,0.0,0.0,0.0,0.0,3.3807,3.3807,3.344,3.2669,3.147,0.0,0.0,0.0,0.0,0.0,0.0,0.0,0.0,0.0,0.0,0.0,0.0,0.0,0.0,0.0,0.0,0.0,0.0,0.0,0.0,0.0,0.0,0.0,0.0,0.0,0.0,0.0,0.0,0.0,0.0,0.0,0.0,0.0,0.0,0.0,0.0,0.0,0.0,0.0,0.0,0.0,0.0,0.0,0.0,0.0,0.0,0.0,0.0,0.0,0.0,0.0,0.0,0.0,0.0,0.0,0.0,0.0,0.0,0.0,0.0,0.0,0.0,0.0,0.0,0.0,0.0,0.0,0.0,0.0,0.0,0.0,0.0,0.0,0.0,0.0,0.0,0.0,0.0,0.0,0.0,0.0,0.0,0.0,0.0,0.0,0.0,0.0,0.0,0.0,0.0,0.0,0.0,0.0,0.0,0.0,0.0,0.0,0.0,0.0,0.0,0.0,0.0,0.0,0.0,0.0,0.0,0.0,0.0,0.0,0.0,0.0,0.0,3.4057,3.333,3.1758,0.0,0.0,0.0,0.0,0.0,0.0,0.0,0.0,0.0,0.0,0.0,0.0,0.0,0.0,0.0,0.0,0.0,0.0,0.0,0.0,0.0,0.0,0.0,0.0,0.0,0.0,0.0,0.0,0.0,0.0,0.0,0.0,0.0,0.0,0.0,0.0,0.0,0.0,0.0,0.0,0.0,0.0,0.0,0.0,0.0,0.0,0.0,0.0,0.0,0.0,0.0,0.0,0.0,0.0,0.0,0.0,0.0,0.0,0.0,0.0,0.0,0.0,0.0,0.0,0.0,0.0,0.0,0.0,0.0,0.0,0.0,0.0,0.0,0.0,0.0,0.0,0.0,0.0,0.0,0.0,0.0,0.0,0.0,0.0,0.0,0.0,0.0,0.0,0.0,0.0,0.0,0.0,0.0,0.0,0.0,0.0,0.0,0.0,0.0,0.0,0.0,0.0,0.0,0.0,0.0,0.0,0.0,0.0,0.0,0.0,3.4887,3.4887,3.4894,0.0,3.2583,0.0,0.0,0.0,0.0,0.0,0.0,0.0,0.0,0.0,0.0,0.0,0.0,0.0,0.0,0.0,0.0,0.0,0.0,0.0,0.0,0.0,0.0,0.0,0.0,0.0,0.0,0.0,0.0,0.0,0.0,0.0,0.0,0.0,0.0,0.0,0.0,0.0,0.0,0.0,0.0,0.0,0.0,0.0,0.0,0.0,0.0,0.0,0.0,0.0,0.0,0.0,0.0,0.0,0.0,0.0,0.0,0.0,0.0,0.0,0.0,0.0,0.0,0.0,0.0,0.0,0.0,0.0,0.0,0.0,0.0,0.0,0.0,0.0,0.0,0.0,0.0,0.0,0.0,0.0,0.0,0.0,0.0,0.0,0.0,0.0,0.0,0.0,0.0,0.0,0.0,0.0,0.0,0.0,0.0,0.0,0.0,0.0,0.0,0.0,0.0,0.0,0.0,0.0,0.0,0.0,0.0,0.0,0.0,0.0,0.0,0.0,3.645,3.5048,3.3984,0.0,0.0,0.0,0.0,0.0,0.0,0.0,0.0,0.0,0.0,0.0,0.0,0.0,0.0,0.0,0.0,0.0,0.0,0.0,0.0,0.0,0.0,0.0,0.0,0.0,0.0,0.0,0.0,0.0,0.0,0.0,0.0,0.0,0.0,0.0,0.0,0.0,0.0,0.0,0.0,0.0,0.0,0.0,0.0,0.0,0.0,0.0,0.0,0.0,0.0,0.0,0.0,0.0,0.0,0.0,0.0,0.0,0.0,0.0,0.0,0.0,0.0,0.0,0.0,0.0,0.0,0.0,0.0,0.0,0.0,0.0,0.0,0.0,0.0,0.0,0.0,0.0,0.0,0.0,0.0,0.0,0.0,0.0,0.0,0.0,0.0,0.0,0.0,0.0,0.0,0.0,0.0,0.0,0.0,0.0,0.0,0.0,0.0,0.0,0.0,0.0,0.0,0.0,0.0,0.0,0.0,0.0,0.0,0.0,0.0,3.4894,0.0,3.6641,3.4871,3.3587,3.3153,0.0,0.0,0.0,0.0,0.0,0.0,0.0,0.0,0.0,0.0,0.0,0.0,0.0,0.0,0.0,0.0,0.0,0.0,0.0,0.0,0.0,0.0,0.0,0.0,0.0,0.0,0.0,0.0,0.0,0.0,0.0,0.0,0.0,0.0,0.0,0.0,0.0,0.0,0.0,0.0,0.0,0.0,0.0,0.0,0.0,0.0,0.0,0.0,0.0,0.0,0.0,0.0,0.0,0.0,0.0,0.0,0.0,0.0,0.0,0.0,0.0,0.0,0.0,0.0,0.0,0.0,0.0,0.0,0.0,0.0,0.0,0.0,0.0,0.0,0.0,0.0,0.0,0.0,0.0,0.0,0.0,0.0,0.0,0.0,0.0,0.0,0.0,0.0,0.0,0.0,0.0,0.0,0.0,0.0,0.0,0.0,0.0,0.0,0.0,0.0,0.0,0.0,0.0,0.0,0.0,0.0,0.0,0.0,0.0,3.4601,3.5041,3.5114,3.4241,3.3073,0.0,0.0,0.0,0.0,0.0,0.0,0.0,0.0,0.0,0.0,0.0,0.0,0.0,0.0,0.0,0.0,0.0,0.0,0.0,0.0,0.0,0.0,0.0,0.0,0.0,0.0,0.0,0.0,0.0,0.0,0.0,0.0,0.0,0.0,0.0,0.0,0.0,0.0,0.0,0.0,0.0,0.0,0.0,0.0,0.0,0.0,0.0,0.0,0.0,0.0,0.0,0.0,0.0,0.0,0.0,0.0,0.0,0.0,0.0,0.0,0.0,0.0,0.0,0.0,0.0,0.0,0.0,0.0,0.0,0.0,0.0,0.0,0.0,0.0,0.0,0.0,0.0,0.0,0.0,0.0,0.0,0.0,0.0,0.0,0.0,0.0,0.0,0.0,0.0,0.0,0.0,0.0,0.0,0.0,0.0,0.0,0.0,0.0,0.0,0.0,0.0,0.0,0.0,0.0,0.0,0.0,0.0,0.0,0.0,3.3844,3.4601,3.4747,3.4241,3.347,3.2522,0.0,0.0,0.0,0.0,0.0,0.0,0.0,0.0,0.0,0.0,0.0,0.0,0.0,0.0,0.0,0.0,0.0,0.0,0.0,0.0,0.0,0.0,0.0,0.0,0.0,0.0,0.0,0.0,0.0,0.0,0.0,0.0,0.0,0.0,0.0,0.0,0.0,0.0,0.0,0.0,0.0,0.0,0.0,0.0,0.0,0.0,0.0,0.0,0.0,0.0,0.0,0.0,0.0,0.0,0.0,0.0,0.0,0.0,0.0,0.0,0.0,0.0,0.0,0.0,0.0,0.0,0.0,0.0,0.0,0.0,0.0,0.0,0.0,0.0,0.0,0.0,0.0,0.0,0.0,0.0,0.0,0.0,0.0,0.0,0.0,0.0,0.0,0.0,0.0,0.0,0.0,0.0,0.0,0.0,0.0,0.0,0.0,0.0,0.0,0.0,0.0,0.0,0.0,0.0,0.0,0.0,0.0,0.0,0.0,3.4204,0.0,3.5305,0.0,3.3647,3.2883,0.0,0.0,0.0,0.0,0.0,0.0,0.0,0.0,0.0,0.0,0.0,0.0,0.0,0.0,0.0,0.0,0.0,0.0,0.0,0.0,0.0,0.0,0.0,0.0,0.0,0.0,0.0,0.0,0.0,0.0,0.0,0.0,0.0,0.0,0.0,0.0,0.0,0.0,0.0,0.0,0.0,0.0,0.0,0.0,0.0,0.0,0.0,0.0,0.0,0.0,0.0,0.0,0.0,0.0,0.0,0.0,0.0,0.0,0.0,0.0,0.0,0.0,0.0,0.0,0.0,0.0,0.0,0.0,0.0,0.0,0.0,0.0,0.0,0.0,0.0,0.0,0.0,0.0,0.0,0.0,0.0,0.0,0.0,0.0,0.0,0.0,0.0,0.0,0.0,0.0,0.0,0.0,0.0,0.0,0.0,0.0,0.0,0.0,0.0,0.0,0.0,0.0,0.0,0.0,0.0,0.0,0.0,0.0,3.4321,3.5071,3.6604,3.667,3.5071,3.4961,3.4234,0.0,0.0,0.0,0.0,0.0,0.0,0.0,0.0,0.0,0.0,0.0,0.0,0.0,0.0,0.0,0.0,0.0,0.0,0.0,0.0,0.0,0.0,0.0,0.0,0.0,0.0,0.0,0.0,0.0,0.0,0.0,0.0,0.0,0.0,0.0,0.0,0.0,0.0,0.0,0.0,0.0,0.0,0.0,0.0,0.0,0.0,0.0,0.0,0.0,0.0,0.0,0.0,0.0,0.0,0.0,0.0,0.0,0.0,0.0,0.0,0.0,0.0,0.0,0.0,0.0,0.0,0.0,0.0,0.0,0.0,0.0,0.0,0.0,0.0,0.0,0.0,0.0,0.0,0.0,0.0,0.0,0.0,0.0,0.0,0.0,0.0,0.0,0.0,0.0,0.0,0.0,0.0,0.0,0.0,0.0,0.0,0.0,0.0,0.0,0.0,0.0,0.0,0.0,0.0,0.0,0.0,0.0,0.0,0.0,3.6787,3.7235,3.7272,3.6714,3.5628,3.4527,0.0,0.0,0.0,0.0,0.0,0.0,0.0,0.0,0.0,0.0,0.0,0.0,0.0,0.0,0.0,0.0,0.0,0.0,0.0,0.0,0.0,0.0,0.0,0.0,0.0,0.0,0.0,0.0,0.0,0.0,0.0,0.0,0.0,0.0,0.0,0.0,0.0,0.0,0.0,0.0,0.0,0.0,0.0,0.0,0.0,0.0,0.0,0.0,0.0,0.0,0.0,0.0,0.0,0.0,0.0,0.0,0.0,0.0,0.0,0.0,0.0,0.0,0.0,0.0,0.0,0.0,0.0,0.0,0.0,0.0,0.0,0.0,0.0,0.0,0.0,0.0,0.0,0.0,0.0,0.0,0.0,0.0,0.0,0.0,0.0,0.0,0.0,0.0,0.0,0.0,0.0,0.0,0.0,0.0,0.0,0.0,0.0,0.0,0.0,0.0,0.0,0.0,0.0,0.0,0.0,0.0,0.0,0.0,0.0,4.1972,4.1413,4.0781,4.0194,3.8571,3.7066,3.5679,0.0,0.0,0.0,0.0,0.0,0.0,0.0,0.0,0.0,0.0,0.0,0.0,0.0,0.0,0.0,0.0,0.0,0.0,0.0,0.0,0.0,0.0,0.0,0.0,0.0,0.0,0.0,0.0,0.0,0.0,0.0,0.0,0.0,0.0,0.0,0.0,0.0,0.0,0.0,0.0,0.0,0.0,0.0,0.0,0.0,0.0,0.0,0.0,0.0,0.0,0.0,0.0,0.0,0.0,0.0,0.0,0.0,0.0,0.0,0.0,0.0,0.0,0.0,0.0,0.0,0.0,0.0,0.0,0.0,0.0,0.0,0.0,0.0,0.0,0.0,0.0,0.0,0.0,0.0,0.0,0.0,0.0,0.0,0.0,0.0,0.0,0.0,0.0,0.0,0.0,0.0,0.0,0.0,0.0,0.0,0.0,0.0,0.0,0.0,0.0,0.0,0.0,0.0,0.0,0.0,0.0,0.0,0.0,4.9794,4.8563,4.7012,4.5214,4.3525,4.1479,0.0,0.0,0.0,0.0,0.0,0.0,0.0,0.0,0.0,0.0,0.0,0.0,0.0,0.0,0.0,0.0,0.0,0.0,0.0,0.0,0.0,0.0,0.0,0.0,0.0,0.0,0.0,0.0,0.0,0.0,0.0,0.0,0.0,0.0,0.0,0.0,0.0,0.0,0.0,0.0,0.0,0.0,0.0,0.0,0.0,0.0,0.0,0.0,0.0,0.0,0.0,0.0,0.0,0.0,0.0,0.0,0.0,0.0,0.0,0.0,0.0,0.0,0.0,0.0,0.0,0.0,0.0,0.0,0.0,0.0,0.0,0.0,0.0,0.0,0.0,0.0,0.0,0.0,0.0,0.0,0.0,0.0,0.0,0.0,0.0,0.0,0.0,0.0,0.0,0.0,0.0,0.0,0.0,0.0,0.0,0.0,0.0,0.0,0.0,0.0,0.0,0.0,0.0,0.0,0.0,0.0,0.0,0.0,0.0,5.2931,5.5611,5.5012,5.1086,4.8223,4.5333,0.0,0.0,0.0,0.0,0.0,0.0,0.0,0.0,0.0,0.0,0.0,0.0,0.0,0.0,0.0,0.0,0.0,0.0,0.0,0.0,0.0,0.0,0.0,0.0,0.0,0.0,0.0,0.0,0.0,0.0,0.0,0.0,0.0,0.0,0.0,0.0,0.0,0.0,0.0,0.0,0.0,0.0,0.0,0.0,0.0,0.0,0.0,0.0,0.0,0.0,0.0,0.0,0.0,0.0,0.0,0.0,0.0,0.0,0.0,0.0,0.0,0.0,0.0,0.0,0.0,0.0,0.0,0.0,0.0,0.0,0.0,0.0,0.0,0.0,0.0,0.0,0.0,0.0,0.0,0.0,0.0,0.0,0.0,0.0,0.0,0.0,0.0,0.0,0.0,0.0,0.0,0.0,0.0,0.0,0.0,0.0,0.0,0.0,0.0,0.0,0.0,0.0,0.0,0.0,0.0,0.0,0.0,0.0,5.0545,5.5831,6.086,6.1484,5.7361,5.3104,4.9187,0.0,0.0,0.0,0.0,0.0,0.0,0.0,0.0,0.0,0.0,0.0,0.0,0.0,0.0,0.0,0.0,0.0,0.0,0.0,0.0,0.0,0.0,0.0,0.0,0.0,0.0,0.0,0.0,0.0,0.0,0.0,0.0,0.0,0.0,0.0,0.0,0.0,0.0,0.0,0.0,0.0,0.0,0.0,0.0,0.0,0.0,0.0,0.0,0.0,0.0,0.0,0.0,0.0,0.0,0.0,0.0,0.0,0.0,0.0,0.0,0.0,0.0,0.0,0.0,0.0,0.0,0.0,0.0,0.0,0.0,0.0,0.0,0.0,0.0,0.0,0.0,0.0,0.0,0.0,0.0,0.0,0.0,0.0,0.0,0.0,0.0,0.0,0.0,0.0,0.0,0.0,0.0,0.0,0.0,0.0,0.0,0.0,0.0,0.0,0.0,0.0,0.0,0.0,0.0,0.0,0.0,0.0,0.0,5.3518,5.8338,6.458,6.6366,6.3306,5.7923,5.3041,0.0,0.0,0.0,0.0,0.0,0.0,0.0,0.0,0.0,0.0,0.0,0.0,0.0,0.0,0.0,0.0,0.0,0.0,0.0,0.0,0.0,0.0,0.0,0.0,0.0,0.0,0.0,0.0,0.0,0.0,0.0,0.0,0.0,0.0,0.0,0.0,0.0,0.0,0.0,0.0,0.0,0.0,0.0,0.0,0.0,0.0,0.0,0.0,0.0,0.0,0.0,0.0,0.0,0.0,0.0,0.0,0.0,0.0,0.0,0.0,0.0,0.0,0.0,0.0,0.0,0.0,0.0,0.0,0.0,0.0,0.0,0.0,0.0,0.0,0.0,0.0,0.0,0.0,0.0,0.0,0.0,0.0,0.0,0.0,0.0,0.0,0.0,0.0,0.0,0.0,0.0,0.0,0.0,0.0,0.0,0.0,0.0,0.0,0.0,0.0,0.0,0.0,0.0,0.0,0.0,0.0,0.0,0.0,5.5978,6.075,6.5925,6.8017,6.6659,6.1777,5.6638,0.0,0.0,0.0,0.0,0.0,0.0,0.0,0.0,0.0,0.0,0.0,0.0,0.0,0.0,0.0,0.0,0.0,0.0,0.0,0.0,0.0,0.0,0.0,0.0,0.0,0.0,0.0,0.0,0.0,0.0,0.0,0.0,0.0,0.0,0.0,0.0,0.0,0.0,0.0,0.0,0.0,0.0,0.0,0.0,0.0,0.0,0.0,0.0,4.0846,0.0,0.0,0.0,0.0,0.0,0.0,0.0,0.0,0.0,0.0,0.0,0.0,0.0,0.0,0.0,0.0,0.0,0.0,0.0,0.0,0.0,0.0,0.0,0.0,0.0,0.0,0.0,0.0,0.0,0.0,0.0,0.0,0.0,0.0,0.0,0.0,0.0,0.0,0.0,0.0,0.0,0.0,0.0,0.0,0.0,0.0,0.0,0.0,0.0,0.0,0.0,0.0,0.0,0.0,0.0,0.0,0.0,0.0,0.0,5.8829,6.3282,6.771,6.9302,6.77,6.4824,6.0236,0.0,0.0,0.0,0.0,0.0,0.0,0.0,0.0,0.0,0.0,0.0,0.0,0.0,0.0,0.0,0.0,0.0,0.0,0.0,0.0,0.0,0.0,0.0,0.0,0.0,0.0,0.0,0.0,0.0,0.0,0.0,0.0,0.0,0.0,0.0,0.0,0.0,0.0,0.0,0.0,0.0,0.0,0.0,0.0,0.0,0.0,0.0,0.0,0.0,0.0,0.0,0.0,0.0,0.0,0.0,0.0,0.0,0.0,0.0,0.0,0.0,0.0,0.0,0.0,0.0,0.0,0.0,0.0,0.0,0.0,0.0,0.0,0.0,0.0,0.0,0.0,0.0,0.0,0.0,0.0,0.0,0.0,0.0,0.0,0.0,0.0,0.0,0.0,0.0,0.0,0.0,0.0,0.0,0.0,0.0,0.0,0.0,0.0,0.0,0.0,0.0,0.0,0.0,0.0,0.0,0.0,0.0,5.6602,6.1802,6.5618,6.9472,7.0316,6.7958,6.6733,6.2805,5.5842,0.0,0.0,0.0,0.0,0.0,0.0,0.0,0.0,0.0,0.0,0.0,0.0,0.0,0.0,0.0,0.0,0.0,0.0,0.0,0.0,0.0,0.0,0.0,0.0,0.0,0.0,0.0,0.0,0.0,0.0,0.0,0.0,0.0,0.0,0.0,0.0,0.0,0.0,3.7221,4.134,0.0,0.0,0.0,0.0,0.0,0.0,0.0,0.0,4.3873,0.0,0.0,0.0,0.0,0.0,0.0,0.0,0.0,0.0,0.0,0.0,0.0,0.0,0.0,0.0,0.0,0.0,0.0,0.0,0.0,0.0,0.0,0.0,0.0,0.0,0.0,0.0,0.0,0.0,0.0,0.0,0.0,0.0,0.0,0.0,0.0,0.0,0.0,0.0,0.0,0.0,0.0,0.0,0.0,0.0,0.0,0.0,0.0,0.0,0.0,0.0,0.0,0.0,0.0,0.0,0.0,5.2553,5.9648,6.4617,6.7297,7.0587,7.1138,6.8752,6.5962,6.1716,5.5805,0.0,0.0,0.0,0.0,0.0,0.0,0.0,0.0,0.0,0.0,0.0,0.0,0.0,0.0,0.0,0.0,0.0,0.0,0.0,0.0,0.0,0.0,0.0,0.0,0.0,0.0,0.0,0.0,0.0,0.0,0.0,0.0,0.0,0.0,0.0,0.0,0.0,0.0,0.0,4.5333,4.7452,0.0,0.0,0.0,0.0,0.0,0.0,0.0,0.0,4.4672,0.0,0.0,0.0,0.0,0.0,0.0,0.0,0.0,0.0,0.0,0.0,0.0,0.0,0.0,0.0,0.0,0.0,0.0,0.0,0.0,0.0,0.0,0.0,0.0,0.0,0.0,0.0,0.0,0.0,0.0,0.0,0.0,0.0,0.0,0.0,0.0,0.0,0.0,0.0,0.0,0.0,0.0,0.0,0.0,0.0,0.0,0.0,0.0,0.0,0.0,0.0,0.0,0.0,0.0,0.0,5.4976,6.1851,6.6512,6.8912,7.1284,7.0954,6.7724,6.4494,5.9758,0.0,0.0,0.0,0.0,0.0,0.0,0.0,0.0,0.0,0.0,0.0,0.0,0.0,0.0,0.0,0.0,0.0,0.0,0.0,0.0,0.0,0.0,0.0,0.0,0.0,0.0,0.0,0.0,0.0,0.0,0.0,0.0,0.0,0.0,0.0,0.0,0.0,0.0,0.0,0.0,4.8773,5.0829,5.0829,0.0,0.0,0.0,0.0,0.0,0.0,4.7545,4.6838,0.0,0.0,0.0,0.0,0.0,0.0,0.0,0.0,0.0,0.0,0.0,0.0,0.0,0.0,0.0,0.0,0.0,0.0,0.0,0.0,0.0,0.0,0.0,0.0,0.0,0.0,0.0,0.0,0.0,0.0,0.0,0.0,0.0,0.0,0.0,0.0,0.0,0.0,0.0,0.0,0.0,0.0,0.0,0.0,0.0,0.0,0.0,0.0,0.0,0.0,0.0,0.0,0.0,0.0,0.0,5.7178,6.3686,6.8054,7.0293,7.1762,7.066,6.6843,6.3405,5.8364,0.0,0.0,0.0,0.0,0.0,0.0,0.0,0.0,0.0,0.0,0.0,0.0,0.0,0.0,0.0,0.0,0.0,0.0,0.0,0.0,0.0,0.0,0.0,0.0,0.0,0.0,0.0,0.0,0.0,0.0,0.0,0.0,0.0,0.0,0.0,0.0,0.0,0.0,0.0,0.0,0.0,5.3985,5.4132,5.3482,0.0,0.0,0.0,0.0,4.9884,5.0472,0.0,0.0,0.0,0.0,0.0,0.0,0.0,0.0,0.0,0.0,0.0,0.0,0.0,0.0,0.0,0.0,0.0,0.0,0.0,0.0,0.0,0.0,0.0,0.0,0.0,0.0,0.0,0.0,0.0,0.0,0.0,0.0,0.0,0.0,0.0,0.0,0.0,0.0,0.0,0.0,0.0,0.0,0.0,0.0,0.0,0.0,0.0,0.0,0.0,0.0,0.0,0.0,0.0,0.0,0.0,0.0,5.8792,6.5325,6.9449,7.1087,7.2041,7.0917,6.7627,6.3699,5.8877,0.0,0.0,0.0,0.0,0.0,0.0,0.0,0.0,0.0,0.0,0.0,0.0,0.0,0.0,0.0,0.0,0.0,0.0,0.0,0.0,0.0,0.0,0.0,0.0,0.0,0.0,0.0,0.0,0.0,0.0,0.0,0.0,0.0,0.0,0.0,0.0,0.0,0.0,0.0,0.0,0.0,5.6627,5.7336,5.6785,5.6187,0.0,0.0,5.4887,5.4777,5.5427,0.0,0.0,0.0,0.0,0.0,0.0,0.0,0.0,0.0,0.0,0.0,0.0,0.0,0.0,0.0,0.0,0.0,0.0,0.0,0.0,0.0,0.0,0.0,0.0,0.0,0.0,0.0,0.0,0.0,0.0,0.0,0.0,0.0,0.0,0.0,0.0,0.0,0.0,0.0,0.0,0.0,0.0,0.0,0.0,0.0,0.0,0.0,0.0,0.0,0.0,0.0,0.0,0.0,0.0,0.0,5.1783,5.9783,6.6719,7.083,7.1967,7.3215,7.2092,6.8458,6.491,5.9722,0.0,0.0,0.0,0.0,0.0,0.0,0.0,0.0,0.0,0.0,0.0,0.0,0.0,0.0,0.0,0.0,0.0,0.0,0.0,0.0,0.0,0.0,0.0,0.0,0.0,0.0,0.0,0.0,0.0,0.0,0.0,0.0,0.0,0.0,0.0,0.0,0.0,0.0,0.0,0.0,0.0,0.0,6.0627,6.1215,0.0,0.0,0.0,5.9869,6.0358,0.0,0.0,0.0,0.0,0.0,0.0,0.0,0.0,0.0,0.0,0.0,0.0,0.0,0.0,0.0,0.0,0.0,0.0,0.0,0.0,0.0,0.0,0.0,0.0,0.0,0.0,0.0,0.0,0.0,0.0,0.0,0.0,0.0,0.0,0.0,0.0,0.0,0.0,0.0,0.0,0.0,0.0,0.0,0.0,0.0,0.0,0.0,0.0,0.0,0.0,0.0,0.0,0.0,0.0,0.0,0.0,0.0,6.1101,6.8181,7.2318,7.329,7.4491,7.34,6.9828,6.6784,0.0,0.0,0.0,0.0,0.0,0.0,0.0,0.0,0.0,0.0,0.0,0.0,0.0,0.0,0.0,0.0,0.0,0.0,0.0,0.0,0.0,0.0,0.0,0.0,0.0,0.0,0.0,3.2559,0.0,0.0,0.0,0.0,0.0,0.0,0.0,0.0,0.0,0.0,0.0,0.0,0.0,0.0,6.2733,6.392,6.5461,6.6072,0.0,0.0,6.5031,6.5228,6.5999,6.4714,0.0,0.0,0.0,0.0,0.0,0.0,0.0,0.0,0.0,0.0,0.0,0.0,0.0,0.0,0.0,0.0,0.0,0.0,0.0,0.0,0.0,0.0,0.0,0.0,0.0,0.0,0.0,0.0,0.0,0.0,0.0,0.0,0.0,0.0,0.0,0.0,0.0,0.0,0.0,0.0,0.0,0.0,0.0,0.0,0.0,0.0,0.0,0.0,0.0,0.0,0.0,0.0,0.0,0.0,0.0,6.3194,6.9855,7.4028,7.5514,7.5699,7.4548,7.2022,6.9546,6.5041,0.0,0.0,0.0,0.0,0.0,0.0,0.0,0.0,0.0,0.0,0.0,0.0,0.0,0.0,0.0,0.0,0.0,0.0,0.0,0.0,0.0,0.0,0.0,0.0,0.0,0.0,0.0,0.0,0.0,0.0,0.0,0.0,0.0,0.0,0.0,0.0,0.0,0.0,0.0,0.0,0.0,6.5041,6.725,6.8847,6.9743,0.0,0.0,7.0243,6.8811,6.9265,6.7614,6.13,0.0,0.0,0.0,0.0,0.0,0.0,0.0,0.0,0.0,0.0,0.0,0.0,0.0,0.0,0.0,0.0,0.0,0.0,0.0,0.0,0.0,0.0,0.0,0.0,0.0,0.0,0.0,0.0,0.0,0.0,0.0,0.0,0.0,0.0,0.0,0.0,0.0,0.0,0.0,0.0,0.0,0.0,0.0,0.0,0.0,0.0,0.0,0.0,0.0,0.0,0.0,0.0,0.0,5.6276,6.4535,7.2281,7.6776,7.7915,7.8928,7.8515,7.6624,7.4671,6.9985,0.0,0.0,0.0,0.0,0.0,0.0,0.0,0.0,0.0,0.0,0.0,0.0,0.0,0.0,0.0,0.0,0.0,0.0,0.0,0.0,0.0,0.0,0.0,0.0,0.0,0.0,0.0,0.0,3.8028,3.8638,3.9015,0.0,0.0,0.0,0.0,0.0,0.0,0.0,0.0,0.0,0.0,6.9224,7.1537,7.3372,0.0,0.0,7.5124,7.4793,7.4169,7.3083,7.0293,6.4383,5.9648,0.0,0.0,0.0,0.0,0.0,0.0,0.0,0.0,0.0,0.0,0.0,0.0,0.0,0.0,0.0,0.0,0.0,0.0,0.0,0.0,0.0,0.0,0.0,0.0,0.0,0.0,0.0,0.0,0.0,0.0,0.0,0.0,0.0,0.0,0.0,0.0,0.0,0.0,0.0,0.0,0.0,0.0,0.0,0.0,0.0,0.0,0.0,0.0,0.0,0.0,0.0,0.0,5.7522,6.5808,7.4071,7.8804,7.9924,8.1275,8.1199,7.9572,7.8155,7.3691,0.0,0.0,0.0,0.0,0.0,0.0,0.0,0.0,0.0,0.0,0.0,0.0,0.0,0.0,0.0,0.0,0.0,0.0,0.0,0.0,0.0,0.0,0.0,0.0,0.0,0.0,0.0,0.0,4.0267,4.0527,4.0409,0.0,0.0,0.0,0.0,0.0,0.0,0.0,0.0,0.0,0.0,7.241,7.4913,7.7234,7.8823,7.9154,7.9154,7.8623,7.7333,7.55,7.2358,6.7011,0.0,0.0,0.0,0.0,0.0,0.0,0.0,0.0,0.0,0.0,0.0,0.0,0.0,0.0,0.0,0.0,0.0,0.0,0.0,0.0,0.0,0.0,0.0,0.0,0.0,0.0,0.0,0.0,0.0,0.0,4.1574,0.0,0.0,0.0,0.0,0.0,0.0,0.0,0.0,0.0,0.0,0.0,0.0,0.0,0.0,0.0,0.0,0.0,0.0,0.0,0.0,0.0,0.0,5.8819,6.719,7.499,7.972,8.1347,8.2157,8.1862,8.0215,7.9311,7.5589,6.8619,0.0,0.0,0.0,0.0,0.0,0.0,0.0,0.0,0.0,0.0,0.0,0.0,0.0,0.0,0.0,0.0,0.0,0.0,0.0,0.0,0.0,0.0,0.0,0.0,0.0,0.0,4.2148,4.2258,4.1957,0.0,0.0,0.0,0.0,0.0,0.0,0.0,0.0,0.0,0.0,6.9313,7.3995,7.7117,7.9979,8.1537,8.0868,8.202,8.1591,7.7515,7.599,7.3725,0.0,0.0,0.0,0.0,0.0,0.0,0.0,0.0,0.0,0.0,0.0,0.0,0.0,0.0,0.0,0.0,0.0,0.0,0.0,0.0,0.0,0.0,0.0,0.0,0.0,0.0,0.0,4.9405,4.8384,0.0,0.0,0.0,0.0,0.0,0.0,0.0,0.0,0.0,0.0,0.0,6.4027,6.3548,0.0,0.0,0.0,0.0,0.0,0.0,0.0,0.0,0.0,0.0,0.0,0.0,6.1017,6.9387,7.719,8.199,8.3677,8.4521,8.4406,8.3332,8.2459,7.765,6.8422,0.0,0.0,0.0,0.0,0.0,0.0,0.0,0.0,0.0,0.0,0.0,0.0,0.0,0.0,0.0,0.0,0.0,0.0,0.0,0.0,0.0,0.0,0.0,0.0,0.0,4.3984,0.0,0.0,0.0,0.0,0.0,0.0,0.0,0.0,0.0,0.0,0.0,6.2963,6.851,7.3573,7.7699,8.0364,8.2736,8.4298,0.0,0.0,0.0,0.0,0.0,0.0,0.0,0.0,0.0,0.0,0.0,0.0,0.0,0.0,7.1396,6.7063,6.5716,6.4891,6.37,0.0,0.0,0.0,0.0,0.0,0.0,0.0,0.0,0.0,0.0,0.0,0.0,0.0,0.0,5.6653,0.0,5.4065,0.0,0.0,0.0,0.0,0.0,0.0,0.0,0.0,6.9538,7.1801,7.2304,7.1917,7.1941,0.0,7.1281,6.6744,0.0,0.0,0.0,0.0,0.0,0.0,0.0,0.0,6.2897,7.1013,7.8485,8.3131,8.4816,8.5709,8.5709,8.4893,8.2877,7.813,7.0402,6.4231,5.8348,0.0,0.0,0.0,0.0,0.0,0.0,0.0,0.0,0.0,0.0,0.0,0.0,0.0,0.0,0.0,0.0,0.0,0.0,0.0,0.0,0.0,0.0,0.0,4.7004,0.0,0.0,0.0,0.0,0.0,0.0,0.0,0.0,0.0,6.0332,6.4067,6.8556,7.3314,7.7328,8.0677,8.3088,0.0,0.0,0.0,0.0,0.0,0.0,0.0,7.6581,7.4818,7.4052,7.4263,7.6096,7.8372,8.0373,8.166,0.0,0.0,7.6812,7.5386,7.4702,7.3535,7.3136,7.2892,7.2522,7.3555,7.478,0.0,0.0,0.0,0.0,0.0,0.0,0.0,0.0,6.4031,6.3947,0.0,6.0623,0.0,0.0,0.0,0.0,0.0,6.2512,0.0,0.0,7.7092,7.9931,7.9969,8.07,8.07,7.9931,7.8977,7.7169,7.4161,6.4045,0.0,0.0,0.0,0.0,0.0,0.0,6.4576,7.216,7.8992,8.3247,8.4893,8.5701,8.5747,8.4893,8.0876,7.7446,7.4611,6.9802,6.4803,5.9683,5.6224,0.0,0.0,0.0,0.0,0.0,0.0,0.0,0.0,0.0,0.0,0.0,0.0,0.0,0.0,0.0,0.0,0.0,0.0,0.0,0.0,5.1187,0.0,0.0,0.0,0.0,0.0,0.0,0.0,0.0,0.0,0.0,6.6382,6.9636,7.3721,7.7903,0.0,0.0,0.0,0.0,8.8711,8.7911,8.9168,8.8976,8.5542,8.3337,8.1814,8.1214,0.0,0.0,8.5093,8.6485,8.7245,8.7294,8.8901,8.9335,8.6915,8.5258,8.414,8.3152,8.2614,8.2579,8.2368,8.2612,8.3724,7.5845,0.0,0.0,0.0,0.0,7.0314,7.2104,7.3675,7.3637,7.2951,7.1741,6.978,0.0,0.0,0.0,0.0,0.0,0.0,7.2629,7.7361,8.09,8.3131,8.4286,8.3978,8.3662,8.3393,8.2554,8.1177,7.9092,7.4284,6.7552,5.9231,0.0,0.0,0.0,0.0,6.8442,7.48,8.1008,8.467,8.5747,8.5978,8.5978,8.5747,8.3385,8.1169,7.9215,7.5456,7.1028,6.5974,6.2478,0.0,0.0,0.0,0.0,0.0,0.0,0.0,0.0,0.0,0.0,0.0,0.0,0.0,0.0,0.0,0.0,0.0,0.0,0.0,5.6269,5.7701,5.7465,0.0,0.0,0.0,0.0,0.0,0.0,0.0,0.0,0.0,7.7316,7.8008,7.933,0.0,0.0,8.6282,8.76,8.9897,9.1356,9.1126,0.0,0.0,0.0,8.7947,8.7144,8.7574,8.9675,9.2143,9.4493,9.5156,9.5349,9.5339,9.5838,9.5952,9.5125,9.136,8.8612,8.8395,8.8313,8.8339,8.8754,8.9399,9.0072,8.6757,7.9654,7.7807,7.7233,7.7731,7.9675,8.1713,8.3542,8.3197,8.247,8.133,7.8467,7.4949,7.1028,6.8995,0.0,0.0,0.0,7.84,8.2393,8.5286,8.7325,8.8556,8.8171,8.7748,8.7355,8.6209,8.4755,8.3054,8.087,7.6214,6.9052,0.0,0.0,6.3551,6.725,7.186,7.7438,8.2708,8.5585,8.6094,8.6094,8.6094,8.6055,8.4824,8.3324,8.1593,7.8977,7.5476,7.1084,6.7581,6.311,0.0,0.0,0.0,0.0,0.0,0.0,0.0,0.0,0.0,0.0,0.0,4.322,0.0,0.0,0.0,0.0,5.4399,5.8272,6.1833,6.335,0.0,0.0,0.0,0.0,0.0,0.0,0.0,7.3272,7.8885,8.3255,8.5093,8.6055,8.6632,8.6594,8.8479,9.021,9.1103,0.0,9.4018,9.4018,9.4672,9.4665,9.3179,9.2005,9.1535,9.2355,9.4627,9.6853,9.8442,9.8788,9.8788,9.8788,9.8788,9.8788,9.8788,9.5741,9.3456,9.3803,9.3849,9.4038,9.4777,9.5051,9.5194,9.5127,9.2633,8.7132,8.5132,8.5816,8.8179,9.0556,9.271,9.1894,9.1556,9.1133,8.6448,8.2824,8.0046,7.62,0.0,7.813,8.1362,8.4132,8.6632,8.9825,9.1748,9.2595,9.2556,9.2095,9.1133,8.9556,8.7902,8.6132,8.4478,8.2485,7.9939,7.1437,6.8205,7.0283,7.1975,7.5168,7.9969,8.4093,8.6201,8.6209,8.6209,8.617,8.6094,8.5401,8.417,8.2477,8.09,7.8546,7.5238,7.1919,6.7777,6.2669,0.0,0.0,0.0,0.0,0.0,0.0,0.0,0.0,0.0,0.0,0.0,0.0,0.0,0.0,0.0,6.0006,0.0,6.7481,6.8629,0.0,0.0,0.0,6.5737,6.9045,7.3046,7.6815,8.0123,0.0,0.0,9.0316,0.0,9.445,9.221,9.3172,9.4412,9.5181,9.6019,9.6596,9.6596,9.7288,9.7481,9.6626,9.571,9.5379,9.6069,9.7045,9.8106,9.8923,9.9096,9.9019,9.9096,9.9019,9.9067,9.9019,9.8865,9.8981,9.8779,9.8779,9.901,9.9606,9.925,9.8971,9.8817,9.8144,9.6066,9.3787,9.1748,9.295,9.421,9.5365,9.5172,9.4711,9.3912,9.1488,8.8248,8.4516,8.2901,8.2862,8.4132,8.6209,8.8171,9.0017,9.1518,9.2595,9.3403,9.3403,9.2633,9.121,9.0133,8.8748,8.7055,8.5401,8.3939,8.2554,7.9208,7.6823,7.5592,7.7169,7.9208,8.1708,8.5247,8.7094,8.7094,8.7094,8.6786,8.6132,8.5901,8.5016,8.337,8.2901,8.1439,7.87,7.5962,7.244,6.8005,6.2591,0.0,0.0,0.0,0.0,0.0,0.0,0.0,0.0,0.0,5.0745,5.4313,0.0,5.8127,0.0,6.5513,7.0129,7.2629,7.4822,0.0,0.0,7.4707,7.5053,7.7784,8.0708,8.3555,8.6247,9.0103,9.3095,9.4595,9.6596,9.7951,9.7942,9.775,9.7673,9.7913,9.8634,9.9183,9.9259,9.9865,10.0317,10.0057,9.9874,9.9681,9.996,10.0182,10.0452,10.0664,10.0712,10.0712,10.0702,10.0712,10.0712,10.0712,10.0712,10.0712,10.0673,10.0212,10.0067,10.0827,10.0827,10.075,10.1799,10.176,10.126,9.9981,9.8182,9.7567,9.775,9.8481,9.8134,9.7721,9.7182,9.5441,9.2979,9.0094,8.9594,8.944,8.9594,9.0872,9.1988,9.2903,9.3787,9.4441,9.4864,9.4864,9.398,9.2287,9.1047,8.9633,8.7987,8.6632,8.5786,8.5294,8.4755,8.3785,8.2408,8.14,8.1939,8.3978,8.6594,8.8132,8.8479,8.7786,8.7171,8.6671,8.5931,8.4747,8.3093,8.3016,8.2016,7.9854,7.7746,7.5014,7.1514,6.6128,6.0589,0.0,0.0,0.0,0.0,0.0,0.0,0.0,0.0,0.0,0.0,0.0,6.4474,6.6974,7.0821,7.4361,7.7284,8.0169,8.2016,8.2408,8.2747,8.3632,8.5401,8.7863,9.0094,9.1864,9.472,9.6913,9.7904,9.9096,10.0096,10.0558,10.025,10.0058,10.0442,10.0904,10.1337,10.176,10.2174,10.2443,10.2443,10.2443,10.2443,10.2443,10.2443,10.2443,10.2443,10.2481,10.2481,10.2481,10.2443,10.2481,10.2443,10.2443,10.2443,10.2404,10.2135,10.1712,10.1356,10.1279,10.1279,10.3905,10.3905,10.3905,10.3905,10.3712,10.1529,10.0904,10.1404,10.0712,10.0298,10.0029,9.8481,9.6903,9.5335,9.522,9.4681,9.3912,9.4527,9.4874,9.5027,9.5788,9.6211,9.6288,9.6288,9.5365,9.3672,9.1979,9.0364,8.8872,8.7863,8.744,8.7594,8.8333,8.8679,8.8526,8.4978,8.4247,8.6555,8.8102,8.9171,8.9855,8.8402,8.7478,8.7171,8.5593,8.3862,8.2093,8.1977,8.1246,7.9708,7.8246,7.6361,7.3892,6.9206,6.432,0.0,5.7588,0.0,0.0,0.0,0.0,0.0,0.0,0.0,0.0,6.8199,7.0898,7.4199,7.5976,7.8323,8.1593,8.4824,8.7132,8.8132,8.9517,9.074,9.1787,9.3903,9.5643,9.6519,9.8682,10.0144,10.0375,10.1058,10.1471,10.1664,10.1673,10.1943,10.2674,10.2674,10.2751,10.3751,10.3905,10.3674,10.3712,10.3789,10.3789,10.3828,10.3751,10.3905,10.3789,10.3789,10.3828,10.3828,10.3751,10.3789,10.3905,10.3828,10.3828,10.3751,10.3712,10.3289,10.2135,10.1789,10.1625,10.3905,10.3905,10.3905,10.3905,10.3866,10.3376,10.2866,10.2327,10.2212,10.1366,10.0106,9.976,9.8634,9.7019,9.6326,9.5595,9.472,9.4172,9.4335,9.4989,9.5181,9.5634,9.6288,9.6288,9.5403,9.3672,9.2018,9.0663,8.9663,8.8132,8.7748,8.8449,8.8603,8.8679,8.8679,0.0,0.0,0.0,8.9509,8.9739,8.9855,8.894,8.7786,8.6363,8.4709,0.0,8.0431,8.0285,7.9823,7.8792,7.8446,0.0,0.0,0.0,0.0,0.0,0.0,0.0,0.0,0.0,0.0,0.0,7.5245,7.5353,7.4014,7.4938,7.6746,7.94,8.117,8.3255,8.594,8.8632,9.0864,9.2326,9.2787,9.3595,9.5134,9.6365,9.7365,9.8211,9.9375,10.0644,10.1866,10.2289,10.2597,10.3174,10.3405,10.3751,10.4443,10.3443,10.2981,10.3712,10.402,10.3943,10.3905,10.3943,10.4059,10.3905,10.3905,10.3943,10.3982,10.3943,10.3943,10.3943,10.3905,10.3943,10.3943,10.3905,10.3982,10.3905,10.3905,10.3789,10.3482,10.3405,10.3405,10.5136,0.0,10.5136,10.5136,0.0,10.5136,10.4636,10.3789,10.2943,10.1904,10.0712,10.0673,9.975,9.8057,9.6865,9.5595,9.4296,9.3018,9.2941,9.3796,9.4604,9.522,9.5681,9.6519,9.598,9.4296,9.2633,9.1633,9.1133,8.9902,8.971,9.0565,9.0988,9.118,9.118,9.1171,9.0748,8.9893,9.0316,9.0547,9.0509,8.971,8.8671,8.7401,0.0,0.0,0.0,0.0,0.0,0.0,0.0,0.0,0.0,0.0,0.0,7.0437,6.9391,6.9314,7.0244,7.2629,7.6053,8.0631,8.3747,8.417,8.1208,8.1785,8.317,8.5277,8.6978,8.8679,9.0364,9.2787,9.4634,9.548,9.6326,9.7259,9.8057,9.8904,9.9519,9.9942,10.0442,10.1173,10.2443,10.2597,10.2943,10.3712,10.3905,10.4212,10.4828,10.4405,10.4174,10.4982,10.5136,10.5136,10.5136,10.5136,10.5097,10.5136,10.5136,10.5136,10.5136,10.5136,10.5136,10.5136,10.5136,10.5136,10.5136,10.5136,10.5136,10.5136,10.5136,10.5136,10.5097,10.4482,10.3905,10.6395,10.6395,10.6395,10.6395,10.6395,10.6395,10.5905,10.4982,0.0,0.0,0.0,10.1587,10.0596,9.8952,9.725,9.5557,9.3873,9.2326,9.2133,9.3018,9.4527,9.5297,9.5528,9.7019,9.6865,9.5181,9.3681,9.2864,9.2672,9.1825,9.1864,9.271,9.3364,9.3672,9.3672,9.3672,9.2672,9.0701,9.1287,9.1633,9.1633,9.0671,8.9748,8.8949,8.7094,8.4978,8.2631,8.3216,8.2986,8.167,8.2324,8.2477,8.1785,8.0408,7.9023,7.7669,7.7053,7.7476,7.9215,8.0062,8.2516,8.7132,9.0441,9.0825,8.7286,8.7786,8.894,9.0432,9.2172,9.348,9.4326,9.6365,9.7788,9.7942,9.925,10.0144,10.0529,10.1096,10.151,10.1712,10.1779,10.2097,10.2981,10.3135,10.3366,10.4135,10.4482,10.4559,10.5136,10.5328,10.5482,10.6097,10.6164,10.628,10.6356,10.628,10.6395,10.6241,10.628,10.6395,10.6395,10.6395,10.6395,10.6241,10.6395,10.6318,10.6356,10.628,10.6395,10.6395,10.6395,10.6395,10.628,10.5328,10.4443,10.6395,10.6395,10.6395,10.6395,10.6395,10.6395,10.5905,10.502,10.4107,10.3635,10.3482,10.2751,10.1481,9.9837,9.8096,9.6403,9.4797,9.3796,9.3826,0.0,9.5672,9.648,9.7173,9.8134,9.775,9.6134,9.5095,9.4258,9.3518,9.2749,9.271,9.348,9.3633,9.371,9.3672,9.3672,9.3518,9.3172,9.3287,9.3326,9.3326,9.1825,9.0594,8.9701,8.744,8.5286,8.3524,8.3601,8.3486,8.3293,8.4093,8.4478,8.4401,8.4124,8.3901,8.37,8.417,8.5247,8.6948,8.7863,8.9547,9.2402,9.5095,9.4903,9.0941,9.1287,9.2172,9.3133,9.4788,9.6095,9.6942,9.798,9.8942,9.9567,9.9952,10.0644,10.1943,10.2251,10.2635,10.3289,10.352,10.3789,10.4443,10.4636,10.4905,10.5751,10.579,10.602,10.6097,10.6213,10.6241,10.6356,10.6395,10.6395,10.6395,10.6395,10.6395,10.6395,10.6395,10.6395,10.6395,10.6395,10.6395,10.6395,10.6395,10.6395,10.6395,10.6395,10.6395,10.6395,10.6395,10.6395,10.6395,10.6097,10.5972,10.6395,10.6395,10.6395,10.6395,10.6395,10.6395,10.6174,10.579,10.5405,10.4713,10.3828,10.2981,10.1904,10.0596,9.8481,9.6865,9.5672,9.4326,9.4181,9.5066,9.6365,9.7134,9.7596,9.8865,9.8827,9.7673,9.6788,9.6134,9.5711,9.4941,9.4749,9.5095,9.5134,9.5134,9.5095,9.5095,9.5095,9.5095,9.4172,9.3672,9.3672,9.2979,9.2172,9.1325,9.0133,8.8748,8.7094,8.7478,8.7517,8.7017,8.7863,8.8325,8.8325,8.8316,8.8316,8.8316,8.8662,8.944,9.0671,9.2402,9.3855,9.5057,9.7019,9.7442,9.5518,9.5672,9.6057,9.6489,9.7634,9.8481,9.8904,9.9673,10.0327,10.0712,10.075,10.125,10.2327,10.2597,10.2943,10.3712,10.3905,10.4212,10.4982,10.5107,10.5443,10.6203,10.6395,10.6395,10.6395,10.6395,10.6395,10.6395,10.6395,10.6395,10.6395,10.6395,10.6395,10.6395,10.6395,10.6395,10.6395,10.6395,10.6395,10.6395,10.6395,10.6395,10.6395,10.6395,10.6395,10.6395,10.6395,10.6395,10.6433,10.6751,10.6944,10.6395,10.6395,10.6395,10.6395,10.6395,10.6395,10.6395,10.6395,10.6395,10.5674,10.4443,10.3558,10.2674,10.1702,9.9596,9.8211,9.7326,9.6019,9.5797,9.6519,9.775,9.8365,9.8481,9.9788,9.9952,9.9096,9.8404,9.798,9.775,9.7173,9.6749,9.6596,9.6596,9.648,9.6288,9.6288,9.6288,9.6211,9.498,9.4287,9.4287,9.4104,9.3749,9.3364,9.2941,9.2326,9.1432,9.1825,9.1825,9.1432,9.1979,9.2364,9.2364,9.2364,9.2441,9.2595,9.2595,9.3018,9.3941,9.5903,9.7134,9.7173,9.8519,9.9365,9.9365,9.9365,9.9365,9.9442,10.0096,10.0721,10.1029,10.152,10.1856,10.1904,10.1894,10.2327,10.302,10.3174,10.352,10.4289,10.4482,10.4751,10.5213,10.5405,10.5674,10.6251,10.6395,10.6395,10.6395,10.6395,10.6395,10.6395,10.6395,10.6395,10.6395,10.6395,10.6395,10.6395,10.6395,10.6395,10.6395,10.6395,10.6395,10.6395,10.6395,10.6395,10.6395,10.6395,10.6395,10.6395,10.6395,10.6395,10.6433,10.7098,10.7328,10.6433,10.6395,10.6472,10.6395,10.6433,10.6433,10.6433,10.6395,10.6395,10.6318,10.602,10.5251,10.4405,10.3597,10.252,10.152,10.0779,10.0664,10.0558,10.0596,10.0856,10.0933,10.0856,10.1087,10.075,10.0029,9.9837,9.9336,9.8711,9.8557,9.8134,9.748,9.7365,9.7019,9.6403,9.6288,9.6288,9.6326,9.6134,9.6057,9.6019,9.5297,9.5211,9.5942,9.4403,9.4287,9.5471,9.5018,9.4989,9.5634,9.5711,9.5788,9.5788,9.5788,9.6125,9.6788,9.6865,9.7288,9.8134,9.9144,9.9683,9.9788,10.0558,10.1058,10.1058,10.1048,10.1096,10.125,10.1866,10.252,10.3443,10.352,10.3482,10.3405,10.3482,10.3982,10.4559,10.4876,10.5213,10.6097,10.5972,10.6203,10.6136,10.6174,10.6241,10.6356,10.6395,10.6395,10.6395,10.6395,10.6395,10.6395,10.6395,10.6395,10.6395,10.6395,10.6395,10.6395,10.6395,10.6395,10.6395,10.6395,10.6395,10.6395,10.6395,10.6395,10.6395,10.6395,10.6395,10.6395,10.6395,10.6395,10.6472,10.7087,10.728,10.7867,10.7867,10.7867,10.7598,10.7213,10.7175,10.6867,10.6395,10.6395,10.6395,10.6356,10.602,10.5405,10.4559,10.3751,10.3135,10.2828,10.2866,10.2828,10.2789,10.2327,10.2097,10.201,10.151,10.1096,10.0789,10.0337,9.9913,9.9529,9.9067,9.8365,9.7596,9.7519,9.7096,9.6365,9.6288,9.6519,9.7019,9.7019,9.725,9.7557,9.6442,9.6172,9.6865,9.6326,9.648,9.7596,9.7413,9.7403,9.775,9.7788,9.7788,9.7788,9.7788,9.7904,9.825,9.825,9.8442,9.8788,10.0058,10.0789,10.0827,10.2058,10.2828,10.2828,10.2828,10.302,10.3405,10.2981,10.2943,10.3751,10.3905,10.3905,10.3905,10.3905,10.4251,10.503,10.5146,10.5443,10.6241,10.6395,10.6395,10.6395,10.6395,10.6395,10.6395,10.6395,10.6395,10.6395,10.6395,10.6395,10.6395,10.6395,10.6395,10.6395,10.6395,10.6395,10.6395,10.6395,10.6395,10.6395,10.6395,10.6395,10.6395,10.6395,10.6395,10.6395,10.6395,10.6395,10.6395,10.6395,10.6395,10.6395,10.7087,10.7213,10.8906,10.8906,10.8906,10.8559,10.8021,10.779,10.7367,10.6751,10.651,10.6395,10.6395,10.6395,10.6059,10.5443,10.4828,10.4597,10.4597,10.4559,10.4597,10.4482,10.3674,10.3289,10.3212,10.2404,10.1894,10.1597,10.1096,10.0683,10.0404,9.9827,9.9058,9.8327,9.8211,9.7788,9.7096,9.698,9.725,9.7788,9.7865,9.8173,9.8519,9.7596,9.7365,9.8096,9.798,9.8365,9.9404,9.925,9.9259,9.9442,9.9481,9.9481,9.9481,9.9481,9.9481,9.9481,9.9481,9.9596,9.9827,10.0981,10.1741,10.2097,10.3251,10.3905,10.3905,10.3905,10.4251,10.4828,10.3982,10.3712,10.4405,10.4597,10.4597,10.4597,10.4751,10.5213,10.5751,10.5944,10.6444,10.6982,10.7251,10.6982,10.679,10.6587,10.6395,10.6395,10.6395,10.6395,10.6395,10.6395,10.6395,10.6395,10.6395,10.6395,10.6395,10.6395,10.6395,10.6395,10.6395,10.6395,10.6395,10.6395,10.6395,10.6395,10.6395,10.6395,10.6395,10.6395,10.6395,10.6395,10.6395,10.6395,10.6395,10.7136,10.7328,10.8906,10.8944,10.8906,10.8944,10.879,10.8098,10.7713,10.7598,10.6828,10.6433,10.651,10.6472,10.6444,10.6395,10.6318,10.629,10.6241,10.6164,10.6126,10.6059,10.5251,10.4953,10.4943,10.4174,10.3328,10.2597,10.2366,10.1904,10.125,10.1135,10.0789,9.9952,9.9837,9.949,9.8673,9.8519,9.8673,9.8711,9.875,9.8788,9.8865,9.875,9.9096,9.976,9.9173,9.9481,10.0827,10.0442,10.0366,10.1125,10.1125,10.1125,10.1164,10.1164,10.1202,10.1202,10.1202,10.1558,10.2212,10.2481,10.2904,10.3635,10.402,10.402,10.4251,10.4366,10.4713,10.5136,10.5251,10.5443,10.6136,10.6097,10.6097,10.6251,10.6944,10.7328,10.7521,10.7982,10.8636,10.8675,10.8559,10.8252,10.7713,10.6895,10.6664,10.6587,10.6472,10.6549,10.6626,10.6549,10.6472,10.6472,10.6433,10.6395,10.6395,10.6395,10.6395,10.6395,10.6395,10.6395,10.6395,10.6395,10.6395,10.6395,10.6395,10.6395,10.6395,10.6395,10.6395,10.6395,10.6395,10.6395,10.6395,10.7087,10.729,11.056,11.056,11.056,11.0252,10.9713,10.9406,10.8983,10.8444,10.8136,10.7982,10.8021,10.7982,10.8021,10.7982,10.7982,10.7405,10.6433,10.6395,10.6395,10.629,10.5482,10.5107,10.502,10.4289,10.3751,10.3405,10.2866,10.2135,10.1394,10.1279,10.0904,10.0221,10.0106,9.9644,9.8942,9.8788,9.9067,9.9606,9.9644,9.9865,10.0366,10.0404,10.0558,10.0789,10.0058,10.0135,10.1241,10.1019,10.1019,10.1279,10.1827,10.2135,10.2174,10.2674,10.2943,10.2943,10.2981,10.3097,10.3443,10.3905,10.4328,10.4674,10.5713,10.629,10.6405,10.679,10.7213,10.7444,10.7521,10.7713,10.7636,10.7049,10.6626,10.7175,10.7521,10.7982,10.8367,10.8713,10.8906,10.8906,10.8906,10.8752,10.8521,10.8175,10.8021,10.8021,10.8021,10.7944,10.7905,10.7598,10.7251,10.7087,10.6741,10.6395,10.6395,10.6395,10.6395,10.6395,10.6395,10.6395,10.6395,10.6395,10.6395,10.6395,10.6395,10.6395,10.6395,10.6395,10.6395,10.6395,10.6395,10.6395,10.6395,10.6856,10.6933,11.1511,11.1511,11.1511,11.1175,11.0637,11.0301,10.9878,10.929,10.9021,10.8906,10.8906,10.8906,10.8906,10.8906,10.8906,10.8175,10.6895,10.6818,10.6664,10.6356,10.579,10.552,10.5443,10.4982,10.4559,10.4174,10.3443,10.2712,10.2212,10.2135,10.1866,10.1375,10.1337,10.1068,10.0519,10.0442,10.0789,10.126,10.1337,10.1635,10.2097,10.2135,10.2135,10.2058,10.1597,10.1289,10.1317,10.1279,10.1279,10.1394,10.2135,10.2712,10.3058,10.3597,10.3905,10.3905,10.3866,10.402,10.4289,10.48,10.5338,10.5905,10.6944,10.7752,10.8098,10.8598,10.8867,10.8906,10.8906,10.8906,10.8713,10.7867,10.7444,10.8021,10.8329,10.8713,10.9252,10.956,10.9752,10.979,10.956,10.9367,10.929,10.9021,10.8867,10.8906,10.8906,10.8906,10.879,10.8482,10.7944,10.7713,10.7251,10.6741,10.651,10.6433,10.6433,10.6433,10.6395,10.6395,10.6395,10.6395,10.6395,10.6395,10.6395,10.6395,10.6395,10.6395,10.6395,10.6395,10.6395,10.6395,10.6395,10.6395,10.6587,11.1511,11.1511,11.1511,11.1472,11.128,11.0637,11.0252,11.0098,10.9406,10.9213,10.9252,10.906,10.9175,10.906,10.9213,10.8559,10.7944,10.7752,10.7213,10.6444,10.6318,10.628,10.6241,10.6164,10.5674,10.4982,10.4251,10.3866,10.3674,10.3635,10.3597,10.3751,10.352,10.3366,10.3712,10.3366,10.3597,10.3558,10.3482,10.3674,10.3866,10.3674,10.3635,10.3712,10.3635,10.2904,10.151,10.1433,10.1548,10.1597,10.2327,10.3058,10.3866,10.4097,10.402,10.4135,10.402,10.4405,10.5069,10.5328,10.6251,10.7251,10.7752,10.8252,10.8829,10.906,10.9175,10.9213,10.9175,10.906,10.9136,10.8983,10.8906,10.8944,10.9483,10.9944,11.0291,11.0944,11.1434,11.1242,11.0637,11.0252,11.0021,10.9675,10.9329,10.929,10.9252,10.9252,10.929,10.9098,10.8598,10.8098,10.779,10.7521,10.6982,10.6433,10.651,10.651,10.6433,10.6395,10.6395,10.6395,10.6395,10.6395,10.6395,10.6395,10.6395,10.6395,10.6395,10.6395,10.6395,10.6433,10.6395,10.6395,10.651,11.1511,11.1511,11.1511,11.1511,11.1472,11.1175,11.1098,11.1098,11.0791,11.0714,11.0665,11.0675,11.0675,11.0675,11.0675,11.0214,10.9406,10.879,10.779,10.6626,10.6395,10.6395,10.6395,10.6395,10.5944,10.5213,10.4866,10.4443,10.402,10.3943,10.3905,10.3905,10.3905,10.3905,10.3943,10.3905,10.3905,10.3905,10.3905,10.3905,10.3905,10.3905,10.3905,10.3905,10.3905,10.3597,10.3135,10.3097,10.3097,10.3097,10.3866,10.4713,10.5405,10.5636,10.5636,10.5713,10.6213,10.6597,10.6905,10.7367,10.7829,10.8521,10.9021,10.9483,10.9829,11.0329,11.0598,11.0675,11.0703,11.0675,11.0675,11.0675,11.0406,10.9829,11.0032,11.0483,11.0944,11.128,11.1472,11.1472,11.1252,11.1098,11.106,11.0703,11.056,11.056,11.0598,11.0588,11.056,11.006,10.979,10.9444,10.8983,10.8406,10.7905,10.7598,10.7636,10.7405,10.7136,10.6944,10.6828,10.6741,10.6703,10.6664,10.6626,10.6587,10.6549,10.6587,10.6703,10.6587,10.6626,10.6549,10.6433,10.6587,10.6944,11.1511,11.1511,11.1511,11.1511,11.1511,11.1511,11.1511,11.1511,11.1511,11.1511,11.1511,11.1511,11.1511,11.1511,11.1511,11.1021,11.0186,10.9598,10.8636,10.7328,10.6587,10.6395,10.6395,10.6395,10.6136,10.5713,10.5597,10.5328,10.4866,10.4828,10.4828,10.4828,10.4828,10.4866,10.4828,10.4828,10.4828,10.4828,10.4828,10.4828,10.4828,10.4828,10.4982,10.5251,10.5328,10.5443,10.5713,10.5751,10.5174,10.4338,10.4684,10.5482,10.628,10.6356,10.651,10.6944,10.7367,10.779,10.8136,10.8482,10.906,10.9406,10.9867,11.0329,11.0675,11.1291,11.1472,11.1511,11.1472,11.1511,11.1472,11.1511,11.1252,11.0752,11.0675,11.0944,11.1434,11.1511,11.1511,11.1511,11.1472,11.1511,11.1511,11.1511,11.1511,11.1511,11.1511,11.1511,11.1395,11.1021,11.0675,11.0291,10.9752,10.9252,10.8906,10.879,10.879,10.8444,10.8021,10.7867,10.7713,10.7752,10.7713,10.7752,10.7713,10.7752,10.7752,10.7636,10.7675,10.7367,10.7175,10.7482,10.7675,10.7598,10.7867,11.1511,11.1511,11.1511,11.1511,11.1511,11.1511,11.1511,11.1511,11.1511,11.1511,11.1511,11.1511,11.1511,11.1511,11.1511,11.1098,11.0367,11.0137,10.9675,10.8636,10.7521,10.678,10.6818,10.6828,10.679,10.6674,10.651,10.6433,10.6318,10.6213,10.6395,10.6164,10.6126,10.6318,10.6164,10.6328,10.6203,10.6126,10.6241,10.6213,10.6251,10.6395,10.6703,10.7444,10.7559,10.7829,10.829,10.8329,10.7175,10.4789,10.53,10.602,10.6472,10.6549,10.7059,10.7752,10.7829,10.8329,10.879,10.9213,10.956,11.0214,11.0367,11.0598,11.1291,11.1434,11.1511,11.1511,11.1511,11.1511,11.1511,11.1511,11.1472,11.1472,11.1357,11.1434,11.1472,11.1511,11.1511,11.1511,11.1511,11.1511,11.1511,11.1511,11.1511,11.1511,11.1511,11.1511,11.1511,11.128,11.106,11.0714,11.0367,11.0175,10.9867,10.9867,10.9867,10.9752,10.929,10.8906,10.8559,10.8444,10.8444,10.8521,10.8675,10.879,10.8713,10.8444,10.8406,10.829,10.8406,10.879,10.8752,10.8482,10.8636,11.1511,11.1511,11.1511,11.1511,11.1511,11.1511,11.1511,11.1511,11.1511,11.1511,11.1511,11.1511,11.1511,11.1511,11.1511,11.1357,11.1021,11.0483,11.0137,10.9713,10.879,10.829,10.8252,10.8213,10.8175,10.8098,10.7598,10.7367,10.729,10.6741,10.6433,10.6395,10.6472,10.6433,10.6395,10.6472,10.6395,10.6395,10.6433,10.6472,10.6549,10.7098,10.7444,10.7675,10.829,10.8675,10.8906,10.8906,10.8636,10.779,10.7752,10.7982,10.8098,10.8136,10.8252,10.8559,10.9175,10.9598,10.9906,11.0483,11.0906,11.1098,11.1252,11.128,11.1472,11.1511,11.1511,11.1511,11.1511,11.1549,11.1549,11.1588,11.1549,11.1511,11.1665,11.1626,11.1511,11.1511,11.1511,11.1511,11.1511,11.1511,11.1511,11.1511,11.1511,11.1511,11.1511,11.1511,11.1511,11.1511,11.128,11.1318,11.1126,11.1049,11.0944,11.0906,11.0944,11.1021,11.0637,11.0098,10.9521,10.8944,10.8867,10.8829,10.9175,10.9367,10.9098,10.8829,10.8906,10.929,10.9175,10.9329,10.906,10.8829,10.929,11.1511,11.1511,11.1511,11.1511,11.1511,11.1511,11.1511,11.1511,11.1511,11.1511,11.1511,11.1511,11.1511,11.1511,11.1511,11.1511,11.1434,11.0983,11.0752,11.0675,11.0214,10.9598,10.906,10.8906,10.8906,10.8867,10.8444,10.8021,10.7675,10.7175,10.6972,10.6982,10.6982,10.7087,10.7559,10.7482,10.7444,10.7482,10.7444,10.7482,10.7521,10.7944,10.8406,10.8713,10.9252,10.956,10.9906,11.0021,10.9713,10.9098,10.8867,10.8906,10.8906,10.8906,10.906,10.9406,11.0252,11.0868,11.1368,11.206,11.2522,11.256,11.256,11.256,11.2599,11.256,11.256,11.2599,11.256,11.256,11.256,11.256,11.256,11.2637,11.256,11.2252,11.1626,11.1511,11.1511,11.1511,11.1511,11.1511,11.1511,11.1511,11.1511,11.1511,11.1511,11.1511,11.1511,11.1511,11.1511,11.1511,11.1511,11.1357,11.128,11.1242,11.1214,11.1357,11.1329,11.0868,11.0483,10.9752,10.9867,10.9906,10.9944,10.9906,10.979,10.979,11.0175,11.0329,11.0021,10.9906,10.9867,10.9598,11.006,11.1511,11.1511,11.1511,11.1511,11.1511,11.1511,11.1511,11.1511,11.1511,11.1511,11.1511,11.1511,11.1511,11.1511,11.1511,11.1511,11.1472,11.1395,11.1434,11.1395,11.1203,11.0637,10.956,10.9483,10.9483,10.9406,10.9136,10.8713,10.829,10.7982,10.7829,10.7829,10.7829,10.8175,10.8482,10.8713,10.8867,10.8713,10.8598,10.8598,10.8636,10.8906,10.9329,10.9829,11.0175,11.0637,11.1137,11.128,11.0752,10.9252,10.9175,10.9329,10.929,10.9213,10.9675,11.0444,11.1252,11.1945,11.2714,11.3368,11.3868,11.3791,11.383,11.3984,11.3791,11.3714,11.3714,11.3676,11.3945,11.3753,11.3753,11.3868,11.3791,11.3714,11.383,11.3176,11.2099,11.1626,11.1588,11.1511,11.1511,11.1511,11.1511,11.1511,11.1511,11.1511,11.1511,11.1511,11.1511,11.1511,11.1511,11.1511,11.1511,11.1511,11.1472,11.1472,11.1472,11.1472,11.1472,11.128,11.128,11.0972,11.1203,11.1242,11.0829,11.0829,11.1011,11.1165,11.1291,11.1214,11.0818,11.1049,11.1318,11.0895,11.0972,11.1511,11.1511,11.1511,11.1511,11.1511,11.1511,11.1511,11.1511,11.1511,11.1511,11.1511,11.1511,11.1511,11.1511,11.1511,11.1511,11.1511,11.1511,11.1511,11.1511,11.1511,11.1395,11.0895,11.0818,11.0857,11.0714,11.0175,10.979,10.9521,10.8906,10.8636,10.8636,10.8675,10.8713,10.8944,10.9136,10.8906,10.8906,10.8944,10.906,10.9213,10.9637,11.0021,11.0329,11.0868,11.1242,11.1434,11.1511,11.1318,11.106,11.0906,11.0829,11.0829,11.0906,11.1329,11.1906,11.2329,11.2868,11.3599,11.3945,11.4022,11.4176,11.4214,11.3984,11.4022,11.4099,11.406,11.3984,11.3984,11.4176,11.4214,11.406,11.4176,11.4214,11.4137,11.3714,11.2714,11.2445,11.2126,11.1703,11.1511,11.1511,11.1511,11.1511,11.1511,11.1511,11.1511,11.1511,11.1511,11.1511,11.1511,11.1511,11.1511,11.1511,11.1511,11.1511,11.1511,11.1511,11.1511,11.1511,11.1511,11.1511,11.1511,11.1511,11.1434,11.1511,11.1511,11.1511,11.1395,11.1472,11.1511,11.1511,11.1511,11.1511,11.1511,11.1511,11.1511,11.1511,11.1511,11.1511,11.1511,11.1511,11.1511,11.1511,11.1511,11.1511,11.1511,11.1511,11.1511,11.1511,11.1511,11.1511,11.1511,11.1511,11.1511,11.1511,11.1511,11.1511,11.1511,11.1511,11.1395,11.106,11.0675,11.0175,10.979,10.9521,10.9483,10.9483,10.9829,11.006,11.006,11.0175,11.0175,11.0098,11.0137,11.0252,11.0521,11.0829,11.0868,11.1252,11.1511,11.1511,11.1511,11.1703,11.1983,11.2099,11.2049,11.2165,11.2445,11.2868,11.3214,11.3753,11.406,11.4522,11.4945,11.5215,11.5138,11.5138,11.5176,11.5176,11.5176,11.5176,11.5176,11.5215,11.5176,11.5176,11.5176,11.5176,11.5176,11.5138,11.4638,11.3599,11.2945,11.2368,11.1742,11.1511,11.1511,11.1511,11.1511,11.1511,11.1511,11.1511,11.1511,11.1511,11.1511,11.1511,11.1511,11.1511,11.1511,11.1511,11.1511,11.1511,11.1511,11.1511,11.1511,11.1511,11.1511,11.1511,11.1511,11.1511,11.1511,11.1511,11.1511,11.1511,11.1511,11.1511,11.1511,11.1511,11.1511,11.1511,11.1511,11.1511,11.1511,11.1511,11.1511,11.1511,11.1511,11.1511,11.1511,11.1511,11.1511,11.1511,11.1511,11.1511,11.1511,11.1511,11.1511,11.1511,11.1511,11.1511,11.1511,11.1511,11.1511,11.1511,11.1511,11.1511,11.1434,11.106,11.0637,11.0406,11.0406,11.0367,11.0367,11.0637,11.1291,11.1472,11.128,11.1242,11.1203,11.1242,11.128,11.1357,11.1395,11.1395,11.1703,11.178,11.1857,11.2011,11.2242,11.2829,11.3022,11.3099,11.3253,11.356,11.4137,11.4137,11.4753,11.5149,11.5484,11.5984,11.633,11.6484,11.6418,11.6418,11.6369,11.6253,11.6215,11.6292,11.6253,11.6253,11.6484,11.6253,11.6292,11.6341,11.638,11.5572,11.4291,11.3253,11.2406,11.1703,11.1511,11.1511,11.1511,11.1511,11.1511,11.1511,11.1511,11.1511,11.1511,11.1511,11.1511,11.1511,11.1511,11.1511,11.1511,11.1511,11.1511,11.1511,11.1511,11.1511,11.1511,11.1511,11.1511,11.1511,11.1511,11.1511,11.1511,11.1511,11.1511,11.1511,11.1511,11.1511,11.1511,11.1511,11.1511,11.1511,11.1511,11.1511,11.1511,11.1511,11.1511,11.1511,11.1511,11.1511,11.1511,11.1511,11.1511,11.1511,11.1511,11.1511,11.1511,11.1511,11.1511,11.1511,11.1511,11.1511,11.1511,11.1626,11.1665,11.1626,11.1511,11.1626,11.1549,11.1291,11.1291,11.1137,11.1214,11.1214,11.1395,11.1434,11.1511,11.1511,11.1511,11.1511,11.1511,11.1511,11.1511,11.1588,11.1665,11.2088,11.2434,11.2676,11.3176,11.3676,11.383,11.4484,11.4753,11.4676,11.4407,11.4522,11.4984,11.5253,11.5649,11.611,11.633,11.6484,11.6484,11.6484,11.6484,11.6484,11.6522,11.6638,11.6561,11.6572,11.6484,11.6484,11.6484,11.6484,11.6341,11.588,11.5138,11.406,11.3214,11.2368,11.1665,11.1549,11.1511,11.1511,11.1511,11.1511,11.1511,11.1511,11.1511,11.1511,11.1511,11.1511,11.1511,11.1511,11.1511,11.1511,11.1511,11.1511,11.1511,11.1511,11.1511,11.1511,11.1511,11.1511,11.1511,11.1511,11.1511,11.1511,11.1511,11.1511,11.1511,11.1511,11.1511,11.1511,11.1511,11.1511,11.1511,11.1511,11.1511,11.1511,11.1511,11.1511,11.1511,11.1511,11.1511,11.1511,11.1511,11.1511,11.1511,11.1511,11.1511,11.1511,11.1511,11.1511,11.1511,11.1511,11.1511,11.178,11.2022,11.2099,11.2445,11.2676,11.2791,11.2252,11.1549,11.1472,11.1588,11.1511,11.1511,11.1511,11.1511,11.1511,11.1549,11.1549,11.1549,11.1549,11.1549,11.1549,11.1665,11.2165,11.2522,11.2906,11.3407,11.3676,11.4214,11.4638,11.5061,11.5484,11.5638,11.5599,11.5445,11.5792,11.588,11.6034,11.6418,11.6484,11.6484,11.6484,11.6484,11.6484,11.6638,11.6869,11.7061,11.7061,11.6599,11.6484,11.6484,11.6484,11.6303,11.5918,11.5484,11.4676,11.3676,11.2983,11.228,11.1637,11.156,11.1522,11.1511,11.1511,11.1511,11.1511,11.1511,11.1511,11.1511,11.1511,11.1511,11.1511,11.1511,11.1511,11.1511,11.1511,11.1511,11.1511,11.1511,11.1511,11.1511,11.1511,11.1511,11.1511,11.1511,11.1511,11.1511,11.1511,11.1511,11.1511,11.1511,11.1511,11.1511,11.1511,11.1511,11.1511,11.1511,11.1511,11.1511,11.1511,11.1511,11.1511,11.1511,11.1511,11.1511,11.1511,11.1511,11.1511,11.1511,11.1511,11.1511,11.1511,11.1511,11.1511,11.1511,11.1511,11.1906,11.2522,11.2829,11.3022,11.3599,11.3753,11.3291,11.2445,11.2242,11.2088,11.2203,11.2088,11.2011,11.2126,11.2291,11.2022,11.2011,11.2011,11.2011,11.2022,11.2011,11.2242,11.2945,11.3099,11.3637,11.4214,11.4561,11.4945,11.5368,11.5649,11.5841,11.633,11.6484,11.6484,11.6484,11.6484,11.6484,11.6484,11.6484,11.6484,11.6484,11.6484,11.6484,11.6611,11.6984,11.7446,11.76,11.7023,11.6495,11.6484,11.6484,11.611,11.5522,11.5099,11.4484,11.3291,11.2522,11.2137,11.1714,11.1571,11.1504,11.1515,11.1511,11.1511,11.1511,11.1511,11.1511,11.1511,11.1511,11.1511,11.1511,11.1511,11.1511,11.1511,11.1511,11.1511,11.1511,11.1511,11.1511,11.1511,11.1511,11.1511,11.1511,11.1511,11.1511,11.1511,11.1511,11.1511,11.1511,11.1511,11.1511,11.1511,11.1511,11.1511,11.1511,11.1511,11.1511,11.1511,11.1511,11.1511,11.1511,11.1511,11.1511,11.1511,11.1511,11.1511,11.1511,11.1511,11.1511,11.1511,11.1549,11.1626,11.1703,11.1819,11.1819,11.2203,11.2714,11.2714,11.3483,11.4214,11.4214,11.3945,11.3637,11.3637,11.356,11.3522,11.3407,11.3637,11.333,11.3291,11.3714,11.3676,11.3637,11.3599,11.356,11.3522,11.3637,11.3984,11.4445,11.4868,11.5138,11.5561,11.6061,11.6176,11.6303,11.638,11.6484,11.6484,11.6484,11.6484,11.6484,11.6484,11.6561,11.6753,11.6792,11.688,11.6765,11.6561,11.6918,11.6869,11.7215,11.7753,11.7023,11.6572,11.6484,11.6484,11.6072,11.5341,11.4638,11.3868,11.2829,11.2175,11.178,11.1718,11.1557,11.1578,11.155,11.1526,11.1511,11.1511,11.1549,11.1637,11.1549,11.1588,11.1511,11.1511,11.1511,11.1511,11.1511,11.1511,11.1511,11.1511,11.1511,11.1511,11.1511,11.1511,11.1511,11.1511,11.1511,11.1511,11.1511,11.1511,11.1511,11.1511,11.1511,11.1511,11.1511,11.1511,11.1511,11.1511,11.1511,11.1511,11.1511,11.1511,11.1511,11.1511,11.1511,11.1511,11.1511,11.1511,11.1511,11.1511,11.1511,11.1511,11.1791,11.2049,11.2126,11.2483,11.2791,11.2906,11.333,11.406,11.4214,11.4599,11.5099,11.5418,11.5522,11.5176,11.4445,11.3984,11.406,11.4022,11.3907,11.4176,11.4022,11.3945,11.3945,11.3945,11.3984,11.3984,11.406,11.4253,11.4714,11.511,11.5533,11.5945,11.6253,11.6484,11.6484,11.6484,11.6484,11.6484,11.6484,11.6484,11.6534,11.7023,11.7215,11.7292,11.7677,11.7792,11.7907,11.7984,11.8254,11.8331,11.7753,11.7561,11.8446,11.7253,11.6611,11.6495,11.6484,11.5715,11.4956,11.4444,11.3461,11.2642,11.1983,11.156,11.1557,11.1689,11.1934,11.2253,11.2504,11.2523,11.2307,11.2477,11.2674,11.2257,11.1742,11.1665,11.1511,11.1511,11.1511,11.1511,11.1511,11.1511,11.1511,11.1511,11.1511,11.1511,11.1511,11.1511,11.1511,11.1511,11.1511,11.1511,11.1511,11.1511,11.1511,11.1511,11.1511,11.1511,11.1511,11.1511,11.1511,11.1511,11.1511,11.1511,11.1511,11.1511,11.1511,11.1511,11.1511,11.1511,11.1511,11.1511,11.1511,11.1511,11.1549,11.1906,11.2637,11.2714,11.3253,11.3753,11.4099,11.4407,11.483,11.5215,11.5599,11.6484,11.6264,11.6264,11.5984,11.5407,11.4791,11.4638,11.4868,11.4753,11.4676,11.4791,11.483,11.483,11.4791,11.4791,11.4753,11.4714,11.5061,11.5418,11.5687,11.588,11.638,11.6484,11.6484,11.6495,11.6792,11.6946,11.6946,11.7253,11.7369,11.7561,11.81,11.8523,11.8561,11.8754,11.9061,11.91,11.9177,11.9138,11.9754,11.8831,11.8138,11.8908,11.7502,11.6743,11.6573,11.6616,11.6035,11.5296,11.4641,11.352,11.2711,11.2589,11.2638,11.288,11.303,11.296,11.3272,11.3665,11.3657,11.3264,11.3352,11.3674,11.3062,11.2229,11.1823,11.1707,11.162,11.162,11.1609,11.1571,11.156,11.1669,11.1707,11.1609,11.1669,11.1609,11.1511,11.1511,11.1658,11.1511,11.1511,11.1511,11.1511,11.1511,11.1511,11.1511,11.1511,11.1511,11.1511,11.1511,11.1511,11.1511,11.1511,11.1511,11.1511,11.1511,11.1511,11.1511,11.1511,11.1511,11.1511,11.1511,11.1511,11.1588,11.1972,11.2753,11.2714,11.3445,11.3907,11.4099,11.4714,11.5264,11.5561,11.5753,11.6369,11.6484,11.6484,11.6446,11.6215,11.611,11.6303,11.5869,11.6138,11.6149,11.5869,11.5907,11.5945,11.5945,11.6022,11.6022,11.6061,11.6176,11.6264,11.638,11.6446,11.6484,11.6484,11.6484,11.6534,11.7138,11.7484,11.7561,11.8138,11.8407,11.8638,11.9254,11.9638,11.9754,11.9523,11.9215,11.9177,11.9331,11.9754,12.0331,11.8831,11.8407,11.8815,11.7584,11.6876,11.6794,11.6779,11.6392,11.5785,11.5209,11.4698,11.4079,11.3993,11.4065,11.4358,11.4313,11.4063,11.4395,11.479,11.4705,11.4329,11.4198,11.4443,11.361,11.2806,11.2215,11.1925,11.1827,11.1778,11.1729,11.1876,11.2364,11.2462,11.2413,11.2169,11.1925,11.1827,11.2218,11.1991,11.2138,11.1806,11.1511,11.156,11.156,11.1511,11.1511,11.1511,11.1511,11.1511,11.1511,11.1511,11.1511,11.1511,11.1511,11.1511,11.1511,11.1511,11.1511,11.1511,11.1511,11.1511,11.1511,11.1511,11.1511,11.1588,11.2242,11.3368,11.3522,11.433,11.5176,11.5638,11.5753,11.6022,11.6034,11.6226,11.6457,11.6484,11.6484,11.6484,11.6484,11.6484,11.6484,11.6484,11.6446,11.6484,11.6484,11.6484,11.6484,11.6484,11.6484,11.6484,11.6484,11.6484,11.6484,11.6484,11.6484,11.6484,11.6484,11.6484,11.6753,11.7446,11.783,11.81,11.8792,11.9177,11.9331,12.0023,12.0331,12.0485,12.0446,12.0639,12.0639,12.0677,12.0727,12.0931,11.9535,11.8869,11.8541,11.7731,11.6923,11.6939,11.7059,11.6887,11.63,11.5936,11.5618,11.5417,11.5255,11.5177,11.5314,11.5104,11.4869,11.5382,11.5912,11.57,11.5438,11.5297,11.5056,11.4296,11.3661,11.3177,11.2907,11.2877,11.2975,11.2975,11.3149,11.3323,11.3256,11.3188,11.3091,11.2945,11.341,11.3641,11.3227,11.2695,11.2433,11.2141,11.1767,11.1637,11.1675,11.1626,11.1511,11.1511,11.1665,11.178,11.1511,11.1511,11.1511,11.1511,11.1511,11.1511,11.1511,11.1511,11.1511,11.1511,11.1511,11.1511,11.1511,11.1511,11.1549,11.2434,11.356,11.406,11.5061,11.583,11.633,11.6484,11.6484,11.6457,11.6418,11.6484,11.6484,11.6484,11.6484,11.6484,11.6484,11.6484,11.6484,11.6484,11.6484,11.6484,11.6484,11.6484,11.6484,11.6484,11.6484,11.6484,11.6484,11.6561,11.6753,11.6984,11.71,11.7292,11.7484,11.7715,11.8138,11.8523,11.8869,11.9254,11.9754,12.0023,12.0266,12.065,12.0843,12.115,12.1612,12.1381,12.1504,12.1527,12.1281,12.0198,11.9283,11.9116,11.7938,11.7011,11.7144,11.732,11.7405,11.6979,11.6972,11.6704,11.6514,11.6354,11.6247,11.6179,11.613,11.6272,11.65,11.6998,11.6796,11.6393,11.5904,11.5728,11.5413,11.4801,11.4367,11.4219,11.425,11.4429,11.4608,11.439,11.4219,11.411,11.411,11.4289,11.4398,11.4786,11.4723,11.4093,11.3597,11.3177,11.2667,11.2113,11.1981,11.1895,11.2049,11.2368,11.256,11.2791,11.2637,11.1494,11.1511,11.1494,11.1543,11.1554,11.1522,11.1511,11.1511,11.1511,11.1511,11.1511,11.1511,11.1511,11.1511,11.1511,11.2472,11.3676,11.4022,11.4868,11.6138,11.6484,11.6484,11.6484,11.6484,11.6484,11.6484,11.6484,11.6484,11.6484,11.6484,11.6484,11.6572,11.6611,11.6599,11.6522,11.6484,11.6484,11.6484,11.6484,11.6484,11.6484,11.6484,11.6484,11.6638,11.7215,11.7484,11.76,11.8215,11.8446,11.8677,11.9369,11.9754,11.9946,12.0716,12.115,12.1277,12.1366,12.1481,12.1558,12.1585,12.162,12.1608,12.1693,12.1799,12.1521,12.0544,11.9492,11.9457,11.8228,11.7532,11.7554,11.7662,11.7751,11.7754,11.77,11.7631,11.74,11.7283,11.7133,11.7061,11.756,11.7981,11.7995,11.8036,11.788,11.7439,11.6704,11.6379,11.6263,11.6091,11.5684,11.5645,11.5717,11.5678,11.5756,11.5324,11.5068,11.499,11.5174,11.554,11.5534,11.5606,11.5397,11.4927,11.4566,11.4195,11.328,11.2396,11.28,11.3271,11.3362,11.3599,11.3791,11.3714,11.3407,11.1836,11.1836,11.1836,11.1836,11.1789,11.1599,11.1511,11.1511,11.1511,11.1522,11.1511,11.1511,11.1511,11.1511,11.1675,11.2406,11.3753,11.406,11.4907,11.633,11.6484,11.6484,11.6484,11.6484,11.6484,11.6484,11.6484,11.6484,11.6484,11.6484,11.6484,11.6572,11.683,11.6984,11.6638,11.6484,11.6484,11.6484,11.6484,11.6484,11.6522,11.6561,11.6599,11.6649,11.7484,11.7946,11.805,11.8869,11.9292,11.9408,12.0062,12.0369,12.0523,12.1189,12.1608,12.1688,12.1744,12.1886,12.1931,12.1972,12.1875,12.1799,12.181,12.1944,12.185,12.0561,11.999,11.9548,11.8539,11.795,11.778,11.794,11.8051,11.8137,11.8109,11.8109,11.7992,11.8031,11.7954,11.7916,11.8195,11.8203,11.8242,11.8242,11.8164,11.8086,11.7446,11.7342,11.7273,11.7378,11.7213,11.7174,11.7174,11.7101,11.6918,11.6508,11.6434,11.6544,11.6805,11.7135,11.7027,11.6657,11.6681,11.6534,11.59,11.5195,11.4422,11.3915,11.444,11.4839,11.4713,11.4494,11.4399,11.4203,11.3868,11.2103,11.2103,11.2103,11.2103,11.2073,11.1798,11.1672,11.1672,11.1672,11.1672,11.1672,11.1642,11.1602,11.156,11.1673,11.2428,11.3868,11.4022,11.4907,11.6292,11.6484,11.6484,11.6484,11.6484,11.6484,11.6484,11.6484,11.6484,11.6484,11.6484,11.6484,11.6638,11.7061,11.6869,11.6765,11.6957,11.7523,11.76,11.7638,11.76,11.7561,11.7523,11.7484,11.7715,11.8215,11.8754,11.8946,11.9369,11.9946,12.01,12.0381,12.0727,12.0958,12.12,12.1693,12.1788,12.2014,12.2128,12.2243,12.2309,12.2171,12.203,12.2062,12.2164,12.2123,12.1232,12.0585,11.9946,11.8933,11.8389,11.8112,11.8279,11.8227,11.8281,11.8281,11.8281,11.8281,11.8281,11.8281,11.8281,11.8281,11.8281,11.8281,11.8281,11.8242,11.8203,11.8141,11.8125,11.8086,11.8086,11.8086,11.8008,11.8008,11.7773,11.7734,11.7753,11.7792,11.8057,11.8086,11.8047,11.8018,11.7562,11.7872,11.7895,11.6824,11.5988,11.5677,11.5563,11.5645,11.5724,11.5716,11.5428,11.5107,11.4939,11.4774,11.2316,11.2316,11.2316,11.231,11.2294,11.2117,11.2022,11.1989,11.1989,11.1989,11.2019,11.1933,11.1834,11.1713,11.1644,11.2523,11.3725,11.3945,11.5061,11.6061,11.6446,11.6484,11.6484,11.6484,11.6484,11.6484,11.6484,11.6484,11.6484,11.6484,11.6484,11.6561,11.683,11.683,11.7215,11.8061,11.8561,11.8407,11.8523,11.8523,11.8523,11.8754,11.8638,11.8869,11.9369,11.9792,12.0139,12.0677,12.115,12.1393,12.1481,12.157,12.1608,12.1597,12.1744,12.1964,12.2273,12.2429,12.2524,12.2555,12.2561,12.2461,12.2524,12.2615,12.2395,12.1899,12.1323,12.0626,11.9795,11.9038,11.852,11.8383,11.8278,11.8281,11.8281,11.8281,11.8281,11.8281,11.8281,11.8281,11.8281,11.8281,11.8281,11.8281,11.8398,11.8281,11.8242,11.8242,11.8203,11.8203,11.8203,11.8203,11.8203,11.8242,11.8242,11.8242,11.8203,11.8203,11.8203,11.8203,11.8242,11.8242,11.8222,11.7917,11.7265,11.6757,11.6505,11.6418,11.6363,11.6468,11.6648,11.6523,11.6212,11.6365,11.6332,11.2711,11.2711,11.2711,11.2711,11.27,11.2667,11.2471,11.2238,11.2226,11.2226,11.222,11.2133,11.205,11.1847,11.1796,11.2705,11.3503,11.4214,11.5138,11.5918,11.6517,11.6495,11.6484,11.6484,11.6484,11.6484,11.6484,11.6484,11.6484,11.6484,11.6484,11.6522,11.6946,11.7176,11.783,11.9023,11.8792,11.8754,11.8946,11.9292,11.9292,11.9331,11.9292,11.9523,12.0023,12.0369,12.06,12.1177,12.1558,12.1716,12.1778,12.1843,12.1949,12.1993,12.2121,12.2434,12.27,12.2883,12.2939,12.2922,12.293,12.2946,12.3008,12.295,12.275,12.2401,12.1922,12.1251,12.039,11.9531,11.8984,11.875,11.8593,11.8515,11.8593,11.875,11.8789,11.8789,11.8789,11.8789,11.875,11.8789,11.8711,11.8476,11.8515,11.8398,11.8359,11.8437,11.8359,11.8398,11.8281,11.8281,11.8281,11.8281,11.8281,11.8242,11.8281,11.8281,11.8281,11.8281,11.8281,11.8281,11.8281,11.8078,11.7625,11.749,11.7463,11.7323,11.7147,11.7398,11.7552,11.7512,11.7444,11.7366,11.7236,11.2717,11.299,11.3029,11.3029,11.299,11.3029,11.2876,11.2651,11.2558,11.255,11.2536,11.2433,11.2277,11.2122,11.2111,11.2784,11.4171,11.4275,11.5082,11.6291,11.6583,11.6529,11.6506,11.6484,11.6484,11.6484,11.6484,11.6484,11.6484,11.6484,11.6484,11.6522,11.7138,11.7215,11.7561,11.8254,11.8561,11.8715,11.9138,11.9831,11.9985,11.9946,12.0062,12.0062,12.0562,12.0716,12.0804,12.142,12.1616,12.1832,12.1931,12.2034,12.22,12.234,12.251,12.2795,12.2969,12.3152,12.321,12.326,12.3258,12.3281,12.332,12.3281,12.3162,12.2858,12.2448,12.1953,12.0898,11.9961,11.9531,11.9179,11.9023,11.8867,11.9101,11.9375,11.9375,11.9414,11.9414,11.9414,11.9453,11.9492,11.9336,11.8984,11.8984,11.9297,11.9375,11.9297,11.9023,11.8711,11.8476,11.8281,11.8281,11.8281,11.8281,11.8281,11.8281,11.8281,11.8281,11.8281,11.8281,11.8359,11.8437,11.8359,11.8155,11.8125,11.8164,11.8047,11.7954,11.8203,11.8281,11.8125,11.7929,11.7708,11.754,11.2383,11.3086,11.3164,11.3164,11.3203,11.3164,11.3164,11.3164,11.2978,11.2916,11.2868,11.2762,11.2619,11.2406,11.2388,11.3209,11.4171,11.4508,11.5262,11.6788,11.6753,11.6659,11.6517,11.6484,11.6484,11.6484,11.6484,11.6484,11.6484,11.6484,11.6484,11.6484,11.6561,11.6676,11.6907,11.7677,11.8061,11.8254,11.9446,12.0562,12.0869,12.1216,12.1497,12.1343,12.142,12.1535,12.1547,12.1631,12.1722,12.1913,12.2109,12.2276,12.2478,12.2685,12.2883,12.3019,12.3162,12.3325,12.3398,12.3437,12.3476,12.3476,12.3515,12.3476,12.332,12.3242,12.2928,12.2422,12.1445,12.0586,12.0039,11.957,11.9297,11.9453,11.9765,12.0039,12.0195,12.0195,12.0195,12.0195,12.0195,12.0234,12.0117,11.9804,11.9531,12.0156,12.0117,11.9883,11.9843,11.9336,11.8984,11.8593,11.832,11.832,11.8281,11.8281,11.8281,11.8281,11.8398,11.8554,11.8789,11.8711,11.8593,11.8867,11.9218,11.8906,11.8828,11.8906,11.8984,11.8984,11.8984,11.8672,11.8476,11.8437,11.7978,11.2031,11.2265,11.2929,11.3203,11.3203,11.3203,11.3203,11.3203,11.3161,11.3125,11.3112,11.3047,11.2874,11.2656,11.2607,11.3372,11.4427,11.4811,11.5662,11.6525,11.6865,11.6776,11.6562,11.6562,11.6529,11.6484,11.6484,11.6484,11.6484,11.6484,11.6484,11.6484,11.6484,11.6484,11.6534,11.733,11.7715,11.7753,11.8754,11.9677,11.9715,12.0292,12.06,12.0869,12.1073,12.1631,12.1727,12.181,12.1994,12.2247,12.2442,12.2674,12.2917,12.3077,12.3183,12.3265,12.3335,12.3392,12.3476,12.3515,12.3515,12.3515,12.3515,12.3515,12.3476,12.3476,12.3242,12.2695,12.207,12.1211,12.0586,12.0117,11.9804,12.0156,12.0508,12.0781,12.1054,12.1054,12.1054,12.1054,12.1015,12.0976,12.0898,12.0625,12.0351,12.0117,11.9843,11.9804,12.0312,12.0195,11.9883,11.9414,11.8515,11.8359,11.832,11.8359,11.8398,11.8672,11.8867,11.9062,11.9258,11.9492,11.9687,12.0117,12.0351,11.9961,11.9843,12.0273,12.0273,11.9961,11.9843,11.9687,11.9843,11.9883,11.9029,11.1211,11.1953,11.2812,11.3203,11.3203,11.3203,11.3203,11.3203,11.3203,11.3203,11.3203,11.3158,11.302,11.2858,11.285,11.3375,11.4507,11.49,11.5632,11.6412,11.697,11.7007,11.6866,11.6715,11.6691,11.6659,11.6529,11.6484,11.6484,11.6484,11.6484,11.6484,11.6484,11.6534,11.6572,11.7023,11.7253,11.7215,11.783,11.7984,11.8292,11.9292,12.0177,12.0562,12.1047,12.1589,12.1826,12.1944,12.2209,12.2507,12.2796,12.3055,12.3208,12.3325,12.3377,12.3386,12.3433,12.3437,12.3476,12.3515,12.3515,12.3515,12.3515,12.3515,12.3515,12.3515,12.3515,12.3008,12.2343,12.1562,12.1523,12.1172,12.1093,12.1289,12.1836,12.2265,12.2383,12.2383,12.2383,12.2383,12.2383,12.2343,12.2148,12.164,12.1523,12.1836,12.1289,12.1054,12.1328,12.1015,12.0742,12.0234,11.9375,11.8554,11.832,11.8398,11.8515,11.8867,11.9414,11.9765,12.0117,12.0508,12.0859,12.1015,12.1015,12.0742,12.082,12.1133,12.0976,12.0547,12.0625,12.0742,12.0976,12.1133,12.0351,11.0351,11.1914,11.2695,11.3125,11.3203,11.3203,11.3203,11.3203,11.3203,11.3203,11.3203,11.3201,11.3113,11.3059,11.3081,11.3593,11.4135,11.4705,11.5515,11.6385,11.6947,11.704,11.7086,11.707,11.6942,11.6766,11.6605,11.6529,11.6484,11.6484,11.6484,11.6484,11.6495,11.6484,11.6495,11.6522,11.6599,11.6638,11.683,11.6676,11.7523,11.8765,11.97,12.0431,12.1093,12.1678,12.1944,12.2164,12.2388,12.2718,12.3073,12.327,12.3398,12.3476,12.3476,12.3476,12.3476,12.3476,12.3515,12.3515,12.3515,12.3515,12.3515,12.3515,12.3515,12.3515,12.3515,12.3203,12.2578,12.2187,12.2148,12.2148,12.2109,12.2187,12.2812,12.3359,12.3359,12.3359,12.3359,12.3398,12.3359,12.3359,12.3047,12.2578,12.2656,12.3047,12.3164,12.3125,12.2851,12.207,12.1523,12.0976,12.0195,11.9453,11.8867,11.8906,11.9218,11.9687,12.0234,12.0586,12.1015,12.1601,12.1836,12.1562,12.1523,12.1601,12.1601,12.1797,12.1523,12.1328,12.164,12.1914,12.1836,12.1914,12.1601,11.0312,11.1914,11.2109,11.2539,11.3125,11.3203,11.3203,11.3203,11.3203,11.3203,11.3203,11.3203,11.3163,11.3164,11.3162,11.3547,11.412,11.4602,11.5497,11.6474,11.6746,11.6974,11.72,11.7312,11.7139,11.6922,11.6704,11.654,11.6577,11.6573,11.6506,11.654,11.6529,11.6517,11.6517,11.6529,11.6573,11.6583,11.6573,11.6573,11.704,11.8118,11.9102,11.9967,12.0962,12.1715,12.2274,12.2472,12.2722,12.302,12.3215,12.3388,12.3476,12.3515,12.3515,12.3515,12.3515,12.3515,12.3515,12.3515,12.3515,12.3515,12.3515,12.3515,12.3515,12.3515,12.3476,12.3398,12.2851,12.2422,12.2343,12.2343,12.2343,12.2539,12.2968,12.3281,12.3437,12.3437,12.3476,12.3476,12.3476,12.3437,12.3398,12.3008,12.2734,12.2968,12.289,12.289,12.3242,12.2773,12.2265,12.1718,12.1093,12.0781,12.0429,12.0117,12.0312,12.0742,12.1172,12.1679,12.2265,12.289,12.2968,12.25,12.2656,12.289,12.2812,12.2461,12.2656,12.2617,12.2929,12.3125,12.2929,12.2695,12.2422]}]]